MPMG - Transparência

Contra-cheque - Remuneração de todos os servidores ativos - Pós Resolução CNMP 200/2019

Período: 2020 - Julho

Ordem Matrícula Nome Cargo Efetivo Lotação Rendimentos Descontos Rendimento Líquido Total *14 Data de Referência
Remuneração básica Remuneração eventual ou Temporária Outras Remunerações Temporárias *7 Verbas Indenizatórias *8 Total de Rendimentos Brutos *9 Obrigatórios Legais Outros Descontos Eventuais Total de descontos *13
Remuneração do Cargo Efetivo *1 Outras Verbas Remuneratórias *2 Função de Confiança ou Cargo em Comissão *3 Gratificação Natalina *4 Férias 1/3 Constitucional *5 Abono de Permanência *6 Contribuição Previdenciária *10 Imposto de Renda *11 Retenção por Teto Constitucional *12
1 498900 ABDON MARCIO BARBOSA DA SILVA OFICIAL DO MP ABRE CAMPO - COMARCA; ABRE CAMPO-PJ-01PJ 5.562,64 556,26 0,00 0,00 0,00 0,00 0,00 1.550,00 7.668,90 673,08 523,97 0,00 0,00 1.197,05 6.471,85 31/07/2020
2 177800 ADALBERTO MENEZES FARIA SAMORA OFICIAL DO MP BELO HORIZONTE - COMARCA; DIR ESTRUTURA E PROCESSOS ORGANIZACIONAIS 14.790,66 5.916,26 0,00 0,00 0,00 0,00 0,00 1.550,00 22.256,92 2.277,76 4.094,38 0,00 0,00 6.372,14 15.884,78 31/07/2020
3 306400 ADALBERTO MOREIRA GONCALVES ANALISTA DO MP BELO HORIZONTE - COMARCA; BH-24PJ JUIZO REG BARREIRO-SECRETARIA 15.272,02 4.581,61 0,00 0,00 0,00 0,00 0,00 1.550,00 21.403,63 2.183,90 3.989,82 0,00 0,00 6.173,72 15.229,91 31/07/2020
4 179300 ADENISE AUXILIADORA SOUZA SAD OFICIAL DO MP BARBACENA - COMARCA; BARBACENA-PJ-06PJ 14.324,23 5.729,69 0,00 0,00 0,00 0,00 0,00 1.550,00 21.603,92 2.205,93 3.934,56 0,00 0,00 6.140,49 15.463,43 31/07/2020
5 272200 ADILSON BATISTA ORNELAS OFICIAL DO MP LAVRAS - COMARCA; LAVRAS-PJ-SECRETARIA 5.136,32 1.027,26 0,00 0,00 0,00 0,00 0,00 1.550,00 7.713,58 677,99 587,04 0,00 0,00 1.265,03 6.448,55 31/07/2020
6 380100 ADILSON GONCALVES DE MELO JUNIOR ANALISTA DO MP ARAXÁ - COMARCA; ARAXA-PJ-05PJ 10.397,52 2.079,50 0,00 0,00 0,00 0,00 0,00 2.319,39 14.796,41 1.372,47 2.080,12 0,00 0,00 3.452,59 11.343,82 31/07/2020
7 148800 ADILSON JANUARIO OFICIAL DO MP BELO HORIZONTE - COMARCA; BH-22PJ PES COM DEF E IDOSOS-SECRETARIA 16.750,82 11.725,57 0,00 0,00 0,00 0,00 0,00 1.550,00 30.026,39 3.132,40 6.048,10 0,00 0,00 9.180,50 20.845,89 31/07/2020
8 322601 ADMILSON SILVEIRA ANALISTA DO MP SAO JOAO DO PARAISO COMARCA; SAO JOAO DO PARAISO-PJ-UNPJ 8.858,43 885,84 0,00 0,00 0,00 0,00 0,00 1.550,00 11.294,27 1.071,87 1.515,55 0,00 0,00 2.587,42 8.706,85 31/07/2020
9 333700 ADRIANA ABRITTA TEIXEIRA OFICIAL DO MP BELO HORIZONTE - COMARCA; DIRET DE PESSOAL DO MINISTERIO PUBLICO - DPMP 10.069,62 3.020,89 0,00 0,00 0,00 0,00 0,00 1.550,00 14.640,51 1.439,96 2.334,54 0,00 0,00 3.774,50 10.866,01 31/07/2020
10 468500 ADRIANA APARECIDA FIRMINO ANALISTA DO MP CARATINGA - COMARCA; CARATINGA-PJ-04PJ 10.069,62 1.006,96 0,00 0,00 0,00 0,00 0,00 2.319,39 13.395,97 1.218,42 1.789,50 0,00 0,00 3.007,92 10.388,05 31/07/2020
11 326100 ADRIANA AUGUSTA AMARAL BELO OFICIAL DO MP BARBACENA - COMARCA; BARBACENA-PJ-08PJ 10.069,62 3.020,89 0,00 0,00 0,00 0,00 0,00 1.550,00 14.640,51 1.439,96 2.230,27 0,00 0,00 3.670,23 10.970,28 31/07/2020
12 605700 ADRIANA COSTA LIRA ASSESSOR/OFICIAL BELO HORIZONTE - COMARCA; COORD ESTADUAL DE DEFESA DA EDUCACAO 0,00 817,05 8.170,49 0,00 0,00 0,00 0,00 1.550,00 10.537,54 672,40 1.416,56 0,00 0,00 2.088,96 8.448,58 31/07/2020
13 541100 ADRIANA CRISTINA DE OLIVEIRA OFICIAL DO MP GUAPÉ - COMARCA; GUAPE-PJ-UNPJ 4.974,42 497,44 0,00 0,00 0,00 0,00 0,00 2.319,39 7.791,25 601,90 417,74 0,00 0,00 1.019,64 6.771,61 31/07/2020
14 254800 ADRIANA DAS GRACAS FERNANDES ANALISTA DO MP UBERABA - COMARCA; UBERABA-PJ-07PJ 17.413,92 12.189,74 0,00 0,00 0,00 0,00 0,00 1.550,00 31.153,66 3.256,40 6.324,00 0,00 0,00 9.580,40 21.573,26 31/07/2020
15 217400 ADRIANA DE CARVALHO CATAO BRAGA ASSESSOR BELO HORIZONTE - COMARCA; DIV FISCAL ADM CONT TERCEIRIZACAO 0,00 3.268,20 8.170,49 0,00 0,00 0,00 0,00 1.550,00 12.988,69 713,09 2.382,68 0,00 0,00 3.095,77 9.892,92 31/07/2020
16 434600 ADRIANA FERREIRA DA SILVA ANALISTA DO MP BELO HORIZONTE - COMARCA; BH-14PJ DEFESA CONSUMIDOR-GAB 112PJ 12.204,02 2.440,80 0,00 0,00 0,00 0,00 0,00 1.550,00 16.194,82 1.610,93 2.714,96 0,00 0,00 4.325,89 11.868,93 31/07/2020
17 499800 ADRIANA FERREIRA TIAGO OFICIAL DO MP SALINAS - COMARCA; SALINAS-PJ-02PJ 6.741,63 674,16 0,00 0,00 0,00 0,00 0,00 1.550,00 8.965,79 815,74 945,65 0,00 0,00 1.761,39 7.204,40 31/07/2020
18 543400 ADRIANA GUIMARAES NUNES DE PAULA ANALISTA DO MP PATROCÍNIO - COMARCA; PATROCINIO-PJ-01PJ 8.436,53 843,65 0,00 0,00 0,00 0,00 0,00 1.550,00 10.830,18 1.020,82 1.401,96 0,00 0,00 2.422,78 8.407,40 31/07/2020
19 471500 ADRIANA HORTA DE CARVALHO RODRIGUES DE SOUSA ANALISTA DO MP BELO HORIZONTE - COMARCA; GRUPO ESP PROM JUST DEF PROB ADM PAT PUB 10.069,62 1.006,96 0,00 0,00 0,00 0,00 0,00 1.550,00 12.626,58 1.218,42 1.789,50 0,00 0,00 3.007,92 9.618,66 31/07/2020
20 86400 ADRIANA MOREIRA CALDEIRA BRANT OFICIAL DO MP BELO HORIZONTE - COMARCA; BH-21PJ TUTELA FUNDACOES-SECRETARIA 14.790,66 10.353,47 0,00 67,60 8.381,38 2.993,59 0,00 1.550,00 38.136,70 2.765,85 8.350,16 0,00 0,00 11.116,01 27.020,69 31/07/2020
21 480700 ADRIANA MOREIRA DE AVELLAR CEZILIO OFICIAL DO MP BELO HORIZONTE - COMARCA; BH-18PJ VIOLENCIA DOMESTICA-SECRETARIA 6.123,79 612,38 0,00 0,00 0,00 0,00 0,00 1.550,00 8.286,17 740,98 675,04 0,00 0,00 1.416,02 6.870,15 31/07/2020
22 326000 ADRIANA PEREIRA CARNEIRO RESENDE OFICIAL DO MP BELO HORIZONTE - COMARCA; BH-25PJ DEFESA DA EDUCACAO-SECRETARIA 9.444,70 2.833,41 0,00 0,00 0,00 0,00 0,00 1.550,00 13.828,11 1.350,59 2.135,71 0,00 0,00 3.486,30 10.341,81 31/07/2020
23 502200 ADRIANA PETRUCCI DAVINA OFICIAL DO MP PATROCÍNIO - COMARCA; PATROCINIO-PJ-01PJ 7.421,79 742,18 0,00 0,00 0,00 0,00 0,00 2.319,39 10.483,36 898,04 1.128,77 0,00 0,00 2.026,81 8.456,55 31/07/2020
24 201900 ADRIANA REIS PIMENTA OFICIAL DO MP TEÓFILO OTONI - COMARCA; TEOFILO OTONI-PJ-03PJ 14.324,23 5.729,69 0,00 0,00 0,00 0,00 0,00 1.550,00 21.603,92 2.205,93 4.038,84 0,00 0,00 6.244,77 15.359,15 31/07/2020
25 278700 ADRIANA RODRIGUES PINTO COELHO AMARAL ANALISTA DO MP BELO HORIZONTE - COMARCA; ASSESS TECNICA DA CORREGEDORIA-GERAL DO MP 16.750,82 5.025,25 0,00 0,00 0,00 0,00 0,00 1.550,00 23.326,07 2.395,37 4.408,20 0,00 0,00 6.803,57 16.522,50 31/07/2020
26 468000 ADRIANA SANTOS DE SANTANA MOREIRA ANALISTA DO MP ARAÇUAÍ - COMARCA; ARACUAI-PJ-02PJ 10.069,62 4.027,85 0,00 0,00 0,00 0,00 0,00 1.550,00 15.647,47 1.550,72 2.476,72 0,00 0,00 4.027,44 11.620,03 31/07/2020
27 194700 ADRIANA TSUKIDE OFICIAL DO MP UBERABA - COMARCA; COORD REG BACIAS PARANAIBA BAIXO RIO GRANDE 14.324,23 5.729,69 0,00 0,00 0,00 0,00 0,00 1.550,00 21.603,92 2.205,93 3.986,70 0,00 0,00 6.192,63 15.411,29 31/07/2020
28 465500 ADRIANO CASSIANO MATOS ANALISTA DO MP ARAXÁ - COMARCA; ARAXA-PJ-02PJ 10.069,62 1.006,96 0,00 0,00 0,00 0,00 0,00 1.550,00 12.626,58 1.218,42 1.841,63 0,00 0,00 3.060,05 9.566,53 31/07/2020
29 500500 ADRIANO DE ALMEIDA SILVA OFICIAL DO MP UBERABA - COMARCA; UBERABA-PJ-12PJ 7.421,79 742,18 0,00 0,00 0,00 0,00 0,00 2.319,39 10.483,36 898,04 706,84 0,00 0,00 1.604,88 8.878,48 31/07/2020
30 187200 ADRIANO DE FREITAS MARON OFICIAL DO MP PONTE NOVA - COMARCA; PONTE NOVA-PJ-03PJ 12.204,02 10.983,62 0,00 56,10 0,00 2.886,03 0,00 1.550,00 27.679,77 2.550,64 5.507,24 0,00 0,00 8.057,88 19.621,89 31/07/2020
31 477900 ADRIANO FERREIRA DE ALMEIDA OFICIAL DO MP TAIOBEIRAS - COMARCA; TAIOBEIRAS-PJ-UNPJ 7.421,79 742,18 0,00 0,00 0,00 0,00 0,00 1.550,00 9.713,97 898,04 1.024,50 0,00 0,00 1.922,54 7.791,43 31/07/2020
32 269101 ADRIANO PEREIRA SILVA ANALISTA DO MP UBERABA - COMARCA; UBERABA-PJ-02PJ 10.069,62 1.006,96 0,00 0,00 0,00 0,00 0,00 2.319,39 13.395,97 1.218,42 1.685,22 0,00 0,00 2.903,64 10.492,33 31/07/2020
33 414200 ADRIANO RODRIGUES FERNANDES ANALISTA DO MP CARANDAÍ - COMARCA; CARANDAI-PJ-UNPJ 10.069,62 2.013,92 0,00 0,00 0,00 0,00 0,00 1.550,00 13.633,54 1.329,19 1.983,81 0,00 0,00 3.313,00 10.320,54 31/07/2020
34 536700 ADRIELLE COSTA MARIA MOURAO FIGUEIREDO OFICIAL DO MP SERRO - COMARCA; SERRO-PJ-SECRETARIA 4.974,42 497,44 0,00 0,00 0,00 0,00 0,00 2.319,39 7.791,25 601,90 469,88 0,00 0,00 1.071,78 6.719,47 31/07/2020
35 514300 ADRIENE DAMASCENO BRAGA ANALISTA DO MP ALFENAS - COMARCA; ALFENAS-PJ-03PJ 10.069,62 1.006,96 0,00 0,00 0,00 0,00 0,00 2.319,39 13.395,97 1.218,42 1.841,63 0,00 0,00 3.060,05 10.335,92 31/07/2020
36 254600 ADRIENE DOMINGUES COSTA ANALISTA DO MP BELO HORIZONTE - COMARCA; SUPERINTENDENCIA DE RECURSOS HUMANOS 16.112,82 4.833,85 0,00 0,00 0,00 0,00 0,00 0,00 20.946,67 2.304,13 4.257,34 0,00 0,00 6.561,47 14.385,20 31/07/2020
37 252001 ADRIENE GOMES BARRETO ANALISTA DO MP BELO HORIZONTE - COMARCA; BH-19PJ SAUDE-SECRETARIA 150PJ 13.011,52 5.204,61 0,00 0,00 0,00 0,00 0,00 1.550,00 19.766,13 2.003,77 3.589,04 0,00 0,00 5.592,81 14.173,32 31/07/2020
38 645000 AFONSO CELSO GUIMARAES JUNIOR OFICIAL DO MP PIRAPORA - COMARCA; PIRAPORA-PJ-01PJ 4.238,09 254,29 0,00 0,00 0,00 0,00 0,00 1.550,00 6.042,38 494,16 263,47 0,00 0,00 757,63 5.284,75 31/07/2020
39 302500 AGENOR JOSE DA SILVA JUNIOR ANALISTA DO MP JUIZ DE FORA - COMARCA; JUIZ DE FORA-PJ-14PJ 15.272,02 4.581,61 0,00 0,00 0,00 0,00 0,00 1.550,00 21.403,63 2.183,90 3.885,54 0,00 0,00 6.069,44 15.334,19 31/07/2020
40 357500 AILSON WAGNER DE ALENCAR SILVA OFICIAL DO MP BELO HORIZONTE - COMARCA; BH-12PJ JUIZO CRIMINAL-SECRETARIA 9.146,93 3.658,77 0,00 0,00 0,00 0,00 0,00 1.550,00 14.355,70 1.408,63 2.108,42 0,00 0,00 3.517,05 10.838,65 31/07/2020
41 366400 AILTON ALEXSSANDRO ALVES OFICIAL DO MP PARÁ DE MINAS - COMARCA; PARA DE MINAS-PJ-05PJ 8.579,10 3.431,64 0,00 0,00 0,00 0,00 0,00 1.550,00 13.560,74 1.321,18 2.070,27 0,00 0,00 3.391,45 10.169,29 31/07/2020
42 318900 AILTON DE CASTRO RIBEIRO JUNIOR OFICIAL DO MP ITAJUBA - COMARCA; ITAJUBA-PJ-01PJ 9.444,70 2.833,41 0,00 0,00 0,00 0,00 0,00 2.319,39 14.597,50 1.350,59 1.927,16 0,00 0,00 3.277,75 11.319,75 31/07/2020
43 464400 ALAN MONTEIRO GASPAR ANALISTA DO MP SETE LAGOAS - COMARCA; SETE LAGOAS-PJ-03PJ 10.069,62 1.006,96 0,00 0,00 0,00 0,00 0,00 1.550,00 12.626,58 1.218,42 1.841,63 0,00 0,00 3.060,05 9.566,53 31/07/2020
44 670200 ALANA ARAUJO AGUIAR ASSESSOR BELO HORIZONTE - COMARCA; ASSESS EXECUTIVA DO CONSELHO SUPERIOR DO MP 0,00 0,00 3.076,28 0,00 0,00 0,00 0,00 1.550,00 4.626,28 443,62 205,10 0,00 0,00 648,72 3.977,56 31/07/2020
45 492000 ALANA DE CASTRO FREITAS OFICIAL DO MP ITUMIRIM - COMARCA; ITUMIRIM-PJ-SECRETARIA 6.123,79 612,38 0,00 0,00 0,00 0,00 0,00 1.550,00 8.286,17 740,98 779,32 0,00 0,00 1.520,30 6.765,87 31/07/2020
46 306700 ALANA MARCIA DE OLIVEIRA OFICIAL DO MP BELO HORIZONTE - COMARCA; DIRETORIA DE ADMINISTRACAO FINANCEIRA 9.444,70 2.833,41 0,00 0,00 0,00 0,00 0,00 1.550,00 13.828,11 1.350,59 2.135,71 0,00 0,00 3.486,30 10.341,81 31/07/2020
47 324500 ALANMAR COUTINHO COSTA OFICIAL DO MP LEOPOLDINA - COMARCA; LEOPOLDINA-PJ-02PJ 9.146,93 2.744,08 0,00 0,00 0,00 0,00 0,00 1.550,00 13.441,01 1.308,01 1.936,69 0,00 0,00 3.244,70 10.196,31 31/07/2020
48 407300 ALBERTO LUIZ SOARES DE OLIVEIRA ANALISTA DO MP BELO HORIZONTE - COMARCA; DIRETORIA DE PROJETOS DE EDIFICACOES 12.204,02 2.440,80 0,00 0,00 0,00 0,00 0,00 1.550,00 16.194,82 1.610,93 2.714,96 0,00 0,00 4.325,89 11.868,93 31/07/2020
49 118200 ALBERTO PEREIRA DA COSTA OFICIAL DO MP DORES DO INDAIÁ - COMARCA; DORES DO INDAIA-PJ-UNPJ 15.272,02 13.744,82 0,00 74,96 0,00 3.439,42 0,00 1.550,00 34.081,22 3.191,85 7.006,00 0,00 0,00 10.197,85 23.883,37 31/07/2020
50 282400 ALCILENE MARISE DE ARAUJO ANALISTA DO MP BELO HORIZONTE - COMARCA; BH-23PJ INF-FISC MED SOC FEC 16.750,82 5.025,25 0,00 0,00 0,00 0,00 0,00 1.550,00 23.326,07 2.395,37 4.356,06 0,00 0,00 6.751,43 16.574,64 31/07/2020
51 112600 ALCIONE DA MOTA JARDIM OFICIAL DO MP BELO HORIZONTE - COMARCA; CAO-CRIANCAS E ADOLESCENTES-SECRETARIA 12.601,30 8.820,91 0,00 0,00 0,00 0,00 0,00 1.550,00 22.972,21 2.356,44 4.321,59 0,00 0,00 6.678,03 16.294,18 31/07/2020
52 396400 ALCIONE DE FREITAS E SILVA ANALISTA DO MP BELO HORIZONTE - COMARCA; ASSESS JUR DO CONS SUPERIOR DO MINISTERIO PUB 13.011,52 5.204,61 0,00 0,00 0,00 0,00 0,00 1.550,00 19.766,13 2.003,77 3.589,04 0,00 0,00 5.592,81 14.173,32 31/07/2020
53 657400 ALCIONE MARIA FERREIRA ASSESSOR BELO HORIZONTE - COMARCA; PROC JUST RECURSOS ESP E EXTRAORD CRIMINAIS 0,00 0,00 10.397,52 0,00 0,00 0,00 0,00 1.550,00 11.947,52 713,09 2.096,36 0,00 0,00 2.809,45 9.138,07 31/07/2020
54 161600 ALCIONE NERY SOUZA ASSESSOR BELO HORIZONTE - COMARCA; BH-18PJ DIREITOS HUMANOS-SECRETARIA 0,00 4.085,25 8.170,49 0,00 0,00 0,00 0,00 1.550,00 13.805,74 713,09 2.607,37 0,00 0,00 3.320,46 10.485,28 31/07/2020
55 376000 ALDA GOMES LANA OFICIAL DO MP BELO HORIZONTE - COMARCA; BH-18PJ VIOLENCIA DOMESTICA-SECRETARIA 8.579,10 1.715,82 0,00 0,00 0,00 0,00 0,00 1.550,00 11.844,92 1.132,44 1.598,18 0,00 0,00 2.730,62 9.114,30 31/07/2020
56 148000 ALDA MARTINS SIMOES OFICIAL DO MP BELO HORIZONTE - COMARCA; BH-23PJ CIVEL- FISC ENT AB POL 16.750,82 8.375,41 0,00 0,00 0,00 0,00 0,00 1.550,00 26.676,23 2.763,89 5.280,28 0,00 0,00 8.044,17 18.632,06 31/07/2020
57 318400 ALDO CREPALDI JUNIOR OFICIAL DO MP BELO HORIZONTE - COMARCA; DIVISAO DE MATERIAIS 9.444,70 2.833,41 0,00 0,00 0,00 0,00 0,00 1.550,00 13.828,11 1.350,59 2.083,57 0,00 0,00 3.434,16 10.393,95 31/07/2020
58 604500 ALENIZE APARECIDA RODRIGUES HENRIQUE OFICIAL DO MP RIO NOVO - COMARCA; RIO NOVO-PJ-UNPJ 4.974,42 497,44 0,00 0,00 0,00 0,00 0,00 1.550,00 7.021,86 601,90 469,88 0,00 0,00 1.071,78 5.950,08 31/07/2020
59 197900 ALESSA DE SOUSA E SILVA OFICIAL DO MP OLIVEIRA - COMARCA; OLIVEIRA-PJ-02PJ 14.790,66 5.916,26 0,00 0,00 0,00 0,00 0,00 1.700,00 22.406,92 2.277,76 4.094,38 0,00 0,00 6.372,14 16.034,78 31/07/2020
60 428500 ALESSANDRA ALVES DINIZ OFICIAL DO MP BELO HORIZONTE - COMARCA; CENTRAL DE APOIO TECNICO-SECRETARIA 5.743,70 2.871,85 0,00 0,00 0,00 0,00 0,00 1.550,00 10.165,55 947,71 1.239,30 0,00 0,00 2.187,01 7.978,54 31/07/2020
61 286801 ALESSANDRA BOTELHO JUNQUEIRA DE MENEZES ANALISTA DO MP PASSOS - COMARCA; PASSOS-PJ-05PJ 12.601,30 5.040,52 0,00 0,00 0,00 0,00 0,00 3.088,78 20.730,60 1.940,60 3.239,93 0,00 0,00 5.180,53 15.550,07 31/07/2020
62 307000 ALESSANDRA CRISTINA SANTOS MENDES ANALISTA DO MP BELO HORIZONTE - COMARCA; BH-18PJ VIOLENCIA DOMESTICA-SECRETARIA 11.819,15 3.545,75 0,00 0,00 0,00 0,00 0,00 1.550,00 16.914,90 1.690,14 2.839,06 0,00 0,00 4.529,20 12.385,70 31/07/2020
63 264400 ALESSANDRA DE SOUZA SANTOS ANALISTA DO MP BELO HORIZONTE - COMARCA; OUVIDORIA DO MPMG 17.413,92 6.965,57 0,00 0,00 0,00 0,00 0,00 1.550,00 25.929,49 2.681,74 5.097,52 0,00 0,00 7.779,26 18.150,23 31/07/2020
64 441500 ALESSANDRA DRUMMOND DE FIGUEIREDO ROSSI ANALISTA DO MP BELO HORIZONTE - COMARCA; DIRETORIA DE PROJETOS DE EDIFICACOES 10.069,62 2.013,92 0,00 0,00 0,00 0,00 0,00 1.550,00 13.633,54 1.329,19 2.088,09 0,00 0,00 3.417,28 10.216,26 31/07/2020
65 524000 ALESSANDRA LUCIOLI DE BARROS GUERRA ANALISTA DO MP BELO HORIZONTE - COMARCA; BH-19PJ SAUDE--SECRETARIA 10.069,62 1.006,96 0,00 0,00 0,00 0,00 0,00 1.550,00 12.626,58 1.218,42 1.685,22 0,00 0,00 2.903,64 9.722,94 31/07/2020
66 479900 ALESSANDRA MARA ANDRADE DE FARIA OFICIAL DO MP UBERABA - COMARCA; UBERABA-PJ-09PJ 7.421,79 742,18 0,00 0,00 0,00 0,00 0,00 1.550,00 9.713,97 898,04 1.128,77 0,00 0,00 2.026,81 7.687,16 31/07/2020
67 226700 ALESSANDRA MARA VASCONCELOS REZENDE OFICIAL DO MP CONSELHEIRO LAFAIETE - COMARCA; CONSELHEIRO LAFAIETE-PJ-07PJ 10.069,62 3.020,89 0,00 0,00 0,00 0,00 0,00 1.550,00 14.640,51 1.439,96 2.334,54 0,00 0,00 3.774,50 10.866,01 31/07/2020
68 112100 ALESSANDRA MARCIA FERREIRA OFICIAL DO MP BELO HORIZONTE - COMARCA; BELO HORIZONTE- SECRETARIA DAS PROMOTORIAS 10.069,62 7.048,73 0,00 0,00 0,00 0,00 0,00 1.550,00 18.668,35 1.883,02 3.320,36 0,00 0,00 5.203,38 13.464,97 31/07/2020
69 196500 ALESSANDRA MARIA RIBEIRO LUCIANO OFICIAL DO MP RIO PARANAÍBA - COMARCA; RIO PARANAIBA-PJ-UNPJ 14.790,66 5.916,26 0,00 0,00 0,00 0,00 0,00 1.550,00 22.256,92 2.277,76 4.094,38 0,00 0,00 6.372,14 15.884,78 31/07/2020
70 91400 ALESSANDRA MENDES VASCONCELOS DE SOUZA OFICIAL DO MP BELO HORIZONTE - COMARCA; BH-23PJ INF-FISC MED SOC AB 18.820,14 13.174,10 0,00 91,50 0,00 3.702,50 0,00 1.550,00 37.338,24 3.519,37 7.929,06 0,00 0,00 11.448,43 25.889,81 31/07/2020
71 651700 ALESSANDRA PROFIRIO SOUZA OFICIAL DO MP NOVA ERA - COMARCA; NOVA ERA-PJ-UNPJ 4.238,09 254,29 0,00 0,00 0,00 0,00 0,00 1.550,00 6.042,38 494,16 220,81 0,00 0,00 714,97 5.327,41 31/07/2020
72 384900 ALESSANDRA RODRIGUES ANALISTA DO MP VISCONDE DO RIO BRANCO - COMARCA; VISCONDE DO RIO BRANCO-PJ-03PJ 13.011,52 2.602,30 0,00 0,00 0,00 0,00 0,00 3.088,78 18.702,60 1.717,52 2.847,85 0,00 0,00 4.565,37 14.137,23 31/07/2020
73 390000 ALESSANDRA SPADANO MASSARA VASCONCELOS OFICIAL DO MP BETIM - COMARCA; BETIM-PJ-10PJ 8.579,10 1.715,82 0,00 0,00 0,00 0,00 0,00 1.550,00 11.844,92 1.132,44 1.650,32 0,00 0,00 2.782,76 9.062,16 31/07/2020
74 426500 ALESSANDRO CAMPOS DE PAIVA ANALISTA DO MP BELO HORIZONTE - COMARCA; CENTRO PUBLICIDADE E DESIGN GRAFICO 12.601,30 2.520,26 0,00 0,00 0,00 0,00 0,00 1.550,00 16.671,56 1.663,37 2.831,64 0,00 0,00 4.495,01 12.176,55 31/07/2020
75 623400 ALESSANDRO DE OLIVEIRA REZENDE ANALISTA DO MP BELO HORIZONTE - COMARCA; DIRET DE INFORMACAO E CONHECIMENTO-DINC/CEAF 8.170,49 817,05 0,00 0,00 0,00 0,00 0,00 1.550,00 10.537,54 988,63 1.329,61 0,00 0,00 2.318,24 8.219,30 31/07/2020
76 420600 ALESSANDRO SILVA OFICIAL DO MP VISCONDE DO RIO BRANCO - COMARCA; VISCONDE DO RIO BRANCO-PJ-02PJ 8.170,49 2.451,15 0,00 0,00 0,00 0,00 0,00 1.550,00 12.171,64 1.168,38 1.088,31 0,00 0,00 2.256,69 9.914,95 31/07/2020
77 375301 ALETHEIA PATRICIA ASSIS MORAIS MOREIRA ANALISTA DO MP ITABIRA - COMARCA; ITABIRA-PJ-02PJ 9.146,93 914,69 0,00 0,00 0,00 0,00 0,00 3.088,78 13.150,40 1.106,78 1.541,08 0,00 0,00 2.647,86 10.502,54 31/07/2020
78 382300 ALEX CARVALHO LIMA ANALISTA DO MP UBERLÂNDIA - COMARCA; UBERLANDIA-PJ-14PJ 13.011,52 2.602,30 0,00 0,00 0,00 0,00 0,00 1.550,00 17.163,82 1.717,52 2.952,12 0,00 0,00 4.669,64 12.494,18 31/07/2020
79 195201 ALEX DE CASTRO PEREIRA ANALISTA DO MP UBERABA - COMARCA; UBERABA-PJ-09PJ 16.750,82 6.700,33 0,00 0,00 0,00 0,00 0,00 1.550,00 25.001,15 2.579,63 4.870,31 0,00 0,00 7.449,94 17.551,21 31/07/2020
80 358900 ALEX DE PAULA LANZA ASSESSOR BELO HORIZONTE - COMARCA; CENTRO JORNALISMO 0,00 0,00 10.397,52 0,00 0,00 0,00 0,00 2.319,39 12.716,91 713,09 2.096,36 0,00 0,00 2.809,45 9.907,46 31/07/2020
81 178400 ALEX RODRIGO SALDANHA GUIMARAES OFICIAL DO MP BELO HORIZONTE - COMARCA; DIRETORIA DE SISTEMAS DE INFORMACAO 6.123,79 2.449,52 0,00 0,00 0,00 0,00 0,00 1.550,00 10.123,31 943,06 1.228,96 0,00 0,00 2.172,02 7.951,29 31/07/2020
82 413500 ALEX VILELA OLIVEIRA ANALISTA DO MP GOVERNADOR VALADARES - COMARCA; COORD REG PJ DEF EDU DIR CRIANCA ADOL RIODOCE 12.601,30 2.520,26 0,00 0,00 0,00 0,00 0,00 1.550,00 16.671,56 1.663,37 2.831,64 0,00 0,00 4.495,01 12.176,55 31/07/2020
83 264300 ALEXANDRA FATIMA SARAIVA SOARES ANALISTA DO MP BELO HORIZONTE - COMARCA; CENTRAL DE APOIO TECN-SETOR DE MEIO AMBIENTE 17.413,92 5.224,18 0,00 0,00 0,00 0,00 0,00 1.550,00 24.188,10 2.490,19 4.671,32 0,00 0,00 7.161,51 17.026,59 31/07/2020
84 488000 ALEXANDRA LARA PAIS DE CARVALHO ANALISTA DO MP SERRO - COMARCA; SERRO-PJ-UNPJ 9.444,70 944,47 0,00 0,00 0,00 0,00 0,00 1.550,00 11.939,17 1.142,81 1.516,98 0,00 0,00 2.659,79 9.279,38 31/07/2020
85 256300 ALEXANDRA SANTOS GOMES OFICIAL DO MP BELO HORIZONTE - COMARCA; DIRETORIA GESTAO COMPRAS LICITACOES 9.146,93 2.744,08 0,00 0,00 0,00 0,00 0,00 1.550,00 13.441,01 1.308,01 2.040,97 0,00 0,00 3.348,98 10.092,03 31/07/2020
86 403300 ALEXANDRE AUGUSTO RODRIGUES ANALISTA DO MP ÁGUAS FORMOSAS - COMARCA; AGUAS FORMOSAS-PJ-UNPJ 10.069,62 2.013,92 0,00 0,00 0,00 0,00 0,00 2.319,39 14.402,93 1.329,19 2.088,09 0,00 0,00 3.417,28 10.985,65 31/07/2020
87 640900 ALEXANDRE BARBOSA MASCARENHAS ANALISTA DO MP BETIM - COMARCA; BETIM-PJ-02PJ 6.123,79 367,43 0,00 0,00 0,00 0,00 0,00 1.550,00 8.041,22 671,12 368,39 0,00 0,00 1.039,51 7.001,71 31/07/2020
88 311700 ALEXANDRE BARCELOS RESENDE OFICIAL DO MP BELO HORIZONTE - COMARCA; BH-19PJ SAUDE-SECRETARIA 047PJ 7.663,37 1.532,67 0,00 0,00 0,00 0,00 0,00 2.319,39 11.515,43 1.011,56 1.381,37 0,00 0,00 2.392,93 9.122,50 31/07/2020
89 285600 ALEXANDRE CAMPOS DE OLIVEIRA OFICIAL DO MP UBERABA - COMARCA; COORD REG BACIAS PARANAIBA BAIXO RIO GRANDE 10.069,62 3.020,89 0,00 0,00 0,00 0,00 0,00 1.550,00 14.640,51 1.439,96 2.178,13 0,00 0,00 3.618,09 11.022,42 31/07/2020
90 509200 ALEXANDRE CAPUANO DE REZENDE ANALISTA DO MP BELO HORIZONTE - COMARCA; GABINETE DE PROCURADOR DE JUSTIÇA - SALA 715 10.069,62 1.006,96 0,00 0,00 0,00 0,00 0,00 1.550,00 12.626,58 1.218,42 1.789,50 0,00 0,00 3.007,92 9.618,66 31/07/2020
91 229400 ALEXANDRE CARLOS BOTREL DIRETOR/OFICIAL BELO HORIZONTE - COMARCA; SUPERINTENDENCIA DOS ORGAOS COLEGIADOS 0,00 5.224,18 17.413,92 0,00 0,00 0,00 0,00 1.550,00 24.188,10 1.858,80 4.843,82 0,00 0,00 6.702,62 17.485,48 31/07/2020
92 411900 ALEXANDRE CARVALHO SANTOS RIBEIRO ANALISTA DO MP OLIVEIRA - COMARCA; OLIVEIRA-PJ-02PJ 12.601,30 2.520,26 0,00 0,00 0,00 0,00 0,00 3.088,78 18.210,34 1.663,37 2.831,64 0,00 0,00 4.495,01 13.715,33 31/07/2020
93 641600 ALEXANDRE DA SILVA ASSUNCAO OFICIAL DO MP BELO HORIZONTE - COMARCA; SERVICO MEDICO-DEPTO PERIC MEDICA SAUDE OCUP 4.376,03 262,56 0,00 0,00 0,00 0,00 0,00 1.550,00 6.188,59 510,24 292,75 0,00 0,00 802,99 5.385,60 31/07/2020
94 201200 ALEXANDRE DE ALENCAR CORDEIRO OFICIAL DO MP ÁGUAS FORMOSAS - COMARCA; AGUAS FORMOSAS-PJ-UNPJ 6.123,79 3.061,90 0,00 0,00 0,00 0,00 0,00 1.550,00 10.735,69 1.010,43 1.378,84 0,00 0,00 2.389,27 8.346,42 31/07/2020
95 288200 ALEXANDRE DE VASCONCELOS COSTA KER ANALISTA DO MP BELO HORIZONTE - COMARCA; BH-03PJ EMPRESARIAL-SECRETARIA 15.272,02 4.581,61 0,00 0,00 0,00 0,00 0,00 1.550,00 21.403,63 2.183,90 3.937,68 0,00 0,00 6.121,58 15.282,05 31/07/2020
96 445000 ALEXANDRE DIOGENES OLIVEIRA ANALISTA DO MP SALINAS - COMARCA; SALINAS-PJ-02PJ 10.069,62 2.013,92 0,00 0,00 0,00 0,00 0,00 2.319,39 14.402,93 1.329,19 2.088,09 0,00 0,00 3.417,28 10.985,65 31/07/2020
97 463400 ALEXANDRE LEAL WINKELSTROTER ANALISTA DO MP TEÓFILO OTONI - COMARCA; TEOFILO OTONI-PJ-04PJ 10.069,62 1.006,96 0,00 0,00 0,00 0,00 0,00 1.550,00 12.626,58 1.218,42 1.841,63 0,00 0,00 3.060,05 9.566,53 31/07/2020
98 615700 ALEXANDRE LUIZ DE CASTRO MACIEL ANALISTA DO MP IBIRITÉ - COMARCA; IBIRITE-PJ-02PJ 8.170,49 817,05 0,00 0,00 0,00 0,00 0,00 1.550,00 10.537,54 988,63 1.330,34 0,00 0,00 2.318,97 8.218,57 31/07/2020
99 356900 ALEXANDRE MOISES MENDONCA E ARAUJO OFICIAL DO MP UBERABA - COMARCA; UBERABA-PJ-13PJ 6.741,63 1.348,33 0,00 0,00 0,00 0,00 0,00 1.550,00 9.639,96 889,90 1.110,66 0,00 0,00 2.000,56 7.639,40 31/07/2020
100 633300 ALEXANDRE NONATO MARTINS OFICIAL DO MP IGARAPÉ - COMARCA; IGARAPE-PJ-02PJ 4.376,03 437,60 0,00 0,00 0,00 0,00 0,00 1.550,00 6.363,63 529,50 285,14 0,00 0,00 814,64 5.548,99 31/07/2020
101 469900 ALEXANDRE PEREIRA GUEDES ANALISTA DO MP CATAGUASES - COMARCA; CATAGUASES-PJ-03PJ 10.069,62 1.006,96 0,00 0,00 0,00 0,00 0,00 1.550,00 12.626,58 1.218,42 1.841,63 0,00 0,00 3.060,05 9.566,53 31/07/2020
102 208700 ALEXANDRE RESENDE FRAGA ANALISTA DO MP BELO HORIZONTE - COMARCA; BH-19PJ SAUDE-SECRETARIA 130PJ 18.820,14 7.528,06 0,00 0,00 0,00 0,00 0,00 1.550,00 27.898,20 2.898,30 5.422,95 0,00 0,00 8.321,25 19.576,95 31/07/2020
103 216401 ALEXANDRE RIBEIRO DE LIMA MAIORINO ANALISTA DO MP UBERABA - COMARCA; UBERABA-PJ-03PJ 15.272,02 6.108,81 0,00 0,00 0,00 0,00 0,00 1.550,00 22.930,83 2.351,89 4.311,46 0,00 0,00 6.663,35 16.267,48 31/07/2020
104 475100 ALEXANDRE TEOTONIO COSTA ANALISTA DO MP ARAGUARI - COMARCA; ARAGUARI-PJ-01PJ 10.069,62 1.006,96 0,00 0,00 0,00 0,00 0,00 1.550,00 12.626,58 1.218,42 1.737,36 0,00 0,00 2.955,78 9.670,80 31/07/2020
105 339000 ALEXANDRE VITOR CARDOSO OFICIAL DO MP BELO HORIZONTE - COMARCA; PROMOT ESTADUAL DE DEF PATRI CULT E TUR DE MG 6.123,79 1.224,76 0,00 0,00 0,00 0,00 0,00 1.550,00 8.898,55 808,34 772,79 0,00 0,00 1.581,13 7.317,42 31/07/2020
106 623100 ALEXSANDER BATISTA AGUIAR ANALISTA DO MP BELO HORIZONTE - COMARCA; DIRETORIA DE SUPORTE E MANUTENCAO 8.170,49 817,05 0,00 0,00 0,00 0,00 0,00 2.319,39 11.306,93 988,63 1.173,93 0,00 0,00 2.162,56 9.144,37 31/07/2020
107 513300 ALFSON MIRANDA BRAGA ANALISTA DO MP BELO HORIZONTE - COMARCA; BH-12PJ JUIZO CRIMINAL-GAB 092PJ 10.069,62 1.006,96 0,00 0,00 0,00 0,00 0,00 1.550,00 12.626,58 1.218,42 1.841,63 0,00 0,00 3.060,05 9.566,53 31/07/2020
108 618400 ALICE MAGALHAES MACEDO DE CARVALHO ANALISTA DO MP IPATINGA - COMARCA; IPATINGA-PJ-10PJ 8.170,49 817,05 0,00 0,00 0,00 0,00 0,00 2.319,39 11.306,93 988,63 1.330,34 0,00 0,00 2.318,97 8.987,96 31/07/2020
109 471000 ALICE TITONELI MOREIRA ANALISTA DO MP MIRADOURO - COMARCA; MIRADOURO-PJ-UNPJ 10.069,62 1.006,96 0,00 0,00 0,00 0,00 0,00 2.319,39 13.395,97 1.218,42 1.789,50 0,00 0,00 3.007,92 10.388,05 31/07/2020
110 622400 ALINE BALBINO PORTUGAL LOPES ANALISTA DO MP TRÊS PONTAS - COMARCA; TRES PONTAS-PJ-03PJ 8.170,49 817,05 0,00 0,00 0,00 0,00 0,00 2.319,39 11.306,93 988,63 1.330,34 0,00 0,00 2.318,97 8.987,96 31/07/2020
111 373000 ALINE BOTELHO RESENDE OFICIAL DO MP JUIZ DE FORA - COMARCA; JUIZ DE FORA-PJ-22PJ 8.436,53 1.687,31 0,00 0,00 0,00 0,00 0,00 1.550,00 11.673,84 1.113,62 1.608,45 0,00 0,00 2.722,07 8.951,77 31/07/2020
112 407700 ALINE CRISTINA RODRIGUES PEREIRA COORDENADOR/ANALISTA BELO HORIZONTE - COMARCA; DIRETORIA DE PROJETOS DE EDIFICACOES 0,00 2.687,03 13.435,16 0,00 5.374,06 0,00 0,00 2.319,39 23.815,64 1.329,19 4.676,58 0,00 0,00 6.005,77 17.809,87 31/07/2020
113 193100 ALINE CRISTINA SENA OLIVEIRA OFICIAL DO MP UBERLÂNDIA - COMARCA; UBERLANDIA-PJ-03PJ 14.324,23 5.729,69 0,00 0,00 0,00 0,00 0,00 2.319,39 22.373,31 2.205,93 3.975,51 0,00 0,00 6.181,44 16.191,87 31/07/2020
114 554200 ALINE CRISTINA SILVA SOUZA OFICIAL DO MP TIROS - COMARCA; TIROS-PJ-UNPJ 5.387,19 538,72 0,00 0,00 0,00 0,00 0,00 1.550,00 7.475,91 651,85 581,01 0,00 0,00 1.232,86 6.243,05 31/07/2020
115 505500 ALINE DA CUNHA MARREIROS OLIVEIRA ANALISTA DO MP CARANGOLA - COMARCA; CARANGOLA-PJ-03PJ 10.069,62 1.006,96 0,00 0,00 0,00 0,00 0,00 2.319,39 13.395,97 1.218,42 1.789,50 0,00 0,00 3.007,92 10.388,05 31/07/2020
116 433500 ALINE DE MELO QUEIROZ ASSESSOR/OFICIAL BELO HORIZONTE - COMARCA; ASSESSORIA TECNICA DO PROCON-MG 0,00 2.079,50 10.397,52 0,00 0,00 0,00 0,00 2.319,39 14.796,41 1.077,43 2.265,07 0,00 0,00 3.342,50 11.453,91 31/07/2020
117 542700 ALINE DE SOUSA ALBINO ANALISTA DO MP CARMO DO PARANAÍBA - COMARCA; CARMO DO PARANAIBA-PJ-01PJ 8.436,53 843,65 0,00 0,00 0,00 0,00 0,00 1.550,00 10.830,18 1.020,82 1.401,96 0,00 0,00 2.422,78 8.407,40 31/07/2020
118 330000 ALINE DIORIO MAYRINK OFICIAL DO MP BELO HORIZONTE - COMARCA; BH-18PJ DIREITOS HUMANOS-SECRETARIA 6.961,05 1.392,21 0,00 0,00 0,00 0,00 0,00 1.550,00 9.903,26 918,86 1.175,10 0,00 0,00 2.093,96 7.809,30 31/07/2020
119 499000 ALINE FERREIRA LOPES ANALISTA DO MP TEÓFILO OTONI - COMARCA; COORD. DE DEF. DO PAT. PUBLICO-JEQUIT./MUCURI 10.069,62 1.006,96 0,00 0,00 0,00 0,00 0,00 1.550,00 12.626,58 1.218,42 1.841,63 0,00 0,00 3.060,05 9.566,53 31/07/2020
120 405300 ALINE LAIA CARDOZO DIRETOR/ANALISTA BELO HORIZONTE - COMARCA; SUPERINTENDENCIA LOGISTICA SERVICOS 0,00 3.482,78 17.413,92 0,00 0,00 0,00 0,00 1.550,00 22.446,70 1.771,66 4.390,03 0,00 0,00 6.161,69 16.285,01 31/07/2020
121 278200 ALINE MARCIA FARIA BARBOSA FERNANDES OFICIAL DO MP BARBACENA - COMARCA; BARBACENA-PJ-SECRETARIA 6.741,63 2.022,49 0,00 0,00 0,00 0,00 0,00 1.550,00 10.314,12 964,05 1.119,25 0,00 0,00 2.083,30 8.230,82 31/07/2020
122 389000 ALINE NERI NOBRE ANALISTA DO MP MONTES CLAROS - COMARCA; COORD REG PJ DEF EDUC DIR CRIANCA ADOL NORTE 13.011,52 3.903,46 0,00 0,00 0,00 0,00 0,00 1.550,00 18.464,98 1.860,65 3.270,58 0,00 0,00 5.131,23 13.333,75 31/07/2020
123 294600 ALINE PATRICIA SILVA VIEIRA OFICIAL DO MP UBERLÂNDIA - COMARCA; UBERLANDIA-PJ-03PJ 10.069,62 3.020,89 0,00 0,00 0,00 0,00 1.445,27 1.550,00 16.085,78 1.439,96 2.627,72 0,00 0,00 4.067,68 12.018,10 31/07/2020
124 420000 ALINE RODRIGUES CAMOROPIN ANALISTA DO MP SABARÁ - COMARCA; SABARA-PJ-02PJ 12.601,30 2.520,26 0,00 0,00 0,00 0,00 0,00 1.550,00 16.671,56 1.663,37 2.831,64 0,00 0,00 4.495,01 12.176,55 31/07/2020
125 408300 ALINE SILVA ARAUJO DE PAULA ANALISTA DO MP SÃO SEBASTIÃO DO PARAÍSO - COMARCA; SAO SEBASTIAO DO PARAISO-PJ-02PJ 12.601,30 2.520,26 0,00 0,00 0,00 0,00 0,00 2.319,39 17.440,95 1.663,37 2.831,64 0,00 0,00 4.495,01 12.945,94 31/07/2020
126 425400 ALINE TRINDADE DE FREITAS CAMPOS OFICIAL DO MP BELO HORIZONTE - COMARCA; BH-14PJ DEFESA CONSUMIDOR-SECRETARIA 7.912,85 1.582,57 0,00 0,00 0,00 0,00 0,00 1.550,00 11.045,42 1.044,50 1.454,64 0,00 0,00 2.499,14 8.546,28 31/07/2020
127 517200 ALISSOM PEREIRA DA SILVA ANALISTA DO MP BORDA DA MATA - COMARCA; BORDA DA MATA-PJ-UNPJ 10.069,62 1.006,96 0,00 0,00 0,00 0,00 0,00 1.550,00 12.626,58 1.218,42 1.841,63 0,00 0,00 3.060,05 9.566,53 31/07/2020
128 442400 ALISSON LABRE ANALISTA DO MP VARGINHA - COMARCA; VARGINHA-PJ-02PJ 10.069,62 2.013,92 0,00 0,00 0,00 0,00 0,00 2.319,39 14.402,93 1.329,19 2.088,09 0,00 0,00 3.417,28 10.985,65 31/07/2020
129 643800 ALLAN PAUL FONSECA DE CASTRO OFICIAL DO MP CONTAGEM - COMARCA; CONTAGEM-PJ-06PJ 4.665,64 279,94 0,00 0,00 1.648,53 0,00 0,00 3.088,78 9.682,89 544,01 794,42 0,00 0,00 1.338,43 8.344,46 31/07/2020
130 612900 ALLAN VINICIUS VIEIRA ARAUJO COORDENADOR/OFICIAL BELO HORIZONTE - COMARCA; DIVISAO TRANSPORTES 0,00 1.181,92 11.819,15 0,00 0,00 0,00 0,00 1.550,00 14.551,07 631,30 2.532,33 0,00 0,00 3.163,63 11.387,44 31/07/2020
131 349000 ALLEC RODRIGUES VIEIRA OFICIAL DO MP BELO HORIZONTE - COMARCA; COORD EST DEF DIR FAM PESSOAS DEFICI IDOSOS 9.146,93 1.829,39 0,00 0,00 0,00 0,00 0,00 1.550,00 12.526,32 1.207,40 1.817,09 0,00 0,00 3.024,49 9.501,83 31/07/2020
132 297300 ALLYSON SALIBA MONTEIRO LAIZO ANALISTA DO MP CONSELHEIRO LAFAIETE - COMARCA; CONSELHEIRO LAFAIETE-PJ-03PJ 16.750,82 5.025,25 0,00 0,00 0,00 0,00 0,00 3.088,78 24.864,85 2.395,37 4.460,33 0,00 0,00 6.855,70 18.009,15 31/07/2020
133 303700 ALMIR LOPES LOURES ANALISTA DO MP BELO HORIZONTE - COMARCA; CENTRAL DE APOIO TECN-SETOR DE MEIO AMBIENTE 16.750,82 5.025,25 0,00 0,00 0,00 0,00 0,00 1.550,00 23.326,07 2.395,37 4.460,33 0,00 0,00 6.855,70 16.470,37 31/07/2020
134 515900 ALTAIR NEVES JUNIOR OFICIAL DO MP BELO HORIZONTE - COMARCA; BH-01PJ FAZENDA PUBLICA-SECRETARIA 6.741,63 674,16 0,00 0,00 0,00 0,00 0,00 1.550,00 8.965,79 815,74 945,65 0,00 0,00 1.761,39 7.204,40 31/07/2020
135 233300 ALVARINDO BATISTA ANALISTA DO MP BELO HORIZONTE - COMARCA; NUCLEO APOIO TECNICO ESP COMUNICACAO 18.820,14 5.646,04 0,00 0,00 0,00 0,00 0,00 2.319,39 26.785,57 2.691,28 5.066,60 0,00 0,00 7.757,88 19.027,69 31/07/2020
136 274100 ALYSSON CARVALHO VIDAL DE LACERDA OFICIAL DO MP MANHUAÇU - COMARCA; MANHUACU-PJ-01PJ 10.069,62 3.020,89 0,00 0,00 0,00 0,00 0,00 1.550,00 14.640,51 1.439,96 2.334,54 0,00 0,00 3.774,50 10.866,01 31/07/2020
137 621000 AMANDA BASTOS ALVES ANALISTA DO MP BELO HORIZONTE - COMARCA; ASSESS TECNICO-JUR JUNTO AS PROC. DE JUST 8.170,49 817,05 0,00 0,00 0,00 0,00 0,00 1.550,00 10.537,54 988,63 1.330,34 0,00 0,00 2.318,97 8.218,57 31/07/2020
138 521700 AMANDA CRISTINA AGUIAR MACHADO OFICIAL DO MP CONGONHAS - COMARCA; CONGONHAS-PJ-01PJ 5.387,19 538,72 0,00 0,00 0,00 0,00 0,00 1.550,00 7.475,91 651,85 528,87 0,00 0,00 1.180,72 6.295,19 31/07/2020
139 613400 AMANDA DE ASSIS IUNES SANTOS ANALISTA DO MP CONGONHAS - COMARCA; CONGONHAS-PJ-01PJ 8.170,49 817,05 0,00 0,00 0,00 0,00 0,00 1.832,11 10.819,65 988,63 1.330,34 0,00 0,00 2.318,97 8.500,68 31/07/2020
140 520800 AMANDA DE SOUZA MACHADO ANALISTA DO MP BAEPENDI - COMARCA; BAEPENDI-PJ-UNPJ 10.069,62 1.006,96 0,00 0,00 0,00 0,00 0,00 1.550,00 12.626,58 1.218,42 1.737,36 0,00 0,00 2.955,78 9.670,80 31/07/2020
141 663900 AMANDA DENISE GONCALVES DA SILVA ASSESSOR BELO HORIZONTE - COMARCA; DIRET DE FORMACAO, APERFEIC. E POS-GRADUACAO 0,00 0,00 3.076,28 0,00 0,00 0,00 0,00 1.550,00 4.626,28 443,62 205,10 0,00 0,00 648,72 3.977,56 31/07/2020
142 543100 AMANDA VIEIRA FREITAS BRESSANE ANALISTA DO MP PARAGUAÇU - COMARCA; PARAGUACU-PJ-UNPJ 8.436,53 843,65 0,00 0,00 0,00 0,00 0,00 1.550,00 10.830,18 1.020,82 1.401,96 0,00 0,00 2.422,78 8.407,40 31/07/2020
143 434400 AMARILIS ASSIS SIMAO CURCIO ANALISTA DO MP MANHUAÇU - COMARCA; MANHUACU-PJ-SECRETARIA 10.069,62 2.013,92 0,00 0,00 0,00 0,00 0,00 1.550,00 13.633,54 1.329,19 2.088,09 0,00 0,00 3.417,28 10.216,26 31/07/2020
144 652000 AMAURI SILVA ALVES OFICIAL DO MP BELO HORIZONTE - COMARCA; BH-23PJ INFRACIONAL-SEC EXP 4.238,09 254,29 0,00 0,00 0,00 0,00 0,00 1.550,00 6.042,38 494,16 263,47 0,00 0,00 757,63 5.284,75 31/07/2020
145 273700 AMBROLINA CARNEIRO DE VASCONCELOS OFICIAL DO MP FRUTAL - COMARCA; FRUTAL-PJ-01PJ 10.736,08 7.515,26 0,00 0,00 0,00 0,00 0,00 1.550,00 19.801,34 2.007,65 3.545,52 0,00 0,00 5.553,17 14.248,17 31/07/2020
146 58000 AMELIA GUARIZE DE CASTRO OFICIAL DO MP JUIZ DE FORA - COMARCA; JUIZ DE FORA-PJ-SECRETARIA 6.741,63 6.741,63 0,00 37,96 0,00 1.559,08 0,00 1.550,00 16.630,30 1.483,16 2.838,54 0,00 0,00 4.321,70 12.308,60 31/07/2020
147 324301 AMERICA SUELI FERREIRA DA SILVA ANALISTA DO MP MONTE CARMELO - COMARCA; MONTE CARMELO-PJ-02PJ 10.069,62 1.006,96 0,00 0,00 0,00 0,00 0,00 2.319,39 13.395,97 1.218,42 1.789,50 0,00 0,00 3.007,92 10.388,05 31/07/2020
148 273300 AMUJACY DE BRITO ASSIZ OFICIAL DO MP BELO HORIZONTE - COMARCA; BH-12PJ JUIZO CRIMINAL-SECRETARIA 10.069,62 3.020,89 0,00 0,00 0,00 0,00 144,00 3.120,86 16.355,37 1.439,96 2.125,99 0,00 0,00 3.565,95 12.789,42 31/07/2020
149 482200 ANA ALICE LOPES ACHTSCHIN ANALISTA DO MP BELO HORIZONTE - COMARCA; PROC JUST RECURSOS ESP E EXTRAORD CRIMINAIS 10.397,52 1.039,75 0,00 0,00 0,00 0,00 0,00 1.550,00 12.987,27 1.258,10 1.929,91 0,00 0,00 3.188,01 9.799,26 31/07/2020
150 490400 ANA AMELIA PAULINO GARCIA OFICIAL DO MP CONTAGEM - COMARCA; CONTAGEM-PJ-13PJ 7.421,79 742,18 0,00 0,00 0,00 0,00 0,00 1.550,00 9.713,97 898,04 1.128,77 0,00 0,00 2.026,81 7.687,16 31/07/2020
151 279100 ANA CAROLINA ARAUJO PEREIRA ANALISTA DO MP BELO HORIZONTE - COMARCA; DIRETORIA DE PROJETOS DE EDIFICACOES 16.750,82 5.025,25 0,00 0,00 0,00 0,00 0,00 1.550,00 23.326,07 2.395,37 4.408,20 0,00 0,00 6.803,57 16.522,50 31/07/2020
152 653300 ANA CAROLINA CYRNE DINIZ ASSESSOR BELO HORIZONTE - COMARCA; CENTRAL DE APOIO TECNICO-SETOR CONTABIL 0,00 0,00 8.170,49 0,00 2.723,50 0,00 0,00 1.550,00 12.443,99 713,09 2.232,89 0,00 0,00 2.945,98 9.498,01 31/07/2020
153 359400 ANA CAROLINA DE ABREU FARIA ASSESSOR BELO HORIZONTE - COMARCA; SUPERINTENDÊNCIA DE ENGENHARIA E ARQUITETURA 0,00 0,00 10.397,52 0,00 0,00 0,00 0,00 1.550,00 11.947,52 713,09 2.096,36 0,00 0,00 2.809,45 9.138,07 31/07/2020
154 408500 ANA CAROLINA DE CASTRO CARVALHO ANALISTA DO MP BARBACENA - COMARCA; BARBACENA - SECRETARIA DAS PJS CRIMINAIS 12.601,30 2.520,26 0,00 0,00 0,00 0,00 0,00 1.550,00 16.671,56 1.663,37 2.831,64 0,00 0,00 4.495,01 12.176,55 31/07/2020
155 420200 ANA CAROLINA FERNANDES SILVA ANALISTA DO MP BELO HORIZONTE - COMARCA; GABINETE DE PROCURADOR DE JUSTIÇA - SALA 704 12.204,02 2.440,80 0,00 0,00 0,00 0,00 0,00 1.550,00 16.194,82 1.610,93 2.714,96 0,00 0,00 4.325,89 11.868,93 31/07/2020
156 522100 ANA CAROLINA FERNANDINO VIDAL PEREIRA SANTOS OFICIAL DO MP BELO HORIZONTE - COMARCA; SECRETARIA DO PROCON-MG 6.741,63 674,16 0,00 0,00 0,00 0,00 0,00 1.550,00 8.965,79 815,74 945,65 0,00 0,00 1.761,39 7.204,40 31/07/2020
157 502400 ANA CAROLINA GONCALVES FERNANDES ANALISTA DO MP GRAO MOGOL - COMARCA; GRAO MOGOL-PJ-UNPJ 10.069,62 1.006,96 0,00 0,00 0,00 0,00 0,00 2.319,39 13.395,97 1.218,42 1.841,63 0,00 0,00 3.060,05 10.335,92 31/07/2020
158 529900 ANA CAROLINA GONCALVES PECANHA CHEQUER ANALISTA DO MP MANHUAÇU - COMARCA; MANHUACU-PJ-04PJ 8.436,53 843,65 0,00 0,00 0,00 0,00 0,00 2.319,39 11.599,57 1.020,82 1.401,96 0,00 0,00 2.422,78 9.176,79 31/07/2020
159 431900 ANA CAROLINA MOTTA GUATIMOSIM ANALISTA DO MP BELO HORIZONTE - COMARCA; GABINETE DE PROCURADOR DE JUSTIÇA - SALA 404 12.204,02 2.440,80 0,00 0,00 0,00 0,00 0,00 2.319,39 16.964,21 1.610,93 2.714,96 0,00 0,00 4.325,89 12.638,32 31/07/2020
160 490600 ANA CAROLINA XAVIER GODOY ANALISTA DO MP BELO HORIZONTE - COMARCA; ASSESS TECNICO-JUR JUNTO AS PROC. DE JUST 10.069,62 1.006,96 0,00 0,00 0,00 0,00 0,00 3.088,78 14.165,36 1.218,42 1.737,36 0,00 0,00 2.955,78 11.209,58 31/07/2020
161 600300 ANA CAROLINE PEREIRA DINIZ ANALISTA DO MP BELO HORIZONTE - COMARCA; COMB CRIMES PRAT POR AG POL MUN-SECRETARIA 8.436,53 843,65 0,00 0,00 0,00 0,00 0,00 3.088,78 12.368,96 1.020,82 1.401,96 0,00 0,00 2.422,78 9.946,18 31/07/2020
162 615800 ANA CAROLINE PEREIRA OLIVEIRA OFICIAL DO MP ALFENAS - COMARCA; ALFENAS-PJ-06PJ 5.217,34 521,73 0,00 0,00 0,00 0,00 0,00 1.550,00 7.289,07 631,30 535,28 0,00 0,00 1.166,58 6.122,49 31/07/2020
163 324800 ANA CECILIA MENDES DA SILVA OFICIAL DO MP OURO FINO - COMARCA; OURO FINO-PJ-01PJ 10.069,62 3.020,89 0,00 0,00 0,00 0,00 0,00 1.550,00 14.640,51 1.439,96 2.282,40 0,00 0,00 3.722,36 10.918,15 31/07/2020
164 441300 ANA CLAUDIA ALKIMIM MIRANDA BOMTEMPO ANALISTA DO MP MONTES CLAROS - COMARCA; MONTES CLAROS-PJ-11PJ 12.204,02 2.440,80 0,00 0,00 0,00 0,00 0,00 1.550,00 16.194,82 1.610,93 2.610,69 0,00 0,00 4.221,62 11.973,20 31/07/2020
165 642500 ANA CLAUDIA DA COSTA NAVES OFICIAL DO MP MONTE CARMELO - COMARCA; MONTE CARMELO-PJ-02PJ 4.238,09 254,29 0,00 0,00 0,00 0,00 0,00 2.319,39 6.811,77 494,16 263,47 0,00 0,00 757,63 6.054,14 31/07/2020
166 604900 ANA CLAUDIA OLIVEIRA DE MIRANDA OFICIAL DO MP PONTE NOVA - COMARCA; PONTE NOVA-PJ-04PJ 4.974,42 497,44 0,00 0,00 0,00 0,00 0,00 1.550,00 7.021,86 601,90 417,74 0,00 0,00 1.019,64 6.002,22 31/07/2020
167 379300 ANA CRISTINA ALVES FLAVIO ANALISTA DO MP SÃO GOTARDO - COMARCA; SAO GOTARDO-PJ-01PJ 13.011,52 2.602,30 0,00 0,00 0,00 0,00 0,00 2.319,39 17.933,21 1.717,52 2.899,99 0,00 0,00 4.617,51 13.315,70 31/07/2020
168 461200 ANA CRISTINA ALVES PASCHOAL ANALISTA DO MP SANTA LUZIA - COMARCA; SANTA LUZIA-PJ-03PJ 10.069,62 1.006,96 0,00 0,00 0,00 0,00 0,00 1.550,00 12.626,58 1.218,42 1.789,50 0,00 0,00 3.007,92 9.618,66 31/07/2020
169 514100 ANA CRISTINA ARAUJO ASSUNCAO ANALISTA DO MP BELO HORIZONTE - COMARCA; ASSESS JUR DO CONS SUPERIOR DO MINISTERIO PUB 10.069,62 1.006,96 0,00 0,00 3.692,19 0,00 0,00 2.319,39 17.088,16 1.218,42 2.804,85 0,00 0,00 4.023,27 13.064,89 31/07/2020
170 113400 ANA CRISTINA BRAGA ALBUQUERQUE ASSESSOR/ANALISTA BELO HORIZONTE - COMARCA; ASSESS ESP ADM E FINANCEIRA DO PGJ ADJ ADM 30.090,04 21.063,02 0,00 0,00 0,00 0,00 130,03 2.968,49 54.251,58 3.900,84 7.810,02 15.690,84 0,00 27.401,70 26.849,88 31/07/2020
171 233800 ANA CRISTINA BRAGA SOARES RIOS OFICIAL DO MP CONTAGEM - COMARCA; CONTAGEM-PJ-SECRETARIA 10.397,52 3.119,26 0,00 0,00 0,00 0,00 0,00 1.550,00 15.066,78 1.486,85 2.438,87 0,00 0,00 3.925,72 11.141,06 31/07/2020
172 186400 ANA CRISTINA DE AZEVEDO LOPES OFICIAL DO MP UBÁ - COMARCA; UBA-PJ-01PJ 14.324,23 5.729,69 0,00 0,00 0,00 0,00 0,00 1.550,00 21.603,92 2.205,93 4.038,84 0,00 0,00 6.244,77 15.359,15 31/07/2020
173 465100 ANA CRISTINA DE OLIVEIRA GUIMARAES ANALISTA DO MP ITAJUBA - COMARCA; ITAJUBA-PJ-05PJ 10.069,62 1.006,96 0,00 0,00 0,00 0,00 0,00 3.088,78 14.165,36 1.218,42 1.737,36 0,00 0,00 2.955,78 11.209,58 31/07/2020
174 500600 ANA CRISTINA LATADO SUDARIO ANALISTA DO MP UBERLÂNDIA - COMARCA; UBERLANDIA-PJ-09PJ 10.069,62 1.006,96 0,00 0,00 0,00 0,00 0,00 1.550,00 12.626,58 1.218,42 1.841,63 0,00 0,00 3.060,05 9.566,53 31/07/2020
175 331400 ANA CRISTINA RIBEIRO ALVES OFICIAL DO MP BAMBUÍ - COMARCA; BAMBUI-PJ-UNPJ 8.858,43 2.657,53 0,00 0,00 0,00 0,00 0,00 1.550,00 13.065,96 1.266,76 1.897,03 0,00 0,00 3.163,79 9.902,17 31/07/2020
176 249300 ANA ELOINA MARTINS OFICIAL DO MP BETIM - COMARCA; BETIM-PJ-02PJ 12.204,02 4.881,61 0,00 0,00 0,00 0,00 0,00 1.550,00 18.635,63 1.879,42 3.312,35 0,00 0,00 5.191,77 13.443,86 31/07/2020
177 257400 ANA FLAVIA CAMBRAIA ANALISTA DO MP BELO HORIZONTE - COMARCA; BH-19PJ SAUDE-SECRETARIA 150PJ 17.413,92 5.224,18 0,00 0,00 0,00 0,00 0,00 1.550,00 24.188,10 2.490,19 4.619,18 0,00 0,00 7.109,37 17.078,73 31/07/2020
178 248201 ANA FLAVIA DE MORAIS SOUZA ANALISTA DO MP DIVINÓPOLIS - COMARCA; DIVINOPOLIS-PJ-01PJ 10.069,62 3.020,89 0,00 0,00 0,00 0,00 0,00 2.319,39 15.409,90 1.439,96 2.230,27 0,00 0,00 3.670,23 11.739,67 31/07/2020
179 621100 ANA FLAVIA DINIZ TEODORO OFICIAL DO MP SANTA LUZIA - COMARCA; SANTA LUZIA-PJ-06PJ 5.217,34 521,73 0,00 0,00 0,00 0,00 0,00 1.550,00 7.289,07 631,30 535,28 0,00 0,00 1.166,58 6.122,49 31/07/2020
180 238600 ANA FLAVIA FRANCO OFICIAL DO MP BELO HORIZONTE - COMARCA; DIRETORIA DE PESSOAL ADMINISTRATIVO - DPAD 12.601,30 3.780,39 0,00 0,00 0,00 0,00 0,00 1.550,00 17.931,69 1.801,99 3.140,06 0,00 0,00 4.942,05 12.989,64 31/07/2020
181 402900 ANA FLAVIA PORTES DE CARVALHO ANALISTA DO MP BELO HORIZONTE - COMARCA; DIRET DE PLANOS PROJETOS E PROGRAMAS INST 13.011,52 2.602,30 0,00 0,00 0,00 0,00 0,00 1.550,00 17.163,82 1.717,52 2.899,99 0,00 0,00 4.617,51 12.546,31 31/07/2020
182 382700 ANA KARENINA SALDANHA GONTIJO ANALISTA DO MP BELO HORIZONTE - COMARCA; ASSESS TECNICO-JUR JUNTO AS PROC. DE JUST 13.435,16 2.687,03 0,00 0,00 0,00 0,00 0,00 2.319,39 18.441,58 1.773,44 3.076,55 0,00 0,00 4.849,99 13.591,59 31/07/2020
183 620500 ANA KARINE DE ANDRADE OLIVEIRA ANALISTA DO MP RIBEIRÃO DAS NEVES - COMARCA; SEC PJ EXECUCAO PENAL RIBEIRAO NEVES 7.421,79 742,18 0,00 0,00 0,00 0,00 0,00 1.550,00 9.713,97 898,04 1.128,77 0,00 0,00 2.026,81 7.687,16 31/07/2020
184 462200 ANA LUCIA ANDRADE TOMICH OTTONI ANALISTA DO MP TEÓFILO OTONI - COMARCA; TEOFILO OTONI-PJ-06PJ 10.069,62 1.006,96 0,00 0,00 0,00 0,00 0,00 1.550,00 12.626,58 1.218,42 1.789,50 0,00 0,00 3.007,92 9.618,66 31/07/2020
185 504100 ANA LUCIA CATAO DE CARVALHO OFICIAL DO MP BELO HORIZONTE - COMARCA; BH-09PJ AUDITORIA MILITAR-SECRETARIA 7.421,79 742,18 0,00 0,00 0,00 0,00 0,00 2.319,39 10.483,36 898,04 1.076,63 0,00 0,00 1.974,67 8.508,69 31/07/2020
186 274700 ANA LUCIA DE ALENCAR BRAGATO OFICIAL DO MP UBERABA - COMARCA; UBERABA-PJ-07PJ 10.069,62 3.020,89 0,00 0,00 0,00 0,00 0,00 1.550,00 14.640,51 1.439,96 2.334,54 0,00 0,00 3.774,50 10.866,01 31/07/2020
187 509400 ANA LUCIA DORNELAS MALLOSTO ANALISTA DO MP JUIZ DE FORA - COMARCA; JUIZ DE FORA-PJ-18PJ 9.444,70 944,47 0,00 0,00 0,00 0,00 0,00 1.550,00 11.939,17 1.142,81 1.621,25 0,00 0,00 2.764,06 9.175,11 31/07/2020
188 302600 ANA LUCIA LOPES SANTOS OFICIAL DO MP BELO HORIZONTE - COMARCA; DIVISÃO DE FISCALIZAÇÃO DAS RELAÇÕES DE CONSU 10.069,62 3.020,89 0,00 0,00 4.845,26 0,00 1.978,25 7.364,31 27.278,33 1.439,96 4.012,30 0,00 0,00 5.452,26 21.826,07 31/07/2020
189 493400 ANA LUISA NOGUEIRA MOREIRA ANALISTA DO MP BELO HORIZONTE - COMARCA; BH-19PJ SAUDE-SECRETARIA 130PJ 10.069,62 1.006,96 0,00 0,00 0,00 0,00 0,00 1.550,00 12.626,58 1.218,42 1.841,63 0,00 0,00 3.060,05 9.566,53 31/07/2020
190 389300 ANA LUISA REUTER LIMA ANALISTA DO MP BELO HORIZONTE - COMARCA; DIRETORIA DE SISTEMAS DE INFORMACAO 10.736,08 2.147,22 0,00 0,00 0,00 0,00 0,00 1.550,00 14.433,30 1.417,16 2.283,83 0,00 0,00 3.700,99 10.732,31 31/07/2020
191 480600 ANA LUIZA FERNANDES FRAGA E GRECO OFICIAL DO MP BELO HORIZONTE - COMARCA; BH-23PJ CIVEL-SEC EXP CIVEIS 6.741,63 674,16 0,00 0,00 0,00 0,00 0,00 1.550,00 8.965,79 815,74 945,65 0,00 0,00 1.761,39 7.204,40 31/07/2020
192 481400 ANA MARCIA CANDIDA FERREIRA OFICIAL DO MP BRUMADINHO - COMARCA; BRUMADINHO-PJ-02PJ 6.123,79 612,38 0,00 0,00 0,00 0,00 0,00 1.550,00 8.286,17 740,98 779,32 0,00 0,00 1.520,30 6.765,87 31/07/2020
193 643100 ANA MARIA LOPES MIRANDA ANALISTA DO MP BELO HORIZONTE - COMARCA; CAO-FUNDACOES 7.187,72 431,26 0,00 0,00 0,00 0,00 0,00 1.550,00 9.168,98 671,12 1.041,30 0,00 0,00 1.712,42 7.456,56 31/07/2020
194 556400 ANA MARIA OLIVEIRA SOUZA OFICIAL DO MP ITAPECERICA - COMARCA; ITAPECERICA-PJ-UNPJ 5.387,19 538,72 0,00 0,00 0,00 0,00 0,00 1.550,00 7.475,91 651,85 581,01 0,00 0,00 1.232,86 6.243,05 31/07/2020
195 409600 ANA OLIVIA FARIA ROSENBURG ANALISTA DO MP BELO HORIZONTE - COMARCA; DIRETORIA DO COLEGIO E DA CAMARA DE PJ 12.601,30 3.780,39 0,00 0,00 0,00 0,00 0,00 1.550,00 17.931,69 1.801,99 3.140,06 0,00 0,00 4.942,05 12.989,64 31/07/2020
196 461500 ANA PAULA ALVES CARVALHO ANALISTA DO MP UBERLÂNDIA - COMARCA; UBERLANDIA-PJ-25PJ 10.069,62 1.006,96 0,00 0,00 0,00 0,00 0,00 2.319,39 13.395,97 1.218,42 1.841,63 0,00 0,00 3.060,05 10.335,92 31/07/2020
197 523200 ANA PAULA ALVES DA SILVA OFICIAL DO MP GOVERNADOR VALADARES - COMARCA; GOVERNADOR VALADARES-PJ-10PJ 6.741,63 674,16 0,00 0,00 0,00 0,00 0,00 3.472,93 10.888,72 815,74 841,38 0,00 0,00 1.657,12 9.231,60 31/07/2020
198 381200 ANA PAULA BARROS PEREIRA RIGHI ANALISTA DO MP BELO HORIZONTE - COMARCA; PROC JUST RECURSOS ESP E EXTRAORD CRIMINAIS 13.011,52 2.602,30 0,00 0,00 0,00 0,00 0,00 2.319,39 17.933,21 1.717,52 2.899,99 0,00 0,00 4.617,51 13.315,70 31/07/2020
199 227200 ANA PAULA DA SILVA CAMPOLINA ANALISTA DO MP BELO HORIZONTE - COMARCA; DIRETORIA DE ORCAMENTO-DIOR/SPC 18.820,14 9.410,07 0,00 0,00 0,00 0,00 0,00 1.550,00 29.780,21 3.105,32 6.039,98 0,00 0,00 9.145,30 20.634,91 31/07/2020
200 84200 ANA PAULA DE SOUZA ROCHA OFICIAL DO MP BELO HORIZONTE - COMARCA; DIRETORIA DE CONTABILIDADE 28.280,68 19.796,48 0,00 0,00 0,00 0,00 130,02 2.968,49 51.175,67 3.900,84 7.810,02 12.614,94 0,00 24.325,80 26.849,87 31/07/2020
201 278500 ANA PAULA DIAS CAPANEMA OFICIAL DO MP BELO HORIZONTE - COMARCA; DIRETORIA DE SEGURANCA 10.069,62 3.020,89 0,00 0,00 0,00 0,00 0,00 1.550,00 14.640,51 1.439,96 2.334,25 0,00 0,00 3.774,21 10.866,30 31/07/2020
202 327300 ANA PAULA GARCIA MAXIMO OFICIAL DO MP UNAÍ - COMARCA; UNAI-PJ-01PJ 10.736,08 4.294,43 0,00 0,00 0,00 0,00 0,00 1.550,00 16.580,51 1.653,36 2.652,94 0,00 0,00 4.306,30 12.274,21 31/07/2020
203 270000 ANA PAULA GOULART CRUZ DE MAGALHAES ANALISTA DO MP BELO HORIZONTE - COMARCA; COMB CRIMES PRAT POR AG POL MUN-ASSESSORIA 13.435,16 4.030,55 0,00 0,00 0,00 0,00 0,00 1.550,00 19.015,71 1.921,23 3.405,37 0,00 0,00 5.326,60 13.689,11 31/07/2020
204 262100 ANA PAULA KOMATSUZAKI ABIJAUDI ANALISTA DO MP BELO HORIZONTE - COMARCA; BH-17PJ PATRIMONIO PUBLICO-SECRETARIA 17.413,92 6.965,57 0,00 0,00 0,00 0,00 0,00 1.550,00 25.929,49 2.681,74 4.993,25 0,00 0,00 7.674,99 18.254,50 31/07/2020
205 278900 ANA PAULA MOREIRA GURGEL ANALISTA DO MP BELO HORIZONTE - COMARCA; DIRETORIA-GERAL 16.750,82 6.700,33 0,00 0,00 0,00 0,00 0,00 1.550,00 25.001,15 2.579,63 4.870,31 0,00 0,00 7.449,94 17.551,21 31/07/2020
206 425701 ANA PAULA ROCHA ANALISTA DO MP BELO HORIZONTE - COMARCA; ASSESSORIA DE COMUNICACAO INTEGRADA 8.170,49 817,05 0,00 0,00 0,00 0,00 0,00 2.319,39 11.306,93 988,63 1.330,34 0,00 0,00 2.318,97 8.987,96 31/07/2020
207 395601 ANA PAULA SALGE OLIVEIRA ANALISTA DO MP UBERABA - COMARCA; COORD REG PP TRIANGULO MINEIRO UBERABA 10.069,62 3.020,89 0,00 0,00 0,00 0,00 0,00 1.550,00 14.640,51 1.439,96 2.334,54 0,00 0,00 3.774,50 10.866,01 31/07/2020
208 473200 ANA PAULA SCOTTON BRASIL ANALISTA DO MP JUIZ DE FORA - COMARCA; JUIZ DE FORA-PJ-07PJ 10.069,62 1.006,96 0,00 0,00 3.692,19 0,00 0,00 2.319,39 17.088,16 1.218,42 2.856,99 0,00 0,00 4.075,41 13.012,75 31/07/2020
209 633600 ANA PAULA SILVA FERNANDES OFICIAL DO MP CATAGUASES - COMARCA; CATAGUASES-PJ-04PJ 4.817,57 481,76 0,00 0,00 0,00 0,00 0,00 1.550,00 6.849,33 582,93 427,65 0,00 0,00 1.010,58 5.838,75 31/07/2020
210 470900 ANA PAULA VALADARES ANALISTA DO MP PITANGUI - COMARCA; PITANGUI-PJ-01PJ 10.069,62 1.006,96 0,00 0,00 0,00 0,00 0,00 1.550,00 12.626,58 1.218,42 1.737,36 0,00 0,00 2.955,78 9.670,80 31/07/2020
211 447000 ANA PAULA VALENTIM DE ARAUJO ANALISTA DO MP BELO HORIZONTE - COMARCA; COMB CRIMES PRAT POR AG POL MUN-ASSESSORIA 10.069,62 2.013,92 0,00 0,00 0,00 0,00 0,00 1.550,00 13.633,54 1.329,19 2.088,09 0,00 0,00 3.417,28 10.216,26 31/07/2020
212 604200 ANA PAULA VIANA E SILVA OFICIAL DO MP BELO HORIZONTE - COMARCA; BH-17PJ PATRIMONIO PUBLICO-SECRETARIA 5.387,19 538,72 0,00 0,00 0,00 0,00 0,00 2.319,39 8.245,30 651,85 581,01 0,00 0,00 1.232,86 7.012,44 31/07/2020
213 505400 ANA PAULA VIEIRA SOUTO OFICIAL DO MP ALMENARA - COMARCA; COORD. PAT. PUBLICO-MUCURI/JEQUIT - ALMENARA 5.562,64 1.668,79 0,00 0,00 0,00 0,00 0,00 1.550,00 8.781,43 795,46 848,39 0,00 0,00 1.643,85 7.137,58 31/07/2020
214 280200 ANA RACHEL BRANDAO LADEIRA ROLAND DIRETOR/ANALISTA BELO HORIZONTE - COMARCA; SUPRIN DE FORMACAO E APERFEICOAMENTO-SFA/CEAF 16.750,82 5.025,25 3.482,78 0,00 0,00 0,00 0,00 1.550,00 26.808,85 2.395,37 5.418,10 0,00 0,00 7.813,47 18.995,38 31/07/2020
215 601200 ANA REGINA RIBEIRO COORDENADOR/ANALISTA BELO HORIZONTE - COMARCA; DIV FISCAL ADM CONT TERCEIRIZACAO 0,00 1.181,92 11.819,15 0,00 0,00 0,00 0,00 1.550,00 14.551,07 1.141,38 2.392,05 0,00 0,00 3.533,43 11.017,64 31/07/2020
216 384700 ANA RODRIGUES PEREIRA MARRA ANALISTA DO MP COROMANDEL - COMARCA; COROMANDEL-PJ-UNPJ 10.069,62 2.013,92 0,00 0,00 0,00 0,00 0,00 2.319,39 14.402,93 1.329,19 1.983,81 0,00 0,00 3.313,00 11.089,93 31/07/2020
217 232700 ANA SILVIA SEMBLANO NAKAMURA ASSESSOR/OFICIAL BELO HORIZONTE - COMARCA; CENT DE APOIO TEC-SETOR DEF,IDOSO E INFANC 0,00 3.119,26 10.397,52 0,00 0,00 0,00 0,00 1.550,00 15.066,78 1.439,96 2.451,14 0,00 0,00 3.891,10 11.175,68 31/07/2020
218 602100 ANACLETO FRANCISCO MARCIER PIMENTA OFICIAL DO MP SÃO JOÃO DEL REI - COMARCA; SAO JOAO DEL REI-PJ-03PJ 4.974,42 497,44 0,00 0,00 0,00 0,00 0,00 3.088,78 8.560,64 601,90 246,32 0,00 0,00 848,22 7.712,42 31/07/2020
219 310400 ANADEJE DO CARMO DINIZ ARAUJO OFICIAL DO MP BELO HORIZONTE - COMARCA; DIRETORIA DE PESSOAL ADMINISTRATIVO - DPAD 9.146,93 2.744,08 0,00 0,00 0,00 0,00 0,00 1.550,00 13.441,01 1.308,01 2.040,97 0,00 0,00 3.348,98 10.092,03 31/07/2020
220 337000 ANAILDES MARIA MENDES OFICIAL DO MP JANAÚBA - COMARCA; JANAUBA-PJ-02PJ 9.146,93 1.829,39 0,00 0,00 0,00 0,00 0,00 2.319,39 13.295,71 1.207,40 1.817,09 0,00 0,00 3.024,49 10.271,22 31/07/2020
221 192900 ANATALIA CERQUEIRA LIMA PERES OFICIAL DO MP UBERABA - COMARCA; COORD REG SAUDE MACROR SANIT TRIANGULO SUL 10.736,08 4.294,43 0,00 0,00 0,00 0,00 0,00 1.550,00 16.580,51 1.653,36 2.809,36 0,00 0,00 4.462,72 12.117,79 31/07/2020
222 377400 ANDEIRSON DA MATTA BARBOSA ANALISTA DO MP POUSO ALEGRE - COMARCA; POUSO ALEGRE-PJ-01PJ 10.069,62 2.013,92 0,00 0,00 0,00 0,00 0,00 1.550,00 13.633,54 1.329,19 2.088,09 0,00 0,00 3.417,28 10.216,26 31/07/2020
223 317400 ANDERSON DA SILVA BICALHO OFICIAL DO MP CONTAGEM - COMARCA; COORD REG DEF ORDEM ECONOMICA TRIB CONTAGEM 8.436,53 1.687,31 0,00 0,00 0,00 0,00 0,00 1.550,00 11.673,84 1.113,62 1.452,04 0,00 0,00 2.565,66 9.108,18 31/07/2020
224 506900 ANDERSON DE SOUZA DAMIANI ANALISTA DO MP BELO HORIZONTE - COMARCA; DIRETORIA DE PAGAMENTO DE PESSOAL-DPAG 10.069,62 3.020,89 0,00 0,00 0,00 0,00 0,00 2.319,39 15.409,90 1.439,96 2.230,27 0,00 0,00 3.670,23 11.739,67 31/07/2020
225 410000 ANDERSON DE SOUZA NETO ASSESSOR BELO HORIZONTE - COMARCA; DIRETORIA DE ADMINISTRACAO FINANCEIRA 0,00 0,00 5.136,32 0,00 0,00 0,00 0,00 1.550,00 6.686,32 713,09 649,53 0,00 0,00 1.362,62 5.323,70 31/07/2020
226 181900 ANDERSON FLAVIO DE OLIVEIRA OFICIAL DO MP ITAGUARA - COMARCA; ITAGUARA-PJ-SECRETARIA 12.601,30 5.040,52 0,00 0,00 5.880,61 0,00 0,00 1.550,00 25.072,43 1.940,60 5.065,64 0,00 0,00 7.006,24 18.066,19 31/07/2020
227 333200 ANDERSON JOSE DE FREITAS OFICIAL DO MP IPATINGA - COMARCA; IPATINGA-PJ-07PJ 9.146,93 2.744,08 0,00 0,00 0,00 0,00 1.445,27 2.319,39 15.655,67 1.308,01 2.282,00 0,00 0,00 3.590,01 12.065,66 31/07/2020
228 462100 ANDERSON LUIZ GUIMARAES CARDOSO ANALISTA DO MP BARBACENA - COMARCA; BARBACENA-PJ-02PJ 10.397,52 1.039,75 0,00 0,00 0,00 0,00 0,00 1.550,00 12.987,27 1.258,10 1.929,91 0,00 0,00 3.188,01 9.799,26 31/07/2020
229 429700 ANDERSON MELO DE SOUZA ASSESSOR/OFICIAL BELO HORIZONTE - COMARCA; DIRET DE ESTAGIOS E CONVENIOS ACADEMICOS 0,00 2.079,50 10.397,52 0,00 0,00 0,00 0,00 1.550,00 14.027,02 808,34 2.339,53 0,00 0,00 3.147,87 10.879,15 31/07/2020
230 545600 ANDERSON MENDES PROCOPIO FERREIRA ANALISTA DO MP BELO HORIZONTE - COMARCA; BH-12PJ JUIZO CRIMINAL-GAB 089PJ 8.436,53 843,65 0,00 0,00 0,00 0,00 0,00 1.550,00 10.830,18 1.020,82 1.401,96 0,00 0,00 2.422,78 8.407,40 31/07/2020
231 519900 ANDERSON MOREIRA DOEHLER ANALISTA DO MP TEÓFILO OTONI - COMARCA; TEOFILO OTONI-PJ-07PJ 9.444,70 2.833,41 0,00 0,00 0,00 0,00 0,00 1.550,00 13.828,11 1.350,59 2.135,71 0,00 0,00 3.486,30 10.341,81 31/07/2020
232 103000 ANDERSON TADEU DE DEUS ASSESSOR BELO HORIZONTE - COMARCA; BH-26 CRIME CONT CRIAN ADOL-SECRETARIA 0,00 3.595,42 5.136,32 0,00 0,00 0,00 0,00 1.550,00 10.281,74 713,09 1.638,27 0,00 0,00 2.351,36 7.930,38 31/07/2020
233 309200 ANDITYAS SOARES DE MOURA COSTA MATOS ANALISTA DO MP BELO HORIZONTE - COMARCA; GABINETE DE PROCURADOR DE JUSTIÇA - SALA 304 14.324,23 4.297,27 0,00 0,00 0,00 0,00 0,00 1.550,00 20.171,50 2.048,37 3.688,25 0,00 0,00 5.736,62 14.434,88 31/07/2020
234 519200 ANDRE BORJA LANA ANALISTA DO MP BELO HORIZONTE - COMARCA; CENTRO JORNALISMO 10.069,62 1.006,96 0,00 0,00 0,00 0,00 0,00 1.550,00 12.626,58 1.218,42 1.841,08 0,00 0,00 3.059,50 9.567,08 31/07/2020
235 637200 ANDRE FERNANDES DA CUNHA OFICIAL DO MP MORADA NOVA DE MINAS - COMARCA; MORADA NOVA DE MINAS-PJ-UNPJ 4.817,57 481,76 0,00 0,00 0,00 0,00 0,00 1.550,00 6.849,33 582,93 427,65 0,00 0,00 1.010,58 5.838,75 31/07/2020
236 651500 ANDRE GONCALVES MARANHAO OFICIAL DO MP JACINTO - COMARCA; JACINTO-PJ-SECRETARIA 4.238,09 254,29 0,00 0,00 0,00 0,00 0,00 1.550,00 6.042,38 494,16 263,47 0,00 0,00 757,63 5.284,75 31/07/2020
237 521900 ANDRE LUIS GOMES SILVA ANALISTA DO MP FORMIGA - COMARCA; FORMIGA-PJ-02PJ 10.069,62 1.006,96 0,00 0,00 0,00 0,00 0,00 2.319,39 13.395,97 1.218,42 1.270,83 0,00 0,00 2.489,25 10.906,72 31/07/2020
238 304300 ANDRE LUIZ AVELAR ANALISTA DO MP BELO HORIZONTE - COMARCA; DIRETORIA DE REDES E BANCOS DE DADOS 8.436,53 2.530,96 0,00 0,00 0,00 0,00 0,00 1.550,00 12.517,49 1.206,42 1.762,80 0,00 0,00 2.969,22 9.548,27 31/07/2020
239 397400 ANDRE PATARO MYRRHA DE PAULA E SILVA ANALISTA DO MP BELO HORIZONTE - COMARCA; ASSESSORIA JURIDICO-ADMINISTRATIVA 13.011,52 2.602,30 0,00 0,00 0,00 0,00 0,00 2.319,39 17.933,21 1.717,52 2.952,12 0,00 0,00 4.669,64 13.263,57 31/07/2020
240 650100 ANDRE THOME VARGAS OFICIAL DO MP LEOPOLDINA - COMARCA; LEOPOLDINA-PJ-04PJ 4.665,64 279,94 0,00 0,00 0,00 0,00 0,00 1.550,00 6.495,58 544,01 354,22 0,00 0,00 898,23 5.597,35 31/07/2020
241 548500 ANDRE VINICIUS CARVALHO MEIRA ANALISTA DO MP JUIZ DE FORA - COMARCA; JUIZ DE FORA-PJ-25PJ 8.436,53 843,65 0,00 0,00 0,00 0,00 0,00 1.550,00 10.830,18 1.020,82 1.401,96 0,00 0,00 2.422,78 8.407,40 31/07/2020
242 297200 ANDRE WILLE ROSARIO ANALISTA DO MP BELO HORIZONTE - COMARCA; ASSESSORIA ESPECIAL DO PGJ 16.750,82 5.025,25 0,00 0,00 0,00 0,00 0,00 1.550,00 23.326,07 2.395,37 4.356,06 0,00 0,00 6.751,43 16.574,64 31/07/2020
243 423600 ANDREA COSTA GUALBERTO ALVES ANALISTA DO MP GOVERNADOR VALADARES - COMARCA; COORD REG PJ DEF EDU DIR CRIANCA ADOL RIODOCE 12.204,02 8.542,81 0,00 0,00 0,00 0,00 0,00 1.550,00 22.296,83 2.282,15 4.156,29 0,00 0,00 6.438,44 15.858,39 31/07/2020
244 198600 ANDREA CRISTINA ANDRADE COSTA E SOUZA OFICIAL DO MP MONTES CLAROS - COMARCA; MONTES CLAROS-PJ-15PJ 14.790,66 5.916,26 0,00 0,00 0,00 0,00 0,00 1.550,00 22.256,92 2.277,76 4.146,52 0,00 0,00 6.424,28 15.832,64 31/07/2020
245 467300 ANDREA DE CASSIA PENNA ALVERNAZ ANALISTA DO MP PONTE NOVA - COMARCA; PONTE NOVA-PJ-01PJ 10.069,62 1.006,96 0,00 0,00 0,00 0,00 0,00 1.550,00 12.626,58 1.218,42 1.789,50 0,00 0,00 3.007,92 9.618,66 31/07/2020
246 308000 ANDREA DE CASSIA SANTOS OLIVEIRA ANALISTA DO MP BELO HORIZONTE - COMARCA; ASSESS TECNICO-JUR JUNTO AS PROC. DE JUST 15.272,02 4.581,61 0,00 0,00 0,00 0,00 0,00 1.550,00 21.403,63 2.183,90 3.937,68 0,00 0,00 6.121,58 15.282,05 31/07/2020
247 349500 ANDREA DE OLIVEIRA LOIOLA REGIS OFICIAL DO MP IGUATAMA - COMARCA; IGUATAMA-PJ-UNPJ 9.444,70 1.888,94 0,00 0,00 0,00 0,00 0,00 1.550,00 12.883,64 1.246,70 1.852,41 0,00 0,00 3.099,11 9.784,53 31/07/2020
248 287900 ANDREA FERNANDES PENA MARTINS OFICIAL DO MP MONTES CLAROS - COMARCA; MONTES CLAROS-PJ-09PJ 10.069,62 3.020,89 0,00 0,00 0,00 0,00 0,00 1.550,00 14.640,51 1.439,96 2.230,27 0,00 0,00 3.670,23 10.970,28 31/07/2020
249 300800 ANDREA FERREIRA ANALISTA DO MP LAVRAS - COMARCA; LAVRAS-PJ-04PJ 14.790,66 4.437,20 0,00 0,00 0,00 0,00 0,00 1.550,00 20.777,86 2.115,06 3.836,66 0,00 0,00 5.951,72 14.826,14 31/07/2020
250 316700 ANDREA FRANCISCA DIAS DE SOUZA ASSESSOR BELO HORIZONTE - COMARCA; ASSESSORIA JURIDICA DO PROCON-MG 0,00 0,00 3.076,28 0,00 0,00 0,00 0,00 2.319,39 5.395,67 476,70 200,14 0,00 0,00 676,84 4.718,83 31/07/2020
251 395100 ANDREA LANNA MENDES NOVAIS ANALISTA DO MP BELO HORIZONTE - COMARCA; PROMOT ESTADUAL DE DEF PATRI CULT E TUR DE MG 13.011,52 2.602,30 0,00 0,00 0,00 0,00 0,00 1.550,00 17.163,82 1.717,52 2.899,99 0,00 0,00 4.617,51 12.546,31 31/07/2020
252 67300 ANDREA LEAO MAGALHAES ROQUE ASSESSOR BELO HORIZONTE - COMARCA; COORD ESTADUAL COMBATE CRIMES CIBERNETICOS 0,00 7.278,26 10.397,52 0,00 0,00 0,00 0,00 1.550,00 19.225,78 713,09 4.045,74 0,00 0,00 4.758,83 14.466,95 31/07/2020
253 335700 ANDREA LOPES PEREIRA ANALISTA DO MP GOVERNADOR VALADARES - COMARCA; COORD REG DO MA DA BACIA DO RIO DOCE 15.272,02 4.581,61 0,00 0,00 0,00 0,00 0,00 1.550,00 21.403,63 2.183,90 3.989,82 0,00 0,00 6.173,72 15.229,91 31/07/2020
254 389200 ANDREA TUPINI DOS SANTOS TRISTAO DA ROCHA COORDENADOR/OFICIAL BELO HORIZONTE - COMARCA; BH-13ª PJ JUÍZO DE TÓXICOS-SECRETARIA 0,00 2.363,83 11.819,15 18,35 0,00 3.102,72 0,00 1.550,00 18.854,05 1.610,30 3.379,26 0,00 0,00 4.989,56 13.864,49 31/07/2020
255 419000 ANDREIA BARBOSA DE ALMEIDA ANALISTA DO MP BELO HORIZONTE - COMARCA; GABINETE DE PROCURADOR DE JUSTIÇA - SALA 705 12.204,02 2.440,80 0,00 0,00 0,00 0,00 0,00 1.550,00 16.194,82 1.610,93 2.714,96 0,00 0,00 4.325,89 11.868,93 31/07/2020
256 281501 ANDREIA CARLA COSTA FILGUEIRAS ANALISTA DO MP VISCONDE DO RIO BRANCO - COMARCA; VISCONDE DO RIO BRANCO-PJ-02PJ 12.601,30 2.520,26 0,00 0,00 0,00 0,00 0,00 1.550,00 16.671,56 1.663,37 2.831,64 0,00 0,00 4.495,01 12.176,55 31/07/2020
257 643600 ANDREIA CRISTINA SILVA OFICIAL DO MP PARACATU - COMARCA; PARACATU-PJ-01PJ 4.665,64 279,94 0,00 0,00 0,00 0,00 0,00 1.550,00 6.495,58 544,01 354,22 0,00 0,00 898,23 5.597,35 31/07/2020
258 477100 ANDREIA DE ALMEIDA RIBEIRO MELO OFICIAL DO MP CONTAGEM - COMARCA; CONTAGEM-PJ-07PJ 7.421,79 1.484,36 0,00 0,00 0,00 0,00 0,00 1.550,00 10.456,15 979,68 1.310,42 0,00 0,00 2.290,10 8.166,05 31/07/2020
259 619000 ANDREIA FERREIRA NORONHA COORDENADOR/OFICIAL BELO HORIZONTE - COMARCA; DIRETORIA DE SERVICO CRIMINAL 0,00 1.343,52 13.435,16 0,00 0,00 0,00 0,00 1.550,00 16.328,68 679,68 3.007,62 0,00 0,00 3.687,30 12.641,38 31/07/2020
260 424000 ANDREIA LUCIA COUTO ANALISTA DO MP BELO HORIZONTE - COMARCA; BH-18PJ DIREITOS HUMANOS-SECRETARIA 12.601,30 2.520,26 0,00 0,00 0,00 0,00 0,00 1.550,00 16.671,56 1.663,37 2.831,64 0,00 0,00 4.495,01 12.176,55 31/07/2020
261 370100 ANDREIA MARIA SILVA PINTO OFICIAL DO MP CORONEL FABRICIANO - COMARCA; CORONEL FABRICIANO-PJ-01PJ 8.858,43 1.771,69 0,00 0,00 0,00 0,00 0,00 2.319,39 12.949,51 1.169,31 1.732,36 0,00 0,00 2.901,67 10.047,84 31/07/2020
262 382100 ANDREIA NATALI PEREIRA DE OLIVEIRA OFICIAL DO MP PRADOS - COMARCA; PRADOS-PJ-UNPJ 8.579,10 1.715,82 0,00 0,00 0,00 0,00 0,00 1.550,00 11.844,92 1.132,44 1.650,32 0,00 0,00 2.782,76 9.062,16 31/07/2020
263 275200 ANDREIA RIBEIRO FREITAS OFICIAL DO MP VIÇOSA - COMARCA; VICOSA-PJ-04PJ 10.069,62 3.020,89 0,00 0,00 0,00 0,00 0,00 1.550,00 14.640,51 1.439,96 2.282,40 0,00 0,00 3.722,36 10.918,15 31/07/2020
264 352200 ANDREIA XAVIER PEREIRA OFICIAL DO MP CLÁUDIO - COMARCA; CLAUDIO-PJ-UNPJ 9.444,70 1.888,94 0,00 0,00 0,00 0,00 0,00 1.550,00 12.883,64 1.246,70 1.904,55 0,00 0,00 3.151,25 9.732,39 31/07/2020
265 638500 ANDRESA ALVES FEITOSA CASAGRANDE ANALISTA DO MP PERDÕES - COMARCA; PERDOES-PJ-UNPJ 7.421,79 742,18 0,00 0,00 0,00 0,00 0,00 1.550,00 9.713,97 671,12 1.191,17 0,00 0,00 1.862,29 7.851,68 31/07/2020
266 383700 ANDRESSA EDUARDO SOUZA ANALISTA DO MP OURO BRANCO - COMARCA; OURO BRANCO-PJ-SECRETARIA 13.011,52 2.602,30 0,00 0,00 0,00 0,00 0,00 3.088,78 18.702,60 1.717,52 2.952,12 0,00 0,00 4.669,64 14.032,96 31/07/2020
267 426200 ANDRESSA MENDES CASAL OFICIAL DO MP BELO HORIZONTE - COMARCA; DIR ESTRUTURA E PROCESSOS ORGANIZACIONAIS 6.741,63 1.348,33 0,00 0,00 0,00 0,00 0,00 1.550,00 9.639,96 889,90 1.110,66 0,00 0,00 2.000,56 7.639,40 31/07/2020
268 390100 ANDRESSA RIBEIRO PUCCI OFICIAL DO MP UBERABA - COMARCA; UBERABA-PJ-14PJ 6.529,10 1.305,82 0,00 0,00 0,00 0,00 0,00 1.550,00 9.384,92 861,84 1.048,24 0,00 0,00 1.910,08 7.474,84 31/07/2020
269 462500 ANDREZA APARECIDA COSTA E SILVA ANALISTA DO MP CONSELHEIRO LAFAIETE - COMARCA; CONSELHEIRO LAFAIETE-PJ-02PJ 10.069,62 1.006,96 0,00 0,00 0,00 0,00 0,00 1.550,00 12.626,58 1.218,42 1.841,63 0,00 0,00 3.060,05 9.566,53 31/07/2020
270 537800 ANDREZZA LUZIA DE OLIVEIRA ALVES ANALISTA DO MP PATOS DE MINAS - COMARCA; COORD REG PJ DEF EDU DIR CRI ADO AL PAR NOROE 8.436,53 843,65 0,00 0,00 0,00 0,00 0,00 1.550,00 10.830,18 1.020,82 1.349,83 0,00 0,00 2.370,65 8.459,53 31/07/2020
271 491600 ANE PATRICIA RIBEIRO ANALISTA DO MP SETE LAGOAS - COMARCA; SETE LAGOAS-PJ-11PJ 10.069,62 1.006,96 0,00 0,00 0,00 0,00 0,00 1.550,00 12.626,58 1.218,42 1.789,50 0,00 0,00 3.007,92 9.618,66 31/07/2020
272 465800 ANELISE GAMA ASSESSOR BELO HORIZONTE - COMARCA; BH-18PJ VIOLENCIA DOMESTICA-SECRETARIA 0,00 0,00 8.170,49 0,00 0,00 0,00 0,00 1.550,00 9.720,49 713,09 1.483,92 0,00 0,00 2.197,01 7.523,48 31/07/2020
273 535200 ANELIZE FERNANDA ALVES VILARINHO OFICIAL DO MP CAPINÓPOLIS - COMARCA; CAPINOPOLIS-PJ-UNPJ 4.974,42 497,44 0,00 0,00 0,00 0,00 0,00 2.319,39 7.791,25 601,90 469,88 0,00 0,00 1.071,78 6.719,47 31/07/2020
274 197200 ANGELA COELHO SALDANHA OFICIAL DO MP PARÁ DE MINAS - COMARCA; PARA DE MINAS-PJ-03PJ 14.790,66 5.916,26 0,00 0,00 0,00 0,00 0,00 1.550,00 22.256,92 2.277,76 4.198,66 0,00 0,00 6.476,42 15.780,50 31/07/2020
275 307400 ANGELA CRISTINA GONCALVES MUNIZ ANALISTA DO MP UBERLÂNDIA - COMARCA; UBERLANDIA-PJ-SEC FAMILIA 16.750,82 6.700,33 0,00 0,00 0,00 0,00 0,00 2.319,39 25.770,54 2.579,63 4.818,17 0,00 0,00 7.397,80 18.372,74 31/07/2020
276 191800 ANGELA MARIA DE OLIVEIRA OFICIAL DO MP GUARANÉSIA - COMARCA; GUARANESIA-PJ-SECRETARIA 14.790,66 10.353,47 0,00 0,00 0,00 0,00 460,98 6.578,83 32.183,94 2.765,85 5.232,53 0,00 0,00 7.998,38 24.185,56 31/07/2020
277 497400 ANGELA MARIA HENRIQUES ANALISTA DO MP BELO HORIZONTE - COMARCA; COORD REG BACIAS RIO VELHAS E PARAOPEBA 10.069,62 1.006,96 0,00 0,00 0,00 0,00 0,00 1.550,00 12.626,58 1.218,42 1.841,63 0,00 0,00 3.060,05 9.566,53 31/07/2020
278 260700 ANGELICA CRISTINA AZEVEDO MOREIRA MOUCO OFICIAL DO MP UBÁ - COMARCA; UBA-PJ-05PJ 12.204,02 3.661,21 0,00 0,00 0,00 0,00 0,00 1.550,00 17.415,23 1.745,18 3.013,65 0,00 0,00 4.758,83 12.656,40 31/07/2020
279 334600 ANGELICA PANISSA DE FREITAS GALLATI OFICIAL DO MP GUAXUPÉ - COMARCA; GUAXUPE-PJ-02PJ 9.444,70 2.833,41 0,00 0,00 0,00 0,00 0,00 2.319,39 14.597,50 1.350,59 2.135,71 0,00 0,00 3.486,30 11.111,20 31/07/2020
280 521100 ANGELICA SALES MOREIRA OFICIAL DO MP BELO HORIZONTE - COMARCA; BH-02PJ FAMILIA-SECRETARIA 6.741,63 674,16 0,00 0,00 0,00 0,00 0,00 1.550,00 8.965,79 815,74 945,65 0,00 0,00 1.761,39 7.204,40 31/07/2020
281 466500 ANGELLO MARQUES AGRELLI ANALISTA DO MP MAR DE ESPANHA - COMARCA; MAR DE ESPANHA-PJ-UNPJ 10.069,62 1.006,96 0,00 0,00 0,00 0,00 0,00 1.550,00 12.626,58 1.218,42 1.841,63 0,00 0,00 3.060,05 9.566,53 31/07/2020
282 363300 ANGELO VERDOLIN HENRIQUES ANALISTA DO MP SETE LAGOAS - COMARCA; SETE LAGOAS-PJ-04PJ 14.790,66 5.916,26 0,00 0,00 0,00 0,00 0,00 2.319,39 23.026,31 2.277,76 4.198,66 0,00 0,00 6.476,42 16.549,89 31/07/2020
283 250900 ANISIO APARECIDO SANTOS OFICIAL DO MP MARIANA - COMARCA; MARIANA-PJ-02PJ 6.123,79 2.449,52 0,00 0,00 0,00 0,00 0,00 1.550,00 10.123,31 943,06 543,09 0,00 0,00 1.486,15 8.637,16 31/07/2020
284 651200 ANITA MARIA SANT ANA DE MATTOS FONTES OFICIAL DO MP ERVÁLIA - COMARCA; ERVALIA-PJ-UNPJ 4.665,64 3.265,94 0,00 0,00 0,00 0,00 0,00 1.550,00 9.481,58 872,47 1.019,76 0,00 0,00 1.892,23 7.589,35 31/07/2020
285 253400 ANNA FLAVIA LEHMAN BATTAGLIA ANALISTA DO MP BELO HORIZONTE - COMARCA; CAO-PATRIMONIO PUBLICO 17.413,92 5.224,18 0,00 0,00 0,00 0,00 0,00 1.550,00 24.188,10 2.490,19 4.514,90 0,00 0,00 7.005,09 17.183,01 31/07/2020
286 447600 ANNGELUCE ALCANTARA DE CAMPOS OFICIAL DO MP DIVINÓPOLIS - COMARCA; DIVINOPOLIS-PJ-SECRETARIA 6.529,10 1.305,82 0,00 0,00 0,00 0,00 0,00 1.550,00 9.384,92 861,84 1.048,24 0,00 0,00 1.910,08 7.474,84 31/07/2020
287 119600 ANSELMO BORGES PARREIRAS OFICIAL DO MP BONFIM - COMARCA; BONFIM-PJ-UNPJ 7.663,37 6.130,70 0,00 35,27 0,00 1.726,97 0,00 1.550,00 17.106,31 1.517,35 2.871,87 0,00 0,00 4.389,22 12.717,09 31/07/2020
288 630300 ANTONIA GOMES RAMALHO OFICIAL DO MP NOVO CRUZEIRO - COMARCA; NOVO CRUZEIRO-PJ-UNPJ 5.217,34 521,73 0,00 0,00 0,00 0,00 0,00 1.550,00 7.289,07 631,30 535,28 0,00 0,00 1.166,58 6.122,49 31/07/2020
289 332400 ANTONIA MARIA MAMEDE OFICIAL DO MP UBERLÂNDIA - COMARCA; COORD REG PP TRIANGULO MINEIRO UBERLANDIA 9.444,70 2.833,41 0,00 28,99 0,00 1.523,29 0,00 1.550,00 15.380,39 1.350,59 2.507,12 0,00 0,00 3.857,71 11.522,68 31/07/2020
290 401600 ANTONIO CARLOS GUEDES AROUCA ANALISTA DO MP BELO HORIZONTE - COMARCA; COORD EST DEF DIR FAM PESSOAS DEFICI IDOSOS 11.446,46 2.289,29 0,00 0,00 0,00 0,00 0,00 1.550,00 15.285,75 1.510,93 2.492,47 0,00 0,00 4.003,40 11.282,35 31/07/2020
291 333900 ANTONIO GONCALVES DE SOUZA FILHO OFICIAL DO MP BELO HORIZONTE - COMARCA; DIRETORIA DE CONTABILIDADE 9.444,70 2.833,41 0,00 0,00 0,00 0,00 0,00 1.550,00 13.828,11 1.350,59 2.135,71 0,00 0,00 3.486,30 10.341,81 31/07/2020
292 176100 ANTONIO MARCELO CAMPOS CAMPANELLA OFICIAL DO MP BELO HORIZONTE - COMARCA; COORD DE GABINETE DO PGJ 14.790,66 7.395,33 0,00 0,00 0,00 0,00 0,00 1.550,00 23.735,99 2.440,46 4.560,66 0,00 0,00 7.001,12 16.734,87 31/07/2020
293 321001 ANTONIO OLINTO VIEIRA MACHADO ANALISTA DO MP BELO HORIZONTE - COMARCA; CENTRAL DE APOIO TECN-SETOR DE MEIO AMBIENTE 13.011,52 2.602,30 0,00 0,00 0,00 0,00 0,00 1.550,00 17.163,82 1.717,52 2.847,85 0,00 0,00 4.565,37 12.598,45 31/07/2020
294 356200 ANTONIO PAULA DA SILVA OFICIAL DO MP JUIZ DE FORA - COMARCA; JUIZ DE FORA-PJ-20PJ 8.436,53 2.530,96 0,00 0,00 0,00 0,00 522,78 7.253,09 18.743,36 1.206,42 1.814,93 0,00 0,00 3.021,35 15.722,01 31/07/2020
295 119900 ANTONIO RODRIGUES DE PINHO OFICIAL DO MP GUANHÃES - COMARCA; GUANHAES-PJ-01PJ 14.324,23 10.026,96 0,00 0,00 0,00 0,00 0,00 2.319,39 26.670,58 2.678,63 4.986,32 0,00 0,00 7.664,95 19.005,63 31/07/2020
296 373300 ANTONIO SERGIO ANANIAS OFICIAL DO MP AIURUOCA - COMARCA; AIURUOCA-PJ-UNPJ 7.912,85 1.582,57 0,00 0,00 0,00 0,00 0,00 1.550,00 11.045,42 1.044,50 1.350,37 0,00 0,00 2.394,87 8.650,55 31/07/2020
297 608100 ANTONIO SIDINEY VIEIRA LEMOS ANALISTA DO MP PIRAPORA - COMARCA; PIRAPORA-PJ-01PJ 8.170,49 3.268,20 0,00 0,00 0,00 0,00 0,00 1.550,00 12.988,69 1.258,26 1.930,26 0,00 0,00 3.188,52 9.800,17 31/07/2020
298 374700 ANTONIO SILVA NETO OFICIAL DO MP BELO HORIZONTE - COMARCA; GAECO - SECRETARIA 8.579,10 1.715,82 0,00 0,00 0,00 0,00 0,00 1.550,00 11.844,92 1.132,44 1.650,32 0,00 0,00 2.782,76 9.062,16 31/07/2020
299 636700 ANTONIUS VITORIANO FERNANDES OFICIAL DO MP BELO HORIZONTE - COMARCA; ASSESSORIA JURIDICA DO PROCON-MG 4.376,03 437,60 0,00 0,00 0,00 0,00 0,00 1.550,00 6.363,63 529,50 327,80 0,00 0,00 857,30 5.506,33 31/07/2020
300 413200 ANY PEREIRA SILVA ANALISTA DO MP TRÊS PONTAS - COMARCA; TRES PONTAS-PJ-01PJ 12.204,02 2.440,80 0,00 0,00 0,00 0,00 0,00 1.550,00 16.194,82 1.610,93 2.662,82 0,00 0,00 4.273,75 11.921,07 31/07/2020
301 151401 APARECIDA DE FATIMA MENDES DE ALMEIDA ASSESSOR JUIZ DE FORA - COMARCA; JUIZ DE FORA-PJ-SECRETARIA 0,00 0,00 5.136,32 0,00 0,00 0,00 0,00 1.550,00 6.686,32 713,09 649,53 0,00 0,00 1.362,62 5.323,70 31/07/2020
302 329300 APARECIDA MARIA MELO DE ASSIS OFICIAL DO MP BELO HORIZONTE - COMARCA; BH-18PJ DIREITOS HUMANOS-SECRETARIA 10.069,62 3.020,89 0,00 0,00 0,00 0,00 0,00 1.550,00 14.640,51 1.439,96 2.334,54 0,00 0,00 3.774,50 10.866,01 31/07/2020
303 475300 APARECIDA MARLENE FREIRE ROSA ANALISTA DO MP BELO HORIZONTE - COMARCA; BH-02PJ FAMILIA-SECRETARIA 11.085,56 9.977,00 0,00 57,43 0,00 2.506,59 0,00 1.550,00 25.176,58 2.316,88 4.922,84 0,00 0,00 7.239,72 17.936,86 31/07/2020
304 240300 APARECIDA PEREIRA DO NASCIMENTO OFICIAL DO MP ITURAMA - COMARCA; ITURAMA-PJ-01PJ 12.601,30 8.820,91 0,00 58,20 0,00 2.552,26 0,00 1.550,00 25.582,67 2.356,44 5.021,75 0,00 0,00 7.378,19 18.204,48 31/07/2020
305 653000 APARECIDA ROSA DE LIMA ASSESSOR BELO HORIZONTE - COMARCA; SECRETARIA PROCESSOS DISCIPES ADMINISTRATIVOS 0,00 0,00 8.170,49 0,00 0,00 0,00 0,00 1.550,00 9.720,49 713,09 1.483,92 0,00 0,00 2.197,01 7.523,48 31/07/2020
306 354500 APARECIDA VIEIRA DE CARVALHO OFICIAL DO MP BELO HORIZONTE - COMARCA; DIVISÃO DE EDUCAÇÃO PARA O CONSUMO 7.421,79 1.484,36 0,00 0,00 0,00 0,00 0,00 1.550,00 10.456,15 979,68 1.310,42 0,00 0,00 2.290,10 8.166,05 31/07/2020
307 551000 ARACELES BICALHO FELIX ANALISTA DO MP MANHUAÇU - COMARCA; MANHUACU-PJ-02PJ 8.436,53 843,65 0,00 0,00 0,00 0,00 0,00 2.319,39 11.599,57 1.020,82 1.401,96 0,00 0,00 2.422,78 9.176,79 31/07/2020
308 286200 ARACELI MEDRADO DOS SANTOS LIMA OFICIAL DO MP PARACATU - COMARCA; PARACATU-PJ-03PJ 6.123,79 1.837,14 0,00 0,00 0,00 0,00 0,00 1.628,00 9.588,93 875,70 1.079,08 0,00 0,00 1.954,78 7.634,15 31/07/2020
309 189000 ARAHY MARQUES SILVA OFICIAL DO MP BELO HORIZONTE - COMARCA; BH-13ª PJ JUÍZO DE TÓXICOS-SECRETARIA 6.123,79 2.449,52 0,00 0,00 0,00 0,00 0,00 1.550,00 10.123,31 943,06 1.228,96 0,00 0,00 2.172,02 7.951,29 31/07/2020
310 112200 ARAQUEM AUGUSTO DE MATOS AGENTE DO MP BELO HORIZONTE - COMARCA; BH-23PJ CIVEL-SEC EXP CIVEIS 6.741,63 5.393,30 0,00 33,05 0,00 1.444,01 0,00 1.550,00 15.161,99 1.334,84 2.311,33 0,00 0,00 3.646,17 11.515,82 31/07/2020
311 280600 ARDUINO FRATTEZI ANALISTA DO MP BELO HORIZONTE - COMARCA; CENTRAL DE APOIO TECNICO-SETOR CONTABIL 16.750,82 5.025,25 0,00 0,00 0,00 0,00 0,00 1.550,00 23.326,07 2.395,37 4.460,33 0,00 0,00 6.855,70 16.470,37 31/07/2020
312 520201 ARIANE DE FATIMA CARVALHO ALMEIDA RODRIGUES ANALISTA DO MP VESPASIANO - COMARCA; VESPASIANO-PJ-04PJ 8.170,49 817,05 0,00 0,00 0,00 0,00 0,00 2.319,39 11.306,93 988,63 1.173,93 0,00 0,00 2.162,56 9.144,37 31/07/2020
313 537600 ARIELA FREIRE MONTIJO ANALISTA DO MP ARCOS - COMARCA; ARCOS-PJ-01PJ 8.436,53 843,65 0,00 0,00 0,00 0,00 0,00 2.319,39 11.599,57 1.020,82 1.297,69 0,00 0,00 2.318,51 9.281,06 31/07/2020
314 182000 ARILSON ALEXANDRE MARTINS MAGALHAES OFICIAL DO MP JOÃO MONLEVADE - COMARCA; JOAO MONLEVADE-PJ-01PJ 14.324,23 7.162,12 0,00 0,00 0,00 0,00 0,00 3.088,78 24.575,13 2.363,50 4.180,87 0,00 0,00 6.544,37 18.030,76 31/07/2020
315 511000 ARISLANE CAROLINA DA SILVA ANALISTA DO MP CAMPINA VERDE - COMARCA; CAMPINA VERDE-PJ-UNPJ 10.069,62 1.006,96 0,00 0,00 0,00 0,00 0,00 3.088,78 14.165,36 1.218,42 1.841,63 0,00 0,00 3.060,05 11.105,31 31/07/2020
316 170000 ARLEY BRITES DA SILVA ASSESSOR BELO HORIZONTE - COMARCA; BH-14PJ DEFESA CONSUMIDOR-SECRETARIA 0,00 2.054,53 5.136,32 0,00 0,00 0,00 0,00 1.550,00 8.740,85 713,09 555,67 0,00 0,00 1.268,76 7.472,09 31/07/2020
317 120400 ARLINDO CASSIO DA CRUZ OFICIAL DO MP SÃO GONÇALO DO SAPUCAÍ - COMARCA; SAO GONCALO DO SAPUCAI-PJ-01PJ 18.820,14 15.056,11 0,00 0,00 0,00 3.726,39 0,00 1.550,00 39.152,64 3.726,39 8.342,33 0,00 0,00 12.068,72 27.083,92 31/07/2020
318 243700 ARLINDO MARCIO LACERDA OFICIAL DO MP CONTAGEM - COMARCA; CONTAGEM-PJ-03PJ 12.204,02 4.881,61 0,00 0,00 0,00 0,00 1.445,27 1.550,00 20.080,90 1.879,42 3.709,80 0,00 0,00 5.589,22 14.491,68 31/07/2020
319 392100 ARNALDO DE ANDRADE OFICIAL DO MP DIVINÓPOLIS - COMARCA; DIVINOPOLIS-PJ-02PJ 8.579,10 1.715,82 0,00 0,00 0,00 0,00 1.445,27 2.319,39 14.059,58 1.132,44 1.995,63 0,00 0,00 3.128,07 10.931,51 31/07/2020
320 642400 ARTANE INARDE DE SIQUEIRA DAMASCENO ANALISTA DO MP BELO HORIZONTE - COMARCA; PROC JUST RECURSOS ESP E EXTRAORD CRIMINAIS 7.421,79 445,31 0,00 0,00 0,00 0,00 0,00 2.319,39 10.186,49 671,12 1.109,54 0,00 0,00 1.780,66 8.405,83 31/07/2020
321 302100 AUGUSTO ROUSSEAU DE CASTRO ANALISTA DO MP CATAGUASES - COMARCA; CATAGUASES-PJ-02PJ 16.750,82 5.025,25 0,00 0,00 0,00 0,00 0,00 1.550,00 23.326,07 2.395,37 4.460,33 0,00 0,00 6.855,70 16.470,37 31/07/2020
322 540200 AUREA AVELAR BITTENCOURT OFICIAL DO MP BELO HORIZONTE - COMARCA; GRUPO ESP PROM JUST DEF PROB ADM PAT PUB 4.974,42 497,44 0,00 0,00 0,00 0,00 0,00 1.550,00 7.021,86 601,90 374,30 0,00 0,00 976,20 6.045,66 31/07/2020
323 183200 AURELIANO MAGELA DE REZENDE COORDENADOR/OFICIAL BELO HORIZONTE - COMARCA; COORD DE GABINETE DO PGJ 14.324,23 5.729,69 2.687,03 0,00 0,00 0,00 0,00 1.550,00 24.290,95 2.205,93 4.777,77 0,00 0,00 6.983,70 17.307,25 31/07/2020
324 629400 AYESKA DA COSTA VAL MOURA DABIEN OFICIAL DO MP BELO HORIZONTE - COMARCA; SUPERINTENDENCIA DE RECURSOS HUMANOS 5.217,34 521,73 0,00 0,00 0,00 0,00 0,00 1.550,00 7.289,07 631,30 535,28 0,00 0,00 1.166,58 6.122,49 31/07/2020
325 652800 BARBARA JULIANNE MOREIRA CASTRO ASSESSOR BELO HORIZONTE - COMARCA; ASSESS TECNICO-JUR JUNTO AS PROC. DE JUST 0,00 0,00 8.170,49 0,00 0,00 0,00 0,00 1.550,00 9.720,49 713,09 1.483,92 0,00 0,00 2.197,01 7.523,48 31/07/2020
326 663600 BARBARA REGINA PEREIRA DE PINHO MAGALHAES ASSESSOR BELO HORIZONTE - COMARCA; CAO-DH CONT EXT ATIV POLIC E AP COMUNIT-REC 0,00 0,00 8.170,49 0,00 0,00 0,00 0,00 1.550,00 9.720,49 713,09 1.483,92 0,00 0,00 2.197,01 7.523,48 31/07/2020
327 546500 BARBARA ZACARONI GOULART OFICIAL DO MP BETIM - COMARCA; BETIM-PJ-08PJ 4.974,42 497,44 0,00 0,00 0,00 0,00 0,00 1.550,00 7.021,86 601,90 469,88 0,00 0,00 1.071,78 5.950,08 31/07/2020
328 316500 BEATRIZ ABILVIA DA SILVA ANALISTA DO MP GOVERNADOR VALADARES - COMARCA; GOVERNADOR VALADARES-PJ-07PJ 15.272,02 4.581,61 0,00 0,00 0,00 0,00 0,00 1.550,00 21.403,63 2.183,90 3.989,82 0,00 0,00 6.173,72 15.229,91 31/07/2020
329 311800 BEATRIZ APARECIDA SOARES GANEM OFICIAL DO MP ITAMBACURI - COMARCA; ITAMBACURI-PJ-02PJ 10.069,62 3.020,89 0,00 0,00 0,00 0,00 0,00 1.550,00 14.640,51 1.439,96 2.178,13 0,00 0,00 3.618,09 11.022,42 31/07/2020
330 266800 BEATRIZ AUGUSTA VILACA GOMES DE HUBER OFICIAL DO MP BELO HORIZONTE - COMARCA; BH-05PJ-JUÍZO SUCESSÕES-SEC 8.858,43 2.657,53 0,00 0,00 0,00 0,00 0,00 1.550,00 13.065,96 1.266,76 1.949,17 0,00 0,00 3.215,93 9.850,03 31/07/2020
331 235200 BEATRIZ BOTELHO BATISTA OFICIAL DO MP BELO HORIZONTE - COMARCA; BH-21PJ TUTELA FUNDACOES-SECRETARIA 10.069,62 4.027,85 0,00 0,00 0,00 0,00 0,00 1.550,00 15.647,47 1.550,72 2.581,00 0,00 0,00 4.131,72 11.515,75 31/07/2020
332 182300 BEATRIZ PAULA SOUSA RAMOS OFICIAL DO MP MARIANA - COMARCA; MARIANA-PJ-01PJ 14.324,23 7.162,12 0,00 0,00 0,00 0,00 0,00 1.550,00 23.036,35 2.363,50 4.337,29 0,00 0,00 6.700,79 16.335,56 31/07/2020
333 507000 BELCHIOR FRANKLIN AMARAL LEITE ANALISTA DO MP BELO HORIZONTE - COMARCA; CENTRAL DE APOIO TECNICO 10.069,62 1.006,96 0,00 0,00 0,00 0,00 0,00 2.319,39 13.395,97 1.218,42 1.685,22 0,00 0,00 2.903,64 10.492,33 31/07/2020
334 345100 BENITO ELIAS RODRIGUES ANALISTA DO MP BARBACENA - COMARCA; BARBACENA - SECRETARIA DAS PJS CRIMINAIS 14.790,66 2.958,13 0,00 0,00 0,00 0,00 0,00 1.550,00 19.298,79 1.952,37 3.474,66 0,00 0,00 5.427,03 13.871,76 31/07/2020
335 207300 BENITO VIEIRA DOS SANTOS ANALISTA DO MP BELO HORIZONTE - COMARCA; COMB CRIMES PRAT POR AG POL MUN-ASSESSORIA 18.820,14 7.528,06 0,00 74,18 0,00 3.046,66 0,00 1.550,00 31.019,04 2.898,30 4.448,75 0,00 0,00 7.347,05 23.671,99 31/07/2020
336 480200 BERNADETE NUNES DOS SANTOS ANALISTA DO MP GUANHÃES - COMARCA; GUANHAES-PJ-02PJ 10.069,62 3.020,89 0,00 0,00 0,00 0,00 0,00 1.550,00 14.640,51 1.439,96 2.334,54 0,00 0,00 3.774,50 10.866,01 31/07/2020
337 378400 BETANIA FARNESI DE SOUZA E SILVA OFICIAL DO MP SETE LAGOAS - COMARCA; SETE LAGOAS-PJ-SEC CRIMINAIS 8.579,10 3.431,64 0,00 0,00 0,00 0,00 0,00 1.550,00 13.560,74 1.321,18 2.018,13 0,00 0,00 3.339,31 10.221,43 31/07/2020
338 387400 BETANIA MENDONCA DE ASSIS CARVALHO ANALISTA DO MP JUIZ DE FORA - COMARCA; JUIZ DE FORA-PJ-03PJ 13.011,52 2.602,30 0,00 0,00 0,00 0,00 0,00 2.319,39 17.933,21 1.717,52 2.899,99 0,00 0,00 4.617,51 13.315,70 31/07/2020
339 450300 BIANCA OLIVEIRA DE ALBUQUERQUE ANALISTA DO MP BELO HORIZONTE - COMARCA; BH-10PJ EXECUÇÃO PENAL-SECRETARIA 10.069,62 2.013,92 0,00 0,00 0,00 0,00 0,00 2.319,39 14.402,93 1.329,19 2.088,09 0,00 0,00 3.417,28 10.985,65 31/07/2020
340 535400 BIANCA SALOTO ROSSI ANALISTA DO MP SANTOS DUMONT - COMARCA; SANTOS DUMONT-PJ-01PJ 8.436,53 843,65 0,00 0,00 0,00 0,00 0,00 1.550,00 10.830,18 1.020,82 1.401,96 0,00 0,00 2.422,78 8.407,40 31/07/2020
341 120800 BRAS MARQUES DE SOUZA ANALISTA DO MP BELO HORIZONTE - COMARCA; SUPERINTENDENCIA DE GESTAO ADMINISTRATIVA 23.757,25 19.005,81 0,00 0,00 0,00 3.900,84 130,03 2.968,49 49.762,42 3.900,84 8.778,48 7.300,84 0,00 19.980,16 29.782,26 31/07/2020
342 460900 BRENO CRISTIANO DE SOUZA REZENDE ANALISTA DO MP ITAÚNA - COMARCA; ITAUNA-PJ-02PJ 9.444,70 944,47 0,00 0,00 0,00 0,00 0,00 1.550,00 11.939,17 1.142,81 1.673,39 0,00 0,00 2.816,20 9.122,97 31/07/2020
343 239000 BRENO VENANCIO ROMANINI OFICIAL DO MP BELO HORIZONTE - COMARCA; BH-20PJ ORD ECON TRIBUTARIA-SECRETARIA 10.069,62 3.020,89 0,00 0,00 0,00 0,00 0,00 1.550,00 14.640,51 1.439,96 2.334,54 0,00 0,00 3.774,50 10.866,01 31/07/2020
344 202201 BRIGITTE AMARALINA DE CALDAS LIMA OFICIAL DO MP NANUQUE - COMARCA; NANUQUE-PJ-03PJ 10.069,62 4.027,85 0,00 0,00 0,00 0,00 0,00 1.550,00 15.647,47 1.550,72 2.320,31 0,00 0,00 3.871,03 11.776,44 31/07/2020
345 642300 BRUNA IZABELITA DE FATIMA OLIVEIRA COSTA OFICIAL DO MP BELO HORIZONTE - COMARCA; BH-02PJ FAMILIA-SECRETARIA 4.817,57 289,05 0,00 0,00 0,00 0,00 0,00 1.550,00 6.656,62 561,73 386,47 0,00 0,00 948,20 5.708,42 31/07/2020
346 513600 BRUNA KARLA MARTINS CARVALHO ANALISTA DO MP GOVERNADOR VALADARES - COMARCA; GOVERNADOR VALADARES-PJ-01PJ 10.069,62 1.006,96 0,00 0,00 0,00 0,00 0,00 1.550,00 12.626,58 1.218,42 1.841,63 0,00 0,00 3.060,05 9.566,53 31/07/2020
347 415100 BRUNA MARIA SOARES OLIVEIRA COSTA RAMOS ANALISTA DO MP UBÁ - COMARCA; COORD REG BACIA DO RIO PARAIBA DO SUL 12.601,30 2.520,26 0,00 0,00 0,00 0,00 0,00 1.550,00 16.671,56 1.663,37 2.831,64 0,00 0,00 4.495,01 12.176,55 31/07/2020
348 470000 BRUNA MORAES ANALISTA DO MP TOMBOS - COMARCA; TOMBOS-PJ-UNPJ 11.085,56 1.108,56 0,00 0,00 0,00 0,00 0,00 2.319,39 14.513,51 1.341,35 1.958,74 0,00 0,00 3.300,09 11.213,42 31/07/2020
349 614700 BRUNA NATTANY DE LIMA OFICIAL DO MP MANTENA - COMARCA; MANTENA-PJ-01PJ 5.217,34 521,73 0,00 0,00 0,00 0,00 0,00 1.550,00 7.289,07 631,30 535,28 0,00 0,00 1.166,58 6.122,49 31/07/2020
350 631800 BRUNA RAPOSO JORGE OFICIAL DO MP JUIZ DE FORA - COMARCA; JUIZ DE FORA-PJ-06PJ 5.217,34 521,73 0,00 0,00 1.913,02 0,00 0,00 1.550,00 9.202,09 631,30 1.061,36 0,00 0,00 1.692,66 7.509,43 31/07/2020
351 463800 BRUNO ALVES TEIXEIRA ANALISTA DO MP UBERLÂNDIA - COMARCA; UBERLANDIA-PJ-04PJ 10.069,62 1.006,96 0,00 0,00 0,00 0,00 0,00 1.550,00 12.626,58 1.218,42 1.841,63 0,00 0,00 3.060,05 9.566,53 31/07/2020
352 538500 BRUNO AUGUSTO DA SILVA OFICIAL DO MP SANTA LUZIA - COMARCA; SANTA LUZIA-PJ-03PJ 5.387,19 538,72 0,00 0,00 0,00 0,00 0,00 2.319,39 8.245,30 651,85 581,01 0,00 0,00 1.232,86 7.012,44 31/07/2020
353 318200 BRUNO BARROS DE SOUZA OFICIAL DO MP UBÁ - COMARCA; UBA-PJ-04PJ 10.069,62 3.020,89 0,00 0,00 0,00 0,00 0,00 1.550,00 14.640,51 1.439,96 1.765,15 0,00 0,00 3.205,11 11.435,40 31/07/2020
354 459600 BRUNO CASTELAR LUGAO MENDES OFICIAL DO MP GOVERNADOR VALADARES - COMARCA; GOVERNADOR VALADARES-PJ-14PJ 7.663,37 766,34 0,00 0,00 0,00 0,00 0,00 1.550,00 9.979,71 927,27 1.193,81 0,00 0,00 2.121,08 7.858,63 31/07/2020
355 427400 BRUNO CESAR RIBEIRO DE PAIVA ANALISTA DO MP BELO HORIZONTE - COMARCA; ASSESS JUR DO CONS SUPERIOR DO MINISTERIO PUB 12.601,30 2.520,26 0,00 0,00 0,00 0,00 0,00 1.550,00 16.671,56 1.663,37 2.831,64 0,00 0,00 4.495,01 12.176,55 31/07/2020
356 380900 BRUNO CIRILO ANTUNES OFICIAL DO MP VARGINHA - COMARCA; VARGINHA-PJ-05PJ 8.436,53 1.687,31 0,00 0,00 0,00 0,00 0,00 1.550,00 11.673,84 1.113,62 1.608,45 0,00 0,00 2.722,07 8.951,77 31/07/2020
357 329000 BRUNO DE MELO REIS ANALISTA DO MP PATROCÍNIO - COMARCA; PATROCINIO-PJ-02PJ 15.272,02 4.581,61 0,00 0,00 0,00 0,00 0,00 3.088,78 22.942,41 2.183,90 3.885,54 0,00 0,00 6.069,44 16.872,97 31/07/2020
358 378300 BRUNO HERDY LOPES DE OLIVEIRA ANALISTA DO MP GOVERNADOR VALADARES - COMARCA; GOVERNADOR VALADARES-PJ-SECRETARIA 13.011,52 2.602,30 0,00 0,00 0,00 0,00 0,00 1.550,00 17.163,82 1.717,52 2.952,12 0,00 0,00 4.669,64 12.494,18 31/07/2020
359 529700 BRUNO JOSE BUENO DIAS OFICIAL DO MP SÃO SEBASTIÃO DO PARAÍSO - COMARCA; SAO SEBASTIAO DO PARAISO-PJ-02PJ 5.387,19 538,72 0,00 0,00 0,00 0,00 0,00 1.550,00 7.475,91 651,85 528,87 0,00 0,00 1.180,72 6.295,19 31/07/2020
360 350100 BRUNO LAUD SERRANO DOS REIS OFICIAL DO MP UBÁ - COMARCA; UBA-PJ-02PJ 8.579,10 2.573,73 0,00 0,00 0,00 0,00 0,00 1.550,00 12.702,83 1.226,81 1.808,16 0,00 0,00 3.034,97 9.667,86 31/07/2020
361 373800 BRUNO MARTINO DE ALBUQUERQUE ANALISTA DO MP PONTE NOVA - COMARCA; PONTE NOVA-PJ-03PJ 13.011,52 2.602,30 0,00 0,00 0,00 0,00 0,00 1.550,00 17.163,82 1.717,52 2.847,85 0,00 0,00 4.565,37 12.598,45 31/07/2020
362 470400 BRUNO NOVAIS CABRAL ANALISTA DO MP MUTUM - COMARCA; MUTUM-PJ-UNPJ 10.069,62 1.006,96 0,00 0,00 0,00 0,00 0,00 1.550,00 12.626,58 1.218,42 1.841,63 0,00 0,00 3.060,05 9.566,53 31/07/2020
363 648600 BRUNO RIBEIRO E MELO ASSESSOR BELO HORIZONTE - COMARCA; CENTRO CERIMONIAL 0,00 0,00 8.170,49 0,00 0,00 0,00 0,00 1.550,00 9.720,49 713,09 1.483,92 0,00 0,00 2.197,01 7.523,48 31/07/2020
364 369200 BRUNO ROBERTO DIAS DE OLIVEIRA OFICIAL DO MP BELO HORIZONTE - COMARCA; BH-22PJ PES COM DEF E IDOSOS-SECRETARIA 8.858,43 1.771,69 0,00 0,00 0,00 0,00 0,00 1.550,00 12.180,12 1.169,31 1.732,36 0,00 0,00 2.901,67 9.278,45 31/07/2020
365 547700 BRUNO ROBERTO SOUZA GONCALVES ANALISTA DO MP PARACATU - COMARCA; PARACATU-PJ-03PJ 8.436,53 843,65 0,00 0,00 3.093,39 0,00 0,00 3.088,78 15.462,35 1.020,82 2.252,65 0,00 0,00 3.273,47 12.188,88 31/07/2020
366 546100 BRUNO SA VIEIRA ANALISTA DO MP ERVÁLIA - COMARCA; ERVALIA-PJ-UNPJ 8.436,53 843,65 0,00 0,00 0,00 0,00 0,00 1.550,00 10.830,18 1.020,82 1.349,83 0,00 0,00 2.370,65 8.459,53 31/07/2020
367 438200 BRUNO SALES PEREIRA ANALISTA DO MP BELO HORIZONTE - COMARCA; CENTRAL DE APOIO TECNICO-SETOR CONTABIL 11.085,56 2.217,11 0,00 0,00 0,00 0,00 0,00 2.319,39 15.622,06 1.463,29 2.334,33 0,00 0,00 3.797,62 11.824,44 31/07/2020
368 537400 BRUNO SANT'ANA CESAR ANALISTA DO MP CONTAGEM - COMARCA; CONTAGEM-PJ-19PJ 8.436,53 843,65 0,00 0,00 0,00 0,00 0,00 1.550,00 10.830,18 1.020,82 1.401,96 0,00 0,00 2.422,78 8.407,40 31/07/2020
369 405800 CAIO FERNANDO RODRIGUES DE OLIVEIRA ANALISTA DO MP BELO HORIZONTE - COMARCA; ASSESS TECNICO-JUR JUNTO AS PROC. DE JUST 12.601,30 2.520,26 0,00 0,00 0,00 0,00 0,00 1.550,00 16.671,56 1.663,37 2.831,64 0,00 0,00 4.495,01 12.176,55 31/07/2020
370 530000 CAIO GUEDES DE OLIVEIRA ANALISTA DO MP DIAMANTINA - COMARCA; DIAMANTINA-PJ-02PJ 8.436,53 843,65 0,00 0,00 0,00 0,00 0,00 2.319,39 11.599,57 1.020,82 1.349,83 0,00 0,00 2.370,65 9.228,92 31/07/2020
371 491400 CAIO MIRANDA JUNQUEIRA ANALISTA DO MP BUENO BRANDAO - COMARCA; BUENO BRANDAO-PJ-UNPJ 9.444,70 944,47 0,00 0,00 0,00 0,00 0,00 2.319,39 12.708,56 1.142,81 1.569,11 0,00 0,00 2.711,92 9.996,64 31/07/2020
372 415800 CAMILA ALVES DA SILVA ANALISTA DO MP CAETÉ - COMARCA; CAETE-PJ-01PJ 12.601,30 2.520,26 0,00 0,00 0,00 0,00 0,00 1.550,00 16.671,56 1.663,37 2.831,64 0,00 0,00 4.495,01 12.176,55 31/07/2020
373 555800 CAMILA CAROLINE ROCHA CHAVES OFICIAL DO MP SALINAS - COMARCA; SALINAS-PJ-01PJ 5.387,19 538,72 0,00 0,00 0,00 0,00 0,00 1.550,00 7.475,91 651,85 581,01 0,00 0,00 1.232,86 6.243,05 31/07/2020
374 445200 CAMILA CONDE ROCHA ANALISTA DO MP CONTAGEM - COMARCA; CONTAGEM-PJ-08PJ 10.069,62 2.013,92 0,00 0,00 0,00 0,00 0,00 2.319,39 14.402,93 1.329,19 2.088,09 0,00 0,00 3.417,28 10.985,65 31/07/2020
375 419900 CAMILA CUNNINGHAM PIMENTA DE PADUA ANALISTA DO MP BELO HORIZONTE - COMARCA; ASSESSORIA PSICOSSOCIAL 12.601,30 2.520,26 0,00 0,00 0,00 0,00 0,00 1.550,00 16.671,56 1.663,37 2.831,64 0,00 0,00 4.495,01 12.176,55 31/07/2020
376 507700 CAMILA ELIZABETH RODRIGUES ANALISTA DO MP BELO HORIZONTE - COMARCA; BH-02PJ FAMILIA-SECRETARIA 10.397,52 1.039,75 0,00 0,00 0,00 0,00 0,00 1.550,00 12.987,27 1.258,10 1.929,91 0,00 0,00 3.188,01 9.799,26 31/07/2020
377 372700 CAMILA FONSECA LIMONGE ANALISTA DO MP BETIM - COMARCA; BETIM-PJ-01PJ 13.011,52 2.602,30 0,00 0,00 0,00 0,00 0,00 2.319,39 17.933,21 1.717,52 2.952,12 0,00 0,00 4.669,64 13.263,57 31/07/2020
378 621300 CAMILA GOLFETO DE SOUSA VALENTE OFICIAL DO MP ESPERA FELIZ - COMARCA; ESPERA FELIZ-PJ-UNPJ 5.217,34 521,73 0,00 0,00 0,00 0,00 0,00 3.420,62 9.159,69 631,30 385,15 0,00 0,00 1.016,45 8.143,24 31/07/2020
379 409800 CAMILA GONCALVES COSTA RIBEIRO ANALISTA DO MP INHAPIM - COMARCA; INHAPIM-PJ-02PJ 10.069,62 2.013,92 0,00 0,00 0,00 0,00 0,00 2.319,39 14.402,93 1.329,19 2.035,95 0,00 0,00 3.365,14 11.037,79 31/07/2020
380 335000 CAMILA GONTIJO DE PAIVA ANALISTA DO MP BELO HORIZONTE - COMARCA; COORD DE CONTROLE DA CONSTITUCIONALIDADE 15.499,20 3.099,84 0,00 0,00 0,00 0,00 0,00 2.319,39 20.918,43 2.045,89 3.630,62 0,00 0,00 5.676,51 15.241,92 31/07/2020
381 547800 CAMILA MATTARELLI DE ABREU E SILVA ANALISTA DO MP BELO HORIZONTE - COMARCA; CAO-VIOLENCIA DOMESTICA E FAMILIAR 8.436,53 843,65 0,00 0,00 0,00 0,00 0,00 1.550,00 10.830,18 1.020,82 1.401,96 0,00 0,00 2.422,78 8.407,40 31/07/2020
382 430000 CANDIDA MARINA COSTA ANALISTA DO MP BELO HORIZONTE - COMARCA; DIVISAO DE DOCUMENTACAO JURIDICA 12.601,30 2.520,26 0,00 0,00 0,00 0,00 0,00 1.550,00 16.671,56 1.663,37 2.831,64 0,00 0,00 4.495,01 12.176,55 31/07/2020
383 614300 CARINA CORTIELHA OFICIAL DO MP BELO HORIZONTE - COMARCA; BH-23PJ CIVEL-SEC EXP CIVEIS 4.817,57 481,76 0,00 0,00 0,00 0,00 0,00 1.550,00 6.849,33 582,93 427,65 0,00 0,00 1.010,58 5.838,75 31/07/2020
384 380400 CARINA DIAS FACANHA DE SOUZA ANALISTA DO MP SANTA RITA DO SAPUCAÍ - COMARCA; SANTA RITA DO SAPUCAI-PJ-SECRETARIA 13.011,52 2.602,30 0,00 0,00 0,00 0,00 0,00 1.550,00 17.163,82 1.717,52 2.952,12 0,00 0,00 4.669,64 12.494,18 31/07/2020
385 255000 CARLA ADRIANA DE MENEZES OFICIAL DO MP BELO HORIZONTE - COMARCA; CENT DE APOIO TEC-SETOR DEF,IDOSO E INFANC 10.069,62 3.020,89 0,00 0,00 0,00 0,00 0,00 1.550,00 14.640,51 1.439,96 2.334,54 0,00 0,00 3.774,50 10.866,01 31/07/2020
386 425100 CARLA ADRIANA DINIZ AMARAL OFICIAL DO MP CONTAGEM - COMARCA; CONTAGEM-PJ-08PJ 7.912,85 1.582,57 0,00 0,00 0,00 0,00 0,00 1.550,00 11.045,42 1.044,50 1.454,64 0,00 0,00 2.499,14 8.546,28 31/07/2020
387 508100 CARLA ALESSANDRA FONSECA ANALISTA DO MP BELO HORIZONTE - COMARCA; CAO-ORDEM ECONOMICA E TRIBUTARIA-SECRETARIA 10.069,62 1.006,96 0,00 0,00 0,00 0,00 0,00 1.550,00 12.626,58 1.218,42 1.841,63 0,00 0,00 3.060,05 9.566,53 31/07/2020
388 607100 CARLA ANGELICA DIAS MIRANDA OFICIAL DO MP JABOTICATUBAS - COMARCA; JABOTICATUBAS-PJ-UNPJ 5.387,19 538,72 0,00 0,00 0,00 0,00 0,00 1.550,00 7.475,91 651,85 424,59 0,00 0,00 1.076,44 6.399,47 31/07/2020
389 351500 CARLA APARECIDA MENDES RAMIRIO OFICIAL DO MP PASSOS - COMARCA; PASSOS-PJ-01PJ 8.858,43 1.771,69 0,00 0,00 0,00 0,00 0,00 1.550,00 12.180,12 1.169,31 1.680,23 0,00 0,00 2.849,54 9.330,58 31/07/2020
390 442800 CARLA GONCALVES COSTA SOALHEIRO ANALISTA DO MP GOVERNADOR VALADARES - COMARCA; GOVERNADOR VALADARES-PJ-11PJ 10.069,62 2.013,92 0,00 0,00 0,00 0,00 0,00 2.319,39 14.402,93 1.329,19 2.035,95 0,00 0,00 3.365,14 11.037,79 31/07/2020
391 321500 CARLA GONCALVES MASSOTE OFICIAL DO MP CAMPO BELO - COMARCA; CAMPO BELO-PJ-01PJ 10.069,62 3.020,89 0,00 0,00 0,00 0,00 0,00 1.550,00 14.640,51 1.439,96 2.334,54 0,00 0,00 3.774,50 10.866,01 31/07/2020
392 429200 CARLA HAUTEQUESTT BECHARA COORDENADOR/ANALISTA BELO HORIZONTE - COMARCA; DIRET DE INFORMACAO E CONHECIMENTO-DINC/CEAF 12.601,30 2.520,26 2.687,03 0,00 0,00 0,00 0,00 1.550,00 19.358,59 1.663,37 3.570,58 0,00 0,00 5.233,95 14.124,64 31/07/2020
393 247500 CARLA MATILDE GUIMARAES DE OLIVEIRA OFICIAL DO MP ITAJUBA - COMARCA; ITAJUBA-PJ-SECRETARIA 10.069,62 4.027,85 0,00 0,00 0,00 0,00 0,00 1.550,00 15.647,47 1.550,72 2.528,86 0,00 0,00 4.079,58 11.567,89 31/07/2020
394 226100 CARLA MERLI DA CONCEICAO ANALISTA DO MP BELO HORIZONTE - COMARCA; CENTRAL DE APOIO TECNICO-SETOR CONTABIL 18.820,14 5.646,04 0,00 0,00 0,00 0,00 0,00 1.550,00 26.016,18 2.691,28 5.066,60 0,00 0,00 7.757,88 18.258,30 31/07/2020
395 181401 CARLO MICHEL GAUDENSI COELHO ANALISTA DO MP BELO HORIZONTE - COMARCA; BH-08PJ JUIZADO ESPECIAL-SECRETARIA 12.204,02 4.881,61 0,00 0,00 0,00 0,00 0,00 1.550,00 18.635,63 1.879,42 3.312,35 0,00 0,00 5.191,77 13.443,86 31/07/2020
396 634000 CARLOS ALBERTO AMORMINO TRIGUEIRO ANALISTA DO MP BELO HORIZONTE - COMARCA; DIRET DE APOIO AS PROCURADORIAS DE JUSTICA 7.421,79 742,18 0,00 0,00 0,00 0,00 0,00 1.575,65 9.739,62 898,04 1.076,63 0,00 0,00 1.974,67 7.764,95 31/07/2020
397 637900 CARLOS ALBERTO DE MOURA OFICIAL DO MP SETE LAGOAS - COMARCA; SETE LAGOAS-PJ-07PJ 4.817,57 481,76 0,00 0,00 0,00 0,00 0,00 2.319,39 7.618,72 582,93 382,40 0,00 0,00 965,33 6.653,39 31/07/2020
398 638700 CARLOS ALBERTO FERREIRA BRAGA ANALISTA DO MP RIBEIRÃO DAS NEVES - COMARCA; SEC PJ EXECUCAO PENAL RIBEIRAO NEVES 6.741,63 674,16 0,00 0,00 0,00 0,00 0,00 1.550,00 8.965,79 671,12 881,15 0,00 0,00 1.552,27 7.413,52 31/07/2020
399 375801 CARLOS ALBERTO ROCHA ANALISTA DO MP ELOI MENDES - COMARCA; ELOI MENDES-PJ-SECRETARIA 9.146,93 914,69 0,00 0,00 0,00 0,00 0,00 1.550,00 11.611,62 1.106,78 1.593,22 0,00 0,00 2.700,00 8.911,62 31/07/2020
400 462800 CARLOS ANDREI SOARES FAGUNDES ANALISTA DO MP MONTES CLAROS - COMARCA; MONTES CLAROS-PJ-09PJ 10.069,62 1.006,96 0,00 0,00 0,00 0,00 0,00 2.319,39 13.395,97 1.218,42 1.789,50 0,00 0,00 3.007,92 10.388,05 31/07/2020
401 370300 CARLOS AUGUSTO BUENO DIAS ASSESSOR BELO HORIZONTE - COMARCA; SUPERINTENDÊNCIA DE ENGENHARIA E ARQUITETURA 0,00 0,00 10.397,52 0,00 0,00 0,00 0,00 1.550,00 11.947,52 713,09 1.379,52 0,00 0,00 2.092,61 9.854,91 31/07/2020
402 505100 CARLOS CEZAR CARVALHO ANALISTA DO MP RIBEIRÃO DAS NEVES - COMARCA; RIBEIRAO DAS NEVES-PJ-04PJ 9.444,70 3.777,88 0,00 0,00 0,00 0,00 0,00 1.550,00 14.772,58 1.454,48 2.262,59 0,00 0,00 3.717,07 11.055,51 31/07/2020
403 195900 CARLOS DE SOUZA FERREIRA OFICIAL DO MP COROMANDEL - COMARCA; COROMANDEL-PJ-UNPJ 10.069,62 8.055,69 0,00 0,00 0,00 0,00 0,00 1.550,00 19.675,31 1.993,78 3.566,81 0,00 0,00 5.560,59 14.114,72 31/07/2020
404 196800 CARLOS EDUARDO DE OLIVEIRA MARINHO OFICIAL DO MP ALPINÓPOLIS - COMARCA; ALPINOPOLIS-PJ-UNPJ 14.790,66 10.353,47 0,00 0,00 0,00 0,00 0,00 1.550,00 26.694,13 2.765,85 5.232,53 0,00 0,00 7.998,38 18.695,75 31/07/2020
405 650800 CARLOS EDUARDO NIZA DA SILVA OFICIAL DO MP IGARAPÉ - COMARCA; IGARAPE-PJ-01PJ 4.238,09 254,29 0,00 0,00 0,00 0,00 0,00 1.550,00 6.042,38 494,16 220,81 0,00 0,00 714,97 5.327,41 31/07/2020
406 491800 CARLOS EDUARDO ROMAN OFICIAL DO MP BARBACENA - COMARCA; BARBACENA-PJ-09PJ 7.421,79 1.484,36 0,00 0,00 0,00 0,00 0,00 1.550,00 10.456,15 979,68 1.310,42 0,00 0,00 2.290,10 8.166,05 31/07/2020
407 299300 CARLOS HENRIQUE BICALHO ANALISTA DO MP BELO HORIZONTE - COMARCA; BH-17PJ PATRIMONIO PUBLICO-SECRETARIA 16.750,82 6.700,33 0,00 0,00 0,00 0,00 0,00 2.319,39 25.770,54 2.579,63 4.870,31 0,00 0,00 7.449,94 18.320,60 31/07/2020
408 205100 CARLOS HENRIQUE ESTEVES OFICIAL DO MP ITAMBACURI - COMARCA; ITAMBACURI-PJ-01PJ 14.790,66 5.916,26 0,00 0,00 0,00 0,00 0,00 1.550,00 22.256,92 2.277,76 4.146,52 0,00 0,00 6.424,28 15.832,64 31/07/2020
409 351600 CARLOS HENRIQUE FELICIO DA FONSECA OFICIAL DO MP JUIZ DE FORA - COMARCA; JUIZ DE FORA-PJ-21PJ 9.444,70 2.833,41 0,00 0,00 0,00 0,00 0,00 1.550,00 13.828,11 1.350,59 2.083,57 0,00 0,00 3.434,16 10.393,95 31/07/2020
410 85400 CARLOS JOSE VIEIRA OFICIAL DO MP BELO HORIZONTE - COMARCA; DIRETORIA DO COLEGIO E DA CAMARA DE PJ 23.757,25 19.005,81 0,00 0,00 0,00 0,00 130,03 2.968,49 45.861,58 3.900,84 7.810,02 7.300,84 0,00 19.011,70 26.849,88 31/07/2020
411 229100 CARLOS MERCES DE OLIVEIRA ANALISTA DO MP BELO HORIZONTE - COMARCA; CENTRAL DE APOIO TECN-SETOR DE MEIO AMBIENTE 18.820,14 7.528,06 0,00 0,00 0,00 0,00 0,00 1.550,00 27.898,20 2.898,30 4.216,85 0,00 0,00 7.115,15 20.783,05 31/07/2020
412 538300 CARLOS RANGEL SILVA DE MELO ANALISTA DO MP BELO HORIZONTE - COMARCA; DIVISAO DE CONTROLE IMOBILIARIO 8.436,53 2.530,96 0,00 0,00 0,00 0,00 0,00 2.319,39 13.286,88 1.206,42 1.814,93 0,00 0,00 3.021,35 10.265,53 31/07/2020
413 265100 CARLOS REIFF MIRANDA ANALISTA DO MP BELO HORIZONTE - COMARCA; BH-19PJ SAUDE-SECRETARIA 150PJ 15.272,02 4.581,61 0,00 0,00 0,00 0,00 0,00 1.550,00 21.403,63 2.183,90 3.989,82 0,00 0,00 6.173,72 15.229,91 31/07/2020
414 305400 CARLOS ROCHA DE SOUZA OFICIAL DO MP MONTALVÂNIA - COMARCA; MONTALVANIA-PJ-SECRETARIA 6.123,79 1.837,14 0,00 0,00 0,00 0,00 0,00 1.550,00 9.510,93 875,70 870,53 0,00 0,00 1.746,23 7.764,70 31/07/2020
415 365100 CARLOS WAGNER SANDER MORAIS COORDENADOR/OFICIAL BELO HORIZONTE - COMARCA; DIRETORIA DE ADMINISTRACAO FINANCEIRA 0,00 2.687,03 13.435,16 29,17 0,00 1.833,04 0,00 1.550,00 19.534,40 1.887,70 3.532,82 0,00 0,00 5.420,52 14.113,88 31/07/2020
416 399900 CARMELITA EVANGELISTA DE SOUZA OFICIAL DO MP JOÃO PINHEIRO - COMARCA; JOAO PINHEIRO-PJ-01PJ 7.663,37 1.532,67 0,00 0,00 0,00 0,00 0,00 1.550,00 10.746,04 1.011,56 1.381,37 0,00 0,00 2.392,93 8.353,11 31/07/2020
417 202000 CARMEN LUCIA MARIZ DE MACEDO OFICIAL DO MP BELO HORIZONTE - COMARCA; DIRETORIA GESTAO COMPRAS LICITACOES 14.324,23 10.026,96 0,00 0,00 0,00 0,00 535,73 7.394,29 32.281,21 2.678,63 4.986,32 0,00 0,00 7.664,95 24.616,26 31/07/2020
418 228500 CAROLINA CHIARELLA DOS SANTOS RIBEIRO ASSESSOR/OFICIAL BELO HORIZONTE - COMARCA; PROCURADORIA-GERAL ADJUNTA INSTITUCIONAL 0,00 3.119,26 10.397,52 0,00 0,00 0,00 0,00 1.550,00 15.066,78 1.206,42 2.411,71 0,00 0,00 3.618,13 11.448,65 31/07/2020
419 446500 CAROLINA COSTA VAL RODRIGUES ANALISTA DO MP CONTAGEM - COMARCA; CONTAGEM-PJ-05PJ 12.204,02 2.440,80 0,00 0,00 0,00 0,00 0,00 1.550,00 16.194,82 1.610,93 2.714,96 0,00 0,00 4.325,89 11.868,93 31/07/2020
420 603501 CAROLINA DOMINGOS BRANDAO RABELLO ANALISTA DO MP CARATINGA - COMARCA; CARATINGA-PJ-01PJ 8.436,53 843,65 0,00 0,00 0,00 0,00 0,00 1.550,00 10.830,18 1.020,82 1.401,96 0,00 0,00 2.422,78 8.407,40 31/07/2020
421 404300 CAROLINA DOS SANTOS VIEIRA ANALISTA DO MP BELO HORIZONTE - COMARCA; BH-08PJ JUIZADO ESPECIAL-SECRETARIA 13.011,52 2.602,30 0,00 0,00 0,00 0,00 0,00 1.550,00 17.163,82 1.717,52 2.847,85 0,00 0,00 4.565,37 12.598,45 31/07/2020
422 551200 CAROLINA LOPES ARANTES MASCARENHAS ANALISTA DO MP BELO HORIZONTE - COMARCA; COORD EST DEF DIR FAM PESSOAS DEFICI IDOSOS 8.436,53 843,65 0,00 0,00 0,00 0,00 0,00 2.319,39 11.599,57 1.020,82 1.297,69 0,00 0,00 2.318,51 9.281,06 31/07/2020
423 622600 CAROLINA LOREDO LOPES CATIZANI OFICIAL DO MP RIBEIRÃO DAS NEVES - COMARCA; RIBEIRAO DAS NEVES-PJ-12PJ 4.817,57 481,76 0,00 0,00 0,00 0,00 0,00 1.550,00 6.849,33 582,93 427,65 0,00 0,00 1.010,58 5.838,75 31/07/2020
424 382200 CAROLINA MENDES CHAVES LIN ANALISTA DO MP BELO HORIZONTE - COMARCA; BH-12PJ JUIZO CRIMINAL-GAB 088PJ 10.069,62 2.013,92 0,00 0,00 0,00 0,00 0,00 2.319,39 14.402,93 1.329,19 2.035,95 0,00 0,00 3.365,14 11.037,79 31/07/2020
425 461900 CAROLINA MURTA TEIXEIRA DIAS ASSESSOR/ANALISTA BELO HORIZONTE - COMARCA; PROCURADOR-GERAL DE JUSTIÇA 0,00 1.260,13 12.601,30 0,00 0,00 0,00 0,00 1.550,00 15.411,43 1.218,42 2.607,47 0,00 0,00 3.825,89 11.585,54 31/07/2020
426 509600 CAROLINA PINTO DE OLIVEIRA SOUZA ANALISTA DO MP MURIAÉ - COMARCA; MURIAE-PJ-01PJ 10.069,62 1.006,96 0,00 0,00 0,00 0,00 0,00 3.472,93 14.549,51 1.218,42 1.685,22 0,00 0,00 2.903,64 11.645,87 31/07/2020
427 629100 CAROLINA RODRIGUES AMARAL ANALISTA DO MP BELO HORIZONTE - COMARCA; PROC. JUSTICA DIR. DIFUSOS E COLETIVOS-SEC 8.170,49 817,05 0,00 0,00 0,00 0,00 0,00 1.550,00 10.537,54 988,63 1.330,34 0,00 0,00 2.318,97 8.218,57 31/07/2020
428 502600 CAROLINA RODRIGUES RUBEN ANALISTA DO MP BELO HORIZONTE - COMARCA; BH-18PJ VIOLENCIA DOMESTICA-SECRETARIA 10.069,62 1.006,96 0,00 0,00 3.692,19 0,00 0,00 3.088,78 17.857,55 1.218,42 2.752,71 0,00 0,00 3.971,13 13.886,42 31/07/2020
429 529600 CAROLINA VAZ DE MELO MAMBRINI ANALISTA DO MP MINAS NOVAS - COMARCA; MINAS NOVAS-PJ-UNPJ 8.436,53 843,65 0,00 0,00 0,00 0,00 0,00 1.550,00 10.830,18 1.020,82 1.401,96 0,00 0,00 2.422,78 8.407,40 31/07/2020
430 619100 CAROLINA ZAKHIA NARDELLI RODRIGUES ANALISTA DO MP NEPOMUCENO - COMARCA; NEPOMUCENO-PJ-UNPJ 8.170,49 817,05 0,00 0,00 0,00 0,00 0,00 2.319,39 11.306,93 988,63 1.330,34 0,00 0,00 2.318,97 8.987,96 31/07/2020
431 517600 CAROLINE ALVES DE OLIVEIRA MULLER ANALISTA DO MP VISCONDE DO RIO BRANCO - COMARCA; VISCONDE DO RIO BRANCO-PJ-01PJ 10.069,62 1.006,96 0,00 0,00 0,00 0,00 0,00 2.319,39 13.395,97 1.218,42 1.789,50 0,00 0,00 3.007,92 10.388,05 31/07/2020
432 373200 CAROLINE ANTUNES RIBEIRO OFICIAL DO MP JACUI - COMARCA; JACUI-PJ-UNPJ 8.579,10 1.715,82 0,00 0,00 0,00 0,00 0,00 1.550,00 11.844,92 1.132,44 1.493,91 0,00 0,00 2.626,35 9.218,57 31/07/2020
433 556800 CAROLINE DE SOUZA CARDOSO DOMINGUES OFICIAL DO MP BRASÍLIA DE MINAS - COMARCA; BRASILIA DE MINAS-PJ-02PJ 5.387,19 538,72 0,00 0,00 0,00 0,00 434,57 6.290,73 12.651,21 651,85 581,01 0,00 0,00 1.232,86 11.418,35 31/07/2020
434 499400 CAROLINE MARQUES DE LOURDES MARZULLO OFICIAL DO MP JUIZ DE FORA - COMARCA; JUIZ DE FORA-PJ-08PJ 7.421,79 742,18 0,00 0,00 0,00 0,00 0,00 2.703,54 10.867,51 898,04 1.128,77 0,00 0,00 2.026,81 8.840,70 31/07/2020
435 616800 CAROLINE MONTEIRO DE BARROS ANALISTA DO MP CONTAGEM - COMARCA; CONTAGEM-PJ-11PJ 8.170,49 817,05 0,00 0,00 0,00 0,00 0,00 1.550,00 10.537,54 988,63 1.330,34 0,00 0,00 2.318,97 8.218,57 31/07/2020
436 618100 CAROLINE VASCONCELOS COSTA LANZA ANALISTA DO MP PARAOPEBA - COMARCA; PARAOPEBA-PJ-UNPJ 8.170,49 817,05 0,00 0,00 0,00 0,00 0,00 4.627,56 13.615,10 988,63 1.330,34 0,00 0,00 2.318,97 11.296,13 31/07/2020
437 604000 CASSIA APARECIDA DA SILVA OFICIAL DO MP PARACATU - COMARCA; PARACATU-PJ-01PJ 5.387,19 538,72 0,00 0,00 0,00 0,00 0,00 1.550,00 7.475,91 651,85 581,01 0,00 0,00 1.232,86 6.243,05 31/07/2020
438 268800 CASSIA BEATRIZ TEIXEIRA OFICIAL DO MP BELO HORIZONTE - COMARCA; COMB CRIMES PRAT POR AG POL MUN-SECRETARIA 12.204,02 3.661,21 0,00 0,00 0,00 0,00 0,00 1.550,00 17.415,23 1.745,18 3.013,65 0,00 0,00 4.758,83 12.656,40 31/07/2020
439 500000 CASSIA DE OLIVEIRA COSTA VIANA ANALISTA DO MP SETE LAGOAS - COMARCA; SETE LAGOAS-PJ-09PJ 10.069,62 5.034,81 0,00 0,00 0,00 0,00 0,00 1.550,00 16.654,43 1.661,49 2.827,45 0,00 0,00 4.488,94 12.165,49 31/07/2020
440 368800 CASSIA LUISA BATISTA MENDONCA WEBER OFICIAL DO MP BELO HORIZONTE - COMARCA; DIVISÃO DE EDUCAÇÃO PARA O CONSUMO 7.421,79 1.484,36 0,00 0,00 0,00 0,00 0,00 1.550,00 10.456,15 979,68 1.310,42 0,00 0,00 2.290,10 8.166,05 31/07/2020
441 622200 CASSIA VAZ DE AZEVEDO LISBOA MARZANO ASSESSOR BELO HORIZONTE - COMARCA; CGMP-SECRETARIA DA CORREGEDORIA-GERAL DO MP 0,00 0,00 3.076,28 0,00 0,00 0,00 0,00 2.319,39 5.395,67 476,70 114,82 0,00 0,00 591,52 4.804,15 31/07/2020
442 121000 CASSIO HENRIQUE AFONSO DA SILVA OFICIAL DO MP BELO HORIZONTE - COMARCA; ASSESS TECNICA DA CORREGEDORIA-GERAL DO MP 16.750,82 11.725,57 0,00 0,00 0,00 0,00 0,00 1.550,00 30.026,39 3.132,40 5.995,96 0,00 0,00 9.128,36 20.898,03 31/07/2020
443 121100 CASSIO MOREIRA DE MIRANDA AGENTE DO MP BELO HORIZONTE - COMARCA; DIVISÃO DE FISCALIZAÇÃO DAS RELAÇÕES DE CONSU 4.376,03 3.500,82 0,00 22,34 0,00 910,81 1.445,27 1.550,00 11.805,27 866,45 854,27 0,00 0,00 1.720,72 10.084,55 31/07/2020
444 512001 CATARINA NATALINO CALIXTO COORDENADOR/ANALISTA BELO HORIZONTE - COMARCA; DIRETORIA GESTAO TRANSPORTES 0,00 1.343,52 13.435,16 0,00 0,00 0,00 0,00 1.550,00 16.328,68 1.082,63 2.896,64 0,00 0,00 3.979,27 12.349,41 31/07/2020
445 606200 CATARINE DE SIQUEIRA DE QUADROS ANALISTA DO MP RIBEIRÃO DAS NEVES - COMARCA; RIBEIRAO DAS NEVES-PJ-09PJ 7.663,37 766,34 0,00 0,00 0,00 0,00 0,00 1.550,00 9.979,71 927,27 1.141,67 0,00 0,00 2.068,94 7.910,77 31/07/2020
446 622300 CECILIA APARECIDA PEREIRA ASSUNCAO OFICIAL DO MP TRÊS PONTAS - COMARCA; TRES PONTAS-PJ-SECRETARIA 5.217,34 521,73 0,00 0,00 0,00 0,00 0,00 2.319,39 8.058,46 631,30 483,14 0,00 0,00 1.114,44 6.944,02 31/07/2020
447 538000 CECILIA FONTES DE MATOS PIMENTEL ANALISTA DO MP PALMA - COMARCA; PALMA-PJ-UNPJ 8.436,53 843,65 0,00 0,00 0,00 0,00 0,00 2.319,39 11.599,57 1.020,82 1.401,96 0,00 0,00 2.422,78 9.176,79 31/07/2020
448 261300 CECILIO ANTONIO CAMPOS DOS REIS ANALISTA DO MP BELO HORIZONTE - COMARCA; AUDITORIA INTERNA 17.413,92 5.224,18 0,00 0,00 0,00 0,00 0,00 1.550,00 24.188,10 2.490,19 4.671,32 0,00 0,00 7.161,51 17.026,59 31/07/2020
449 386400 CEFAS AMORELI DE FIGUEIREDO OFICIAL DO MP CABO VERDE - COMARCA; CABO VERDE-PJ-SECRETARIA 6.123,79 1.224,76 0,00 0,00 0,00 0,00 0,00 1.550,00 8.898,55 808,34 929,20 0,00 0,00 1.737,54 7.161,01 31/07/2020
450 149000 CELIA MAGALHAES CLAROS SOSSI OFICIAL DO MP GOVERNADOR VALADARES - COMARCA; GAECO REGIONAL DE GOVERNADOR VALADARES 15.272,02 10.690,41 0,00 62,46 0,00 3.062,18 0,00 1.550,00 30.637,07 2.855,87 6.270,31 0,00 0,00 9.126,18 21.510,89 31/07/2020
451 421000 CELINA BENEDITA DE SOUZA ALMEIDA OFICIAL DO MP CAMBUÍ - COMARCA; CAMBUI-PJ-01PJ 7.912,85 3.956,43 0,00 0,00 0,00 0,00 0,00 1.550,00 13.419,28 1.305,62 1.983,51 0,00 0,00 3.289,13 10.130,15 31/07/2020
452 252900 CELIO DE MELO CASTOR ANALISTA DO MP BELO HORIZONTE - COMARCA; BH-20PJ ORD ECON TRIBUTARIA-SECRETARIA 17.413,92 5.224,18 0,00 0,00 0,00 0,00 0,00 1.550,00 24.188,10 2.490,19 4.671,32 0,00 0,00 7.161,51 17.026,59 31/07/2020
453 395700 CELIO FERREIRA LIMA OFICIAL DO MP CONTAGEM - COMARCA; CONTAGEM-PJ-07PJ 8.436,53 1.687,31 0,00 0,00 0,00 0,00 0,00 2.319,39 12.443,23 1.113,62 1.556,31 0,00 0,00 2.669,93 9.773,30 31/07/2020
454 281300 CELMA REGINA PEREIRA SANTOS ANALISTA DO MP BELO HORIZONTE - COMARCA; DIVISAO DE DOCUMENTACAO JURIDICA 16.750,82 5.025,25 0,00 0,00 0,00 0,00 0,00 1.550,00 23.326,07 2.395,37 4.460,33 0,00 0,00 6.855,70 16.470,37 31/07/2020
455 535600 CELSO MEDEIROS DE PAIVA OFICIAL DO MP RIO PRETO - COMARCA; RIO PRETO-PJ-SECRETARIA 4.974,42 497,44 0,00 0,00 0,00 0,00 0,00 1.550,00 7.021,86 601,90 417,74 0,00 0,00 1.019,64 6.002,22 31/07/2020
456 367000 CESAR NARVAES DE AVELAR COORDENADOR/OFICIAL BELO HORIZONTE - COMARCA; DIVISAO DE MEMORIA INSTITUCIONAL 0,00 2.363,83 11.819,15 0,00 0,00 0,00 0,00 1.550,00 15.732,98 1.206,18 2.698,64 0,00 0,00 3.904,82 11.828,16 31/07/2020
457 226500 CESAR SILVEIRA BARROUIN OFICIAL DO MP BELO HORIZONTE - COMARCA; DIRETORIA DE ADMINISTRACAO FINANCEIRA 12.204,02 4.881,61 0,00 0,00 0,00 0,00 0,00 1.550,00 18.635,63 1.879,42 3.312,35 0,00 0,00 5.191,77 13.443,86 31/07/2020
458 121400 CEZAR MORENO CONCEICAO TAVARES OFICIAL DO MP BELO HORIZONTE - COMARCA; COORD EST DEF DIR FAM PESSOAS DEFICI IDOSOS 15.272,02 10.690,41 0,00 0,00 0,00 0,00 0,00 2.319,39 28.281,82 2.855,87 5.380,67 0,00 0,00 8.236,54 20.045,28 31/07/2020
459 243800 CHARLES MARTINS MUNIZ OFICIAL DO MP BELO HORIZONTE - COMARCA; LAB TECNOLOGIA CONTRA LAVAGEM DINHEIRO 12.204,02 4.881,61 0,00 0,00 0,00 0,00 0,00 1.100,00 18.185,63 1.879,42 3.312,35 0,00 0,00 5.191,77 12.993,86 31/07/2020
460 193500 CHARLIN CESAR KOURLY OFICIAL DO MP ARAGUARI - COMARCA; ARAGUARI-PJ-07PJ 14.790,66 5.916,26 0,00 0,00 0,00 0,00 0,00 1.550,00 22.256,92 2.277,76 4.198,66 0,00 0,00 6.476,42 15.780,50 31/07/2020
461 385500 CHILLEN PEIXOTO DE MOURA OFICIAL DO MP BELO HORIZONTE - COMARCA; DIVISÃO DE FISCALIZAÇÃO DAS RELAÇÕES DE CONSU 8.436,53 1.687,31 0,00 0,00 0,00 0,00 1.445,27 1.550,00 13.119,11 1.113,62 2.005,90 0,00 0,00 3.119,52 9.999,59 31/07/2020
462 534500 CHRISTIAN DOUGLAS BRITO RUAS OFICIAL DO MP SÃO JOÃO DA PONTE - COMARCA; SAO JOAO DA PONTE-PJ-SECRETARIA 5.387,19 538,72 0,00 0,00 0,00 0,00 0,00 1.550,00 7.475,91 651,85 581,01 0,00 0,00 1.232,86 6.243,05 31/07/2020
463 370600 CHRISTIAN KARINE FELIX PRATES ASSESSOR BELO HORIZONTE - COMARCA; SUPRIN DE PLANEJAMENTO E COORDENACAO 0,00 0,00 10.397,52 0,00 0,00 0,00 0,00 1.550,00 11.947,52 713,09 2.096,36 0,00 0,00 2.809,45 9.138,07 31/07/2020
464 435800 CHRISTIANA BAHIA ANDRADE PINA ANALISTA DO MP BELO HORIZONTE - COMARCA; LABORATORIO TECNOLOGIA INTELIGENCIA 12.601,30 2.520,26 0,00 0,00 0,00 0,00 0,00 2.319,39 17.440,95 1.663,37 2.831,64 0,00 0,00 4.495,01 12.945,94 31/07/2020
465 516800 CHRISTIANE FERREIRA DO NASCIMENTO ANALISTA DO MP ESTRELA DO SUL - COMARCA; ESTRELA DO SUL-PJ-UNPJ 10.069,62 1.006,96 0,00 0,00 0,00 0,00 0,00 1.550,00 12.626,58 1.218,42 1.841,63 0,00 0,00 3.060,05 9.566,53 31/07/2020
466 176000 CHRISTIANE JUNQUEIRA PULITI ANDRADE DE BARROS ASSESSOR BELO HORIZONTE - COMARCA; CAO-VIOLENCIA DOMESTICA E FAMILIAR 0,00 9.157,17 11.446,46 58,00 0,00 2.382,40 0,00 1.550,00 24.594,03 2.266,40 4.796,64 0,00 0,00 7.063,04 17.530,99 31/07/2020
467 319200 CHRISTIANE MARIA DE ASSIS RUSSO OFICIAL DO MP BELO HORIZONTE - COMARCA; CAO-ORDEM ECONOMICA E TRIBUTARIA-SECRETARIA 10.736,08 3.220,82 0,00 0,00 0,00 0,00 0,00 2.319,39 16.276,29 1.535,26 2.494,45 0,00 0,00 4.029,71 12.246,58 31/07/2020
468 510300 CHRISTIANE MARY DE CARVALHO FERREIRA ANALISTA DO MP BELO HORIZONTE - COMARCA; DIRETORIA DE SISTEMAS DE INFORMACAO 10.069,62 1.006,96 0,00 0,00 0,00 0,00 0,00 1.550,00 12.626,58 1.218,42 1.789,50 0,00 0,00 3.007,92 9.618,66 31/07/2020
469 424900 CHRISTIANE PEREIRA TURNER DE ARAUJO OFICIAL DO MP BELO HORIZONTE - COMARCA; CAO-PATRIMONIO PUBLICO 7.912,85 1.582,57 0,00 0,00 0,00 0,00 0,00 2.319,39 11.814,81 1.044,50 1.350,37 0,00 0,00 2.394,87 9.419,94 31/07/2020
470 513700 CHRISTIANE VIEIRA SOARES PEDERSOLI ASSESSOR/ANALISTA BELO HORIZONTE - COMARCA; ASSESSORIA JURIDICA DO PROCON-MG 0,00 1.144,65 11.446,46 0,00 0,00 0,00 0,00 2.319,39 14.910,50 1.218,42 2.258,13 0,00 0,00 3.476,55 11.433,95 31/07/2020
471 412300 CHRYSTIAN MACHADO RIBEIRO ANALISTA DO MP VARGINHA - COMARCA; VARGINHA-PJ-04PJ 12.601,30 2.520,26 0,00 0,00 0,00 0,00 0,00 1.550,00 16.671,56 1.663,37 2.831,64 0,00 0,00 4.495,01 12.176,55 31/07/2020
472 513800 CHRYSTIANE DO NASCIMENTO DE MAGALHAES OFICIAL DO MP UBERLÂNDIA - COMARCA; UBERLANDIA-PJ-10PJ 6.741,63 674,16 0,00 0,00 0,00 0,00 0,00 2.319,39 9.735,18 815,74 841,38 0,00 0,00 1.657,12 8.078,06 31/07/2020
473 497900 CIBELE DE FREITAS SANCHES DIAS ANALISTA DO MP SABARÁ - COMARCA; SABARA-PJ-03PJ 9.444,70 944,47 0,00 0,00 0,00 0,00 0,00 1.550,00 11.939,17 1.142,81 1.621,25 0,00 0,00 2.764,06 9.175,11 31/07/2020
474 500900 CIBELLE SILVA PRADO ALVARENGA ANALISTA DO MP ITANHANDU - COMARCA; ITANHANDU-PJ-UNPJ 10.069,62 1.006,96 0,00 0,00 0,00 0,00 527,98 8.848,60 20.453,16 1.218,42 1.841,63 0,00 0,00 3.060,05 17.393,11 31/07/2020
475 296400 CINTIA APARECIDA MOREIRA NAVES E RODRIGUES ANALISTA DO MP CAMPO BELO - COMARCA; CAMPO BELO-PJ-02PJ 16.750,82 5.025,25 0,00 0,00 0,00 0,00 0,00 1.550,00 23.326,07 2.395,37 4.460,33 0,00 0,00 6.855,70 16.470,37 31/07/2020
476 407900 CINTIA NETO COMELLI ANALISTA DO MP BELO HORIZONTE - COMARCA; CENTRAL DE APOIO TECNICO-SETOR CONTABIL 12.601,30 2.520,26 0,00 0,00 0,00 0,00 0,00 2.319,39 17.440,95 1.663,37 2.779,51 0,00 0,00 4.442,88 12.998,07 31/07/2020
477 304700 CINTIA QUEIROZ OFICIAL DO MP BELO HORIZONTE - COMARCA; OUVIDORIA DO MPMG 10.069,62 3.020,89 0,00 0,00 0,00 0,00 0,00 1.550,00 14.640,51 1.439,96 2.334,54 0,00 0,00 3.774,50 10.866,01 31/07/2020
478 286100 CIRO CANGUSSU CORDEIRO OFICIAL DO MP IPATINGA - COMARCA; IPATINGA-PJ-09PJ 7.421,79 2.226,54 0,00 0,00 0,00 0,00 0,00 2.319,39 11.967,72 1.061,32 1.387,79 0,00 0,00 2.449,11 9.518,61 31/07/2020
479 412500 CLARICE GOMES MAROTTA ANALISTA DO MP BELO HORIZONTE - COMARCA; PROMOT ESTADUAL DE DEF PATRI CULT E TUR DE MG 12.601,30 3.780,39 0,00 0,00 0,00 0,00 0,00 1.550,00 17.931,69 1.801,99 3.140,06 0,00 0,00 4.942,05 12.989,64 31/07/2020
480 605300 CLARISSA AZEVEDO ROCHA OFICIAL DO MP BELO HORIZONTE - COMARCA; ASSESSORIA PSICOSSOCIAL 5.387,19 538,72 0,00 0,00 0,00 0,00 0,00 1.550,00 7.475,91 651,85 581,01 0,00 0,00 1.232,86 6.243,05 31/07/2020
481 308100 CLARISSA DUARTE BELLONI DIRETOR/ANALISTA BELO HORIZONTE - COMARCA; DIRETORIA-GERAL 0,00 7.409,35 24.697,83 0,00 0,00 0,00 470,91 8.994,23 41.572,32 2.505,50 7.218,09 0,00 0,00 9.723,59 31.848,73 31/07/2020
482 497100 CLARISSA ROCHA GUIDI ANALISTA DO MP BELO HORIZONTE - COMARCA; BH-02PJ FAMILIA-SECRETARIA 10.397,52 1.039,75 0,00 0,00 0,00 0,00 0,00 2.319,39 13.756,66 1.258,10 1.877,77 0,00 0,00 3.135,87 10.620,79 31/07/2020
483 641800 CLARISSE TAVARES GONCALVES OFICIAL DO MP BELO HORIZONTE - COMARCA; BH-07PJ 01 TRIBUNAL JURI-SECRETARIA 4.817,57 289,05 0,00 0,00 0,00 0,00 0,00 1.550,00 6.656,62 561,73 386,47 0,00 0,00 948,20 5.708,42 31/07/2020
484 463700 CLAUDIA ADRIANA FERRAO DIAS ANALISTA DO MP SETE LAGOAS - COMARCA; SETE LAGOAS-PJ-06PJ 10.069,62 1.006,96 0,00 0,00 0,00 0,00 0,00 1.550,00 12.626,58 1.218,42 1.841,63 0,00 0,00 3.060,05 9.566,53 31/07/2020
485 415400 CLAUDIA ALMEIDA DE VASCONCELLOS BARROS ASSESSOR/OFICIAL BELO HORIZONTE - COMARCA; DIVISAO DE SERVICOS 0,00 2.079,50 10.397,52 0,00 0,00 0,00 0,00 1.550,00 14.027,02 1.404,36 2.175,04 0,00 0,00 3.579,40 10.447,62 31/07/2020
486 207000 CLAUDIA APARECIDA VILELA MACHADO ANALISTA DO MP BELO HORIZONTE - COMARCA; CENTRAL DE APOIO TECNICO-SETOR CONTABIL 18.820,14 7.528,06 0,00 0,00 0,00 0,00 0,00 1.550,00 27.898,20 2.898,30 5.422,95 0,00 0,00 8.321,25 19.576,95 31/07/2020
487 365700 CLAUDIA BREGUEZ CUNHA ANALISTA DO MP VARGINHA - COMARCA; VARGINHA-PJ-07PJ 14.324,23 2.864,85 0,00 0,00 0,00 0,00 0,00 1.550,00 18.739,08 1.890,80 3.337,67 0,00 0,00 5.228,47 13.510,61 31/07/2020
488 430500 CLAUDIA CECILIA SANTANA VENCESLAU OFICIAL DO MP BELO HORIZONTE - COMARCA; DIR ANALISES TECNOLOGIA INTELIGENCIA 7.912,85 1.582,57 0,00 0,00 0,00 0,00 0,00 1.550,00 11.045,42 1.044,50 1.402,51 0,00 0,00 2.447,01 8.598,41 31/07/2020
489 112400 CLAUDIA CRISTINA FIUZA DE AVELAR AGENTE DO MP BELO HORIZONTE - COMARCA; SERVICO MEDICO-DEPTO PERIC MEDICA SAUDE OCUP 9.752,14 6.826,50 0,00 0,00 0,00 0,00 0,00 1.550,00 18.128,64 1.823,65 3.188,26 0,00 0,00 5.011,91 13.116,73 31/07/2020
490 480400 CLAUDIA GOULART DE SOUZA OFICIAL DO MP PASSOS - COMARCA; PASSOS-PJ-06PJ 7.421,79 1.484,36 0,00 0,00 0,00 0,00 0,00 1.550,00 10.456,15 979,68 1.310,42 0,00 0,00 2.290,10 8.166,05 31/07/2020
491 519800 CLAUDIA HELENA CORREA DE ALMEIDA ANALISTA DO MP BELO HORIZONTE - COMARCA; BH-12PJ JUIZO CRIMINAL-GAB 102PJ 10.069,62 1.006,96 0,00 0,00 0,00 0,00 0,00 1.550,00 12.626,58 1.218,42 1.841,63 0,00 0,00 3.060,05 9.566,53 31/07/2020
492 422100 CLAUDIA IACOMINI CABRAL ANALISTA DO MP BELO HORIZONTE - COMARCA; CENT DE APOIO TEC-SETOR DEF,IDOSO E INFANC 12.601,30 8.820,91 0,00 0,00 0,00 0,00 0,00 1.550,00 22.972,21 2.356,44 4.373,73 0,00 0,00 6.730,17 16.242,04 31/07/2020
493 258200 CLAUDIA LAGE MICHALAROS ANALISTA DO MP BELO HORIZONTE - COMARCA; CENTRAL DE APOIO TECN-SETOR DE MEIO AMBIENTE 17.413,92 12.189,74 0,00 86,97 0,00 3.554,62 0,00 1.550,00 34.795,25 3.256,40 7.219,51 0,00 0,00 10.475,91 24.319,34 31/07/2020
494 284600 CLAUDIA LENI DE FREITAS OFICIAL DO MP CONTAGEM - COMARCA; CONTAGEM-PJ-22PJ 6.123,79 2.449,52 0,00 0,00 0,00 0,00 0,00 1.550,00 10.123,31 943,06 1.228,96 0,00 0,00 2.172,02 7.951,29 31/07/2020
495 433600 CLAUDIA LUIZA SANTIAGO FELICIO ANALISTA DO MP BELO HORIZONTE - COMARCA; CENT DE APOIO TEC-SETOR DEF,IDOSO E INFANC 12.601,30 2.520,26 0,00 0,00 0,00 0,00 0,00 1.550,00 16.671,56 1.663,37 2.727,37 0,00 0,00 4.390,74 12.280,82 31/07/2020
496 317000 CLAUDIA MACHADO ALVES ASSESSOR/OFICIAL BELO HORIZONTE - COMARCA; DIRETORIA DE SISTEMAS DE INFORMACAO 0,00 3.119,26 10.397,52 0,00 0,00 0,00 0,00 1.550,00 15.066,78 1.164,47 2.526,85 0,00 0,00 3.691,32 11.375,46 31/07/2020
497 155300 CLAUDIA MACIEL MIRANDA E BELO OFICIAL DO MP CONGONHAS - COMARCA; CONGONHAS-PJ-02PJ 15.272,02 7.636,01 0,00 0,00 0,00 0,00 0,00 1.550,00 24.458,03 2.519,88 4.633,11 0,00 0,00 7.152,99 17.305,04 31/07/2020
498 242200 CLAUDIA MICHELLE DIAS MUNIZ BALEEIRO OFICIAL DO MP MONTE AZUL - COMARCA; MONTE AZUL-PJ-SECRETARIA 12.204,02 4.881,61 0,00 0,00 0,00 0,00 501,18 7.017,40 24.604,21 1.879,42 3.260,21 0,00 0,00 5.139,63 19.464,58 31/07/2020
499 623000 CLAUDIA PATRICIA SILVA RODRIGUES RAPOSEIRAS OFICIAL DO MP PARÁ DE MINAS - COMARCA; PARA DE MINAS-PJ-02PJ 4.817,57 481,76 0,00 0,00 0,00 0,00 0,00 2.319,39 7.618,72 582,93 382,40 0,00 0,00 965,33 6.653,39 31/07/2020
500 418400 CLAUDIA REGINA MARTINS BONIFACIO OFICIAL DO MP ITUIUTABA - COMARCA; ITUIUTABA-PJ-06PJ 7.912,85 1.582,57 0,00 0,00 0,00 0,00 0,00 1.550,00 11.045,42 1.044,50 1.350,37 0,00 0,00 2.394,87 8.650,55 31/07/2020
501 498300 CLAUDIA SOUTO FARIAS BRAUN OFICIAL DO MP TEÓFILO OTONI - COMARCA; TEOFILO OTONI-PJ-SECRETARIA 6.123,79 612,38 0,00 0,00 0,00 0,00 0,00 1.550,00 8.286,17 740,98 675,04 0,00 0,00 1.416,02 6.870,15 31/07/2020
502 206500 CLAUDIA VALERIA FONSECA ANDRADE ANALISTA DO MP BELO HORIZONTE - COMARCA; BH-23PJ INF-FISC MED SOC FEC 18.820,14 9.410,07 0,00 79,48 0,00 3.264,28 0,00 1.550,00 33.123,97 3.105,32 6.893,95 0,00 0,00 9.999,27 23.124,70 31/07/2020
503 277500 CLAUDIO ANTONIO BORGES BRUNSWICK ALVARES OFICIAL DO MP BELO HORIZONTE - COMARCA; SUPERINTENDENCIA DE RECURSOS HUMANOS 10.069,62 3.020,89 0,00 0,00 0,00 0,00 0,00 1.550,00 14.640,51 1.439,96 2.334,54 0,00 0,00 3.774,50 10.866,01 31/07/2020
504 444800 CLAUDIO ARESIO DO CARMO ANALISTA DO MP SETE LAGOAS - COMARCA; SETE LAGOAS-PJ-01PJ 10.069,62 4.027,85 0,00 0,00 0,00 0,00 0,00 1.550,00 15.647,47 1.550,72 2.528,86 0,00 0,00 4.079,58 11.567,89 31/07/2020
505 541600 CLAUDIO DE OLIVEIRA MELO OFICIAL DO MP CANÁPOLIS - COMARCA; CANAPOLIS-PJ-UNPJ 4.376,03 262,56 0,00 0,00 0,00 0,00 0,00 2.319,39 6.957,98 510,24 207,58 0,00 0,00 717,82 6.240,16 31/07/2020
506 545100 CLAUDIO HENRIQUE MACEDO DE SOUZA FRANSOZO ANALISTA DO MP OURO PRETO - COMARCA; OURO PRETO-PJ-01PJ 8.436,53 843,65 0,00 0,00 0,00 0,00 0,00 2.319,39 11.599,57 1.020,82 1.401,96 0,00 0,00 2.422,78 9.176,79 31/07/2020
507 353500 CLAUDIO HENRIQUE PEDRO DA ROCHA OFICIAL DO MP BELO HORIZONTE - COMARCA; DIVISAO TRANSPORTES 9.444,70 1.888,94 0,00 0,00 0,00 0,00 0,00 1.550,00 12.883,64 1.246,70 1.800,27 0,00 0,00 3.046,97 9.836,67 31/07/2020
508 265800 CLAUDIO KUPIDLOWSKY FERNANDES OFICIAL DO MP BELO HORIZONTE - COMARCA; SECRETARIA DO PROCON-MG 10.069,62 3.020,89 0,00 0,00 0,00 0,00 0,00 1.550,00 14.640,51 1.439,96 1.426,15 0,00 0,00 2.866,11 11.774,40 31/07/2020
509 193600 CLAUDIO LEITE FONTES OFICIAL DO MP ITUIUTABA - COMARCA; ITUIUTABA-PJ-02PJ 8.858,43 3.543,37 0,00 0,00 0,00 0,00 0,00 1.550,00 13.951,80 1.364,20 1.878,61 0,00 0,00 3.242,81 10.708,99 31/07/2020
510 329400 CLAUDIO MARCIO BERNARDES OFICIAL DO MP ITAÚNA - COMARCA; ITAUNA-PJ-03PJ 10.069,62 7.048,73 0,00 0,00 0,00 0,00 0,00 2.319,39 19.437,74 1.883,02 3.268,22 0,00 0,00 5.151,24 14.286,50 31/07/2020
511 270200 CLAUDIO RABELO ALVES OFICIAL DO MP FORMIGA - COMARCA; FORMIGA-PJ-03PJ 10.397,52 3.119,26 0,00 0,00 0,00 0,00 0,00 1.550,00 15.066,78 1.486,85 2.230,32 0,00 0,00 3.717,17 11.349,61 31/07/2020
512 264700 CLAUDIO ROBERTO KFURI DE ARAUJO ANALISTA DO MP BELO HORIZONTE - COMARCA; CENTRAL DE APOIO TECNICO-SETOR DE INFORMATICA 17.413,92 5.224,18 0,00 0,00 0,00 0,00 0,00 1.550,00 24.188,10 2.490,19 4.567,04 0,00 0,00 7.057,23 17.130,87 31/07/2020
513 188600 CLAUDIO SALES OFICIAL DO MP NEPOMUCENO - COMARCA; NEPOMUCENO-PJ-SECRETARIA 14.324,23 11.459,38 0,00 0,00 0,00 0,00 0,00 1.550,00 27.333,61 2.836,20 5.441,18 0,00 0,00 8.277,38 19.056,23 31/07/2020
514 543300 CLAUDIO SILVA DE CARVALHO ANALISTA DO MP CAMPO BELO - COMARCA; CAMPO BELO-PJ-03PJ 7.663,37 766,34 0,00 0,00 0,00 0,00 0,00 1.550,00 9.979,71 927,27 1.141,67 0,00 0,00 2.068,94 7.910,77 31/07/2020
515 160700 CLAUDIO VICENTE HESS ASSESSOR BELO HORIZONTE - COMARCA; CENTRAL DE APOIO TECNICO-SETOR DE INFORMATICA 0,00 6.717,58 13.435,16 0,00 0,00 0,00 0,00 1.550,00 21.702,74 713,09 4.674,77 0,00 0,00 5.387,86 16.314,88 31/07/2020
516 312900 CLAUDIO VIEIRA FIRPE OFICIAL DO MP BELO HORIZONTE - COMARCA; CENTRO CERIMONIAL 9.752,14 2.925,64 0,00 0,00 0,00 0,00 0,00 2.319,39 14.997,17 1.394,56 2.233,53 0,00 0,00 3.628,09 11.369,08 31/07/2020
517 634100 CLEA CRISTINA GUERRA DE FREITAS COSTA OFICIAL DO MP BELO HORIZONTE - COMARCA; BH-18PJ VIOLENCIA DOMESTICA-SECRETARIA 4.817,57 481,76 0,00 0,00 0,00 0,00 0,00 2.319,39 7.618,72 582,93 382,40 0,00 0,00 965,33 6.653,39 31/07/2020
518 653100 CLEBER SOUZA SCALIONI ASSESSOR BELO HORIZONTE - COMARCA; CENTRAL DE APOIO TECNICO-SETOR CONTABIL 0,00 0,00 8.170,49 0,00 0,00 0,00 0,00 1.550,00 9.720,49 713,09 1.483,92 0,00 0,00 2.197,01 7.523,48 31/07/2020
519 459200 CLEIA ZILLE PEREIRA ANALISTA DO MP BELO HORIZONTE - COMARCA; ASSESS TECNICO-JUR JUNTO AS PROC. DE JUST 10.069,62 1.006,96 0,00 0,00 0,00 0,00 0,00 1.550,00 12.626,58 1.218,42 1.841,63 0,00 0,00 3.060,05 9.566,53 31/07/2020
520 481800 CLEIDE CARDOSO DA SILVA ANALISTA DO MP MANHUAÇU - COMARCA; MANHUACU-PJ-04PJ 10.069,62 1.006,96 0,00 0,00 0,00 0,00 0,00 1.550,00 12.626,58 1.218,42 1.737,36 0,00 0,00 2.955,78 9.670,80 31/07/2020
521 347600 CLEIDIMAR DE OLIVEIRA SILVA OFICIAL DO MP PATOS DE MINAS - COMARCA; PATOS DE MINAS-PJ-07PJ 8.579,10 2.573,73 0,00 0,00 0,00 0,00 0,00 1.550,00 12.702,83 1.226,81 1.651,75 0,00 0,00 2.878,56 9.824,27 31/07/2020
522 396500 CLEIDISON BATISTA DE ANDRADE OFICIAL DO MP RESPLENDOR - COMARCA; RESPLENDOR-PJ-UNPJ 6.529,10 1.305,82 0,00 0,00 2.611,64 0,00 0,00 2.319,39 12.765,95 861,84 1.662,16 0,00 0,00 2.524,00 10.241,95 31/07/2020
523 535100 CLEISON ALVES DA SILVA ANALISTA DO MP BOA ESPERANÇA - COMARCA; BOA ESPERANCA-PJ-01PJ 8.436,53 843,65 0,00 0,00 0,00 0,00 0,00 1.550,00 10.830,18 1.020,82 1.297,69 0,00 0,00 2.318,51 8.511,67 31/07/2020
524 298100 CLEONICE AUGUSTA BARROS DE OLIVEIRA ANALISTA DO MP JUIZ DE FORA - COMARCA; JUIZ DE FORA-PJ-08PJ 16.750,82 5.025,25 0,00 0,00 0,00 0,00 0,00 1.550,00 23.326,07 2.395,37 4.460,33 0,00 0,00 6.855,70 16.470,37 31/07/2020
525 114300 CLERES PEREIRA DA SILVA JUNIOR ASSESSOR BELO HORIZONTE - COMARCA; GAECO - SECRETARIA 0,00 2.568,16 5.136,32 0,00 0,00 0,00 0,00 1.550,00 9.254,48 713,09 864,16 0,00 0,00 1.577,25 7.677,23 31/07/2020
526 264100 CLETO HENRIQUE ANDRADE SILVA ANALISTA DO MP BELO HORIZONTE - COMARCA; DIRETORIA DE SISTEMAS DE INFORMACAO 17.413,92 5.224,18 0,00 0,00 0,00 0,00 0,00 1.550,00 24.188,10 2.490,19 4.567,04 0,00 0,00 7.057,23 17.130,87 31/07/2020
527 334400 CLEUBA DE OLIVEIRA BARCELOS GONCALVES OFICIAL DO MP DIVINÓPOLIS - COMARCA; COORD REG SAUDE MACRORREGIAO SANITARIA OESTE 10.069,62 3.020,89 0,00 0,00 0,00 0,00 0,00 1.550,00 14.640,51 1.439,96 2.230,27 0,00 0,00 3.670,23 10.970,28 31/07/2020
528 347500 CLEUSA CORDEIRO DA MATA PIMENTA OFICIAL DO MP CAMPO BELO - COMARCA; CAMPO BELO-PJ-02PJ 9.146,93 7.317,55 0,00 44,75 0,00 1.959,02 0,00 1.550,00 20.018,25 1.811,09 3.554,10 0,00 0,00 5.365,19 14.653,06 31/07/2020
529 510200 CLEZIO SALES SILVA OFICIAL DO MP BRASÓPOLIS - COMARCA; BRASOPOLIS-PJ-UNPJ 5.562,64 556,26 0,00 0,00 0,00 0,00 0,00 2.319,39 8.438,29 673,08 628,24 0,00 0,00 1.301,32 7.136,97 31/07/2020
530 323000 CLOTILDE DE PADUA VIEIRA OFICIAL DO MP BELO HORIZONTE - COMARCA; BH-19PJ SAUDE-SECRETARIA 129PJ 7.187,72 2.156,32 0,00 0,00 0,00 0,00 0,00 1.550,00 10.894,04 1.027,84 1.417,60 0,00 0,00 2.445,44 8.448,60 31/07/2020
531 285200 CLOVIS ANDRE LUDTKE OFICIAL DO MP BELO HORIZONTE - COMARCA; DIVISAO DE MANUTENCAO PREDIAL 10.069,62 3.020,89 0,00 0,00 0,00 0,00 0,00 1.550,00 14.640,51 1.439,96 2.334,54 0,00 0,00 3.774,50 10.866,01 31/07/2020
532 381100 CONCEICAO APARECIDA TEIXEIRA ARANTES ANALISTA DO MP BELO HORIZONTE - COMARCA; BH-23PJ INFRACIONAL-ASS JURIDICA 13.435,16 2.687,03 0,00 0,00 0,00 0,00 3.019,63 8.123,38 27.265,20 2.047,08 3.633,25 0,00 0,00 5.680,33 21.584,87 31/07/2020
533 249900 CONSTANTINO CEZAR GOMES MOTA OFICIAL DO MP MONTES CLAROS - COMARCA; COORD REG BACIA RIOS VERDE GRANDE E PARDO 9.146,93 2.744,08 0,00 0,00 0,00 0,00 0,00 2.319,39 14.210,40 1.308,01 1.936,69 0,00 0,00 3.244,70 10.965,70 31/07/2020
534 481000 CRISHMA ANALIA LOMBELLO ANALISTA DO MP JUIZ DE FORA - COMARCA; JUIZ DE FORA-PJ-13PJ 10.069,62 1.006,96 0,00 0,00 0,00 0,00 0,00 1.550,00 12.626,58 1.218,42 1.789,50 0,00 0,00 3.007,92 9.618,66 31/07/2020
535 523900 CRISTHYANE BAZOLI COSTA GUEDES COUTO OFICIAL DO MP BELO HORIZONTE - COMARCA; BH-04PJ JUIZO REG PÚBLICOS-SECRETARIA 6.741,63 674,16 0,00 0,00 0,00 0,00 0,00 1.550,00 8.965,79 815,74 945,65 0,00 0,00 1.761,39 7.204,40 31/07/2020
536 187000 CRISTIAN DAYVSON EVANGELISTA OFICIAL DO MP JUIZ DE FORA - COMARCA; JUIZ DE FORA-PJ-13PJ 14.324,23 5.729,69 0,00 0,00 0,00 0,00 0,00 1.550,00 21.603,92 2.205,93 3.986,70 0,00 0,00 6.192,63 15.411,29 31/07/2020
537 319800 CRISTIANA GONCALVES DOS SANTOS GUSMAO OFICIAL DO MP SETE LAGOAS - COMARCA; SETE LAGOAS-PJ-10PJ 9.146,93 2.744,08 0,00 0,00 3.963,67 0,00 0,00 1.550,00 17.404,68 1.308,01 3.130,97 0,00 0,00 4.438,98 12.965,70 31/07/2020
538 520600 CRISTIANA JANAINA BARBOZA JUVENCIO DOS SANTOS ANALISTA DO MP BELO HORIZONTE - COMARCA; BH-02PJ FAMILIA-SECRETARIA 10.069,62 1.006,96 0,00 0,00 0,00 0,00 0,00 1.550,00 12.626,58 1.218,42 1.841,63 0,00 0,00 3.060,05 9.566,53 31/07/2020
539 195600 CRISTIANA SOARES HALABI OFICIAL DO MP UBERABA - COMARCA; UBERABA-PJ-01PJ 14.324,23 5.729,69 0,00 0,00 0,00 0,00 0,00 1.550,00 21.603,92 2.205,93 4.038,84 0,00 0,00 6.244,77 15.359,15 31/07/2020
540 218900 CRISTIANE ALVES BELLES OFICIAL DO MP JUIZ DE FORA - COMARCA; JUIZ DE FORA-PJ-10PJ 6.123,79 1.837,14 0,00 0,00 0,00 0,00 0,00 2.703,54 10.664,47 875,70 974,80 0,00 0,00 1.850,50 8.813,97 31/07/2020
541 263600 CRISTIANE CARVALHO COUTINHO OFICIAL DO MP BELO HORIZONTE - COMARCA; BH-23PJ INFRACIONAL-SEC EXP 10.069,62 3.020,89 0,00 0,00 0,00 0,00 0,00 1.550,00 14.640,51 1.439,96 2.282,40 0,00 0,00 3.722,36 10.918,15 31/07/2020
542 541000 CRISTIANE COELHO ALVES OFICIAL DO MP ITABIRA - COMARCA; ITABIRA-PJ-03PJ 4.974,42 497,44 0,00 0,00 0,00 0,00 0,00 1.550,00 7.021,86 601,90 417,74 0,00 0,00 1.019,64 6.002,22 31/07/2020
543 441700 CRISTIANE CORRADO DE ANDRADE ANALISTA DO MP BELO HORIZONTE - COMARCA; DIRETORIA DE SISTEMAS DE INFORMACAO 12.601,30 2.520,26 0,00 0,00 0,00 0,00 0,00 1.550,00 16.671,56 1.663,37 2.831,64 0,00 0,00 4.495,01 12.176,55 31/07/2020
544 375100 CRISTIANE DAS DORES ERCIO DE LIMA OFICIAL DO MP GOVERNADOR VALADARES - COMARCA; COOR REG INCLUSAO MOBILIZ VALE DO RIO DOCE 8.170,49 1.634,10 0,00 0,00 0,00 0,00 0,00 1.550,00 11.354,59 1.078,50 1.530,31 0,00 0,00 2.608,81 8.745,78 31/07/2020
545 178800 CRISTIANE DE LIMA HOSKEN OFICIAL DO MP BELO HORIZONTE - COMARCA; BH-14PJ DEFESA CONSUMIDOR-GAB 110PJ 14.790,66 5.916,26 0,00 0,00 0,00 0,00 0,00 1.550,00 22.256,92 2.277,76 4.094,38 0,00 0,00 6.372,14 15.884,78 31/07/2020
546 494000 CRISTIANE DE MELO MARQUEZ OLIVEIRA ANALISTA DO MP UBERLÂNDIA - COMARCA; UBERLANDIA-PJ-06PJ 10.736,08 1.073,61 0,00 0,00 0,00 0,00 0,00 3.088,78 14.898,47 1.299,07 2.021,06 0,00 0,00 3.320,13 11.578,34 31/07/2020
547 266100 CRISTIANE DE OLIVEIRA CASTRO OFICIAL DO MP BELO HORIZONTE - COMARCA; BH-14PJ DEFESA CONSUMIDOR-SECRETARIA 12.204,02 3.661,21 0,00 0,00 0,00 0,00 1.445,27 1.550,00 18.860,50 1.745,18 3.306,83 0,00 0,00 5.052,01 13.808,49 31/07/2020
548 329500 CRISTIANE DOS REIS SILVA OFICIAL DO MP ARAXÁ - COMARCA; ARAXA-PJ-04PJ 9.146,93 2.744,08 0,00 0,00 0,00 0,00 0,00 1.550,00 13.441,01 1.308,01 1.936,69 0,00 0,00 3.244,70 10.196,31 31/07/2020
549 301600 CRISTIANE GODINHO PIRES ANALISTA DO MP BETIM - COMARCA; BETIM-PJ-07PJ 16.112,82 4.833,85 0,00 0,00 0,00 0,00 0,00 1.550,00 22.496,67 2.304,13 4.257,34 0,00 0,00 6.561,47 15.935,20 31/07/2020
550 406100 CRISTIANE GONCALVES CHAVES ANALISTA DO MP BELO HORIZONTE - COMARCA; BH-14PJ DEFESA CONSUMIDOR-GAB 112PJ 13.011,52 3.903,46 0,00 0,00 0,00 0,00 0,00 1.550,00 18.464,98 1.860,65 3.270,58 0,00 0,00 5.131,23 13.333,75 31/07/2020
551 487600 CRISTIANE LOPES DE OLIVEIRA OFICIAL DO MP DIVINÓPOLIS - COMARCA; DIVINOPOLIS-PJ-03PJ 6.123,79 612,38 0,00 0,00 0,00 0,00 0,00 1.550,00 8.286,17 740,98 779,32 0,00 0,00 1.520,30 6.765,87 31/07/2020
552 502500 CRISTIANE MACIEL DE OLIVEIRA GOMES ANALISTA DO MP JUIZ DE FORA - COMARCA; JUIZ DE FORA-PJ-05PJ 10.069,62 1.006,96 0,00 0,00 0,00 0,00 0,00 2.319,39 13.395,97 1.218,42 1.841,63 0,00 0,00 3.060,05 10.335,92 31/07/2020
553 285500 CRISTIANE MAGALHAES LOURENCO ANALISTA DO MP BELO HORIZONTE - COMARCA; CENTRAL DE APOIO TECNICO-SETOR CONTABIL 16.750,82 5.025,25 0,00 0,00 0,00 0,00 0,00 1.550,00 23.326,07 2.395,37 4.408,20 0,00 0,00 6.803,57 16.522,50 31/07/2020
554 536500 CRISTIANE MICHELE DE SOUZA ANALISTA DO MP BARÃO DE COCAIS - COMARCA; BARAO DE COCAIS-PJ-UNPJ 8.436,53 843,65 0,00 0,00 0,00 0,00 0,00 2.319,39 11.599,57 1.020,82 1.297,69 0,00 0,00 2.318,51 9.281,06 31/07/2020
555 346600 CRISTIANE NOGUEIRA ANDRADE ANALISTA DO MP BELO HORIZONTE - COMARCA; CENTRAL DE APOIO TECNICO-SETOR CONTABIL 14.790,66 2.958,13 0,00 0,00 0,00 0,00 0,00 1.550,00 19.298,79 1.952,37 3.474,66 0,00 0,00 5.427,03 13.871,76 31/07/2020
556 234000 CRISTIANE OLIVEIRA TOSTES OFICIAL DO MP JUIZ DE FORA - COMARCA; JUIZ DE FORA-PJ-08PJ 13.011,52 3.903,46 0,00 0,00 0,00 0,00 0,00 2.319,39 19.234,37 1.860,65 3.270,58 0,00 0,00 5.131,23 14.103,14 31/07/2020
557 445800 CRISTIANE ORZIL COSTA OFICIAL DO MP SANTA LUZIA - COMARCA; SANTA LUZIA-PJ-05PJ 6.123,79 1.224,76 0,00 0,00 0,00 0,00 0,00 2.319,39 9.667,94 808,34 929,20 0,00 0,00 1.737,54 7.930,40 31/07/2020
558 616100 CRISTIANE PAES RODRIGUES MARCICANO ANALISTA DO MP CATAGUASES - COMARCA; CATAGUASES-PJ-05PJ 7.421,79 742,18 0,00 0,00 0,00 0,00 0,00 3.088,78 11.252,75 898,04 1.128,77 0,00 0,00 2.026,81 9.225,94 31/07/2020
559 612300 CRISTIANE RIBEIRO DOS REIS ARCANJO OFICIAL DO MP BELO HORIZONTE - COMARCA; DIRETORIA DE PAGAMENTO DE PESSOAL-DPAG 5.217,34 521,73 0,00 0,00 0,00 0,00 0,00 0,00 5.739,07 631,30 431,00 0,00 0,00 1.062,30 4.676,77 31/07/2020
560 257700 CRISTIANE RODRIGUES PAES NUNES ANALISTA DO MP BELO HORIZONTE - COMARCA; BH-22PJ PES COM DEF E IDOSOS-ORIENTACAO PSIC 16.750,82 5.025,25 0,00 0,00 0,00 0,00 0,00 2.319,39 24.095,46 2.395,37 4.408,20 0,00 0,00 6.803,57 17.291,89 31/07/2020
561 510800 CRISTIANE SANTOS FERNANDES ORNELES ANALISTA DO MP BELO HORIZONTE - COMARCA; COORD ESTADUAL DAS PJS DE HAB. E URBANISMO 10.069,62 1.006,96 0,00 0,00 0,00 0,00 0,00 1.550,00 12.626,58 1.218,42 1.841,63 0,00 0,00 3.060,05 9.566,53 31/07/2020
562 535701 CRISTIANE SANTOS MIRANDA ANALISTA DO MP BETIM - COMARCA; BETIM-PJ-12PJ 7.187,72 431,26 0,00 0,00 0,00 0,00 0,00 1.550,00 9.168,98 838,09 943,25 0,00 0,00 1.781,34 7.387,64 31/07/2020
563 536200 CRISTIANO DE OLIVEIRA ANALISTA DO MP CONCEIÇÃO DO MATO DENTRO - COMARCA; CONCEICAO DO MATO DENTRO-PJ-UNPJ 9.146,93 914,69 0,00 0,00 0,00 0,00 0,00 2.447,63 12.509,25 1.106,78 1.541,08 0,00 0,00 2.647,86 9.861,39 31/07/2020
564 477400 CRISTIANO SOARES ELEUTERIO ANALISTA DO MP BELO HORIZONTE - COMARCA; BH-17PJ PATRIMONIO PUBLICO-SECRETARIA 10.736,08 1.073,61 0,00 0,00 0,00 0,00 0,00 1.550,00 13.359,69 1.299,07 2.021,06 0,00 0,00 3.320,13 10.039,56 31/07/2020
565 449400 CRISTIANO TEIXEIRA RODRIGUES LANA ANALISTA DO MP BELO HORIZONTE - COMARCA; ASSESS TECNICO-JUR JUNTO AS PROC. DE JUST 10.069,62 2.013,92 0,00 0,00 0,00 0,00 0,00 1.550,00 13.633,54 1.329,19 2.088,09 0,00 0,00 3.417,28 10.216,26 31/07/2020
566 239400 CRISTINA DE FATIMA CRUZ E SILVA OFICIAL DO MP MONTE SANTO DE MINAS - COMARCA; MONTE SANTO DE MINAS-PJ-SECRETARIA 12.204,02 3.661,21 0,00 0,00 0,00 0,00 0,00 1.550,00 17.415,23 1.745,18 3.013,65 0,00 0,00 4.758,83 12.656,40 31/07/2020
567 544000 CRISTINA DE OLIVEIRA TERRA ANALISTA DO MP MATOZINHOS - COMARCA; MATOZINHOS-PJ-01PJ 8.436,53 843,65 0,00 0,00 0,00 0,00 0,00 1.550,00 10.830,18 1.020,82 1.401,96 0,00 0,00 2.422,78 8.407,40 31/07/2020
568 356800 CRISTINA DE PINHO BARROSO OFICIAL DO MP SABINÓPOLIS - COMARCA; SABINOPOLIS-PJ-UNPJ 7.421,79 2.226,54 0,00 0,00 0,00 0,00 0,00 2.319,39 11.967,72 1.061,32 1.387,79 0,00 0,00 2.449,11 9.518,61 31/07/2020
569 649500 CRISTINA DO DIVINO ESPIRITO SANTOS OFICIAL DO MP DIVINÓPOLIS - COMARCA; DIVINOPOLIS-PJ-12PJ 4.665,64 279,94 0,00 0,00 0,00 0,00 0,00 1.550,00 6.495,58 544,01 311,57 0,00 0,00 855,58 5.640,00 31/07/2020
570 348201 CRISTINA MARIA DA SILVA ANALISTA DO MP PATOS DE MINAS - COMARCA; PATOS DE MINAS-PJ-07PJ 10.069,62 2.013,92 0,00 0,00 0,00 0,00 0,00 2.319,39 14.402,93 1.329,19 2.088,09 0,00 0,00 3.417,28 10.985,65 31/07/2020
571 434900 CRISTINA MELO DE MADUREIRA ANALISTA DO MP BELO HORIZONTE - COMARCA; BH-07PJ 01 TRIBUNAL JURI-SECRETARIA 12.601,30 2.520,26 0,00 0,00 0,00 0,00 0,00 1.550,00 16.671,56 1.663,37 2.831,64 0,00 0,00 4.495,01 12.176,55 31/07/2020
572 307700 CRISTINA TEIXEIRA MARQUES OFICIAL DO MP BELO HORIZONTE - COMARCA; CENTRAL DE APOIO TECNICO-SETOR CONTABIL 8.579,10 2.573,73 0,00 0,00 0,00 0,00 0,00 1.550,00 12.702,83 1.226,81 1.860,30 0,00 0,00 3.087,11 9.615,72 31/07/2020
573 265300 CRISTOVAO SANCHES DE MEDEIROS ANALISTA DO MP BELO HORIZONTE - COMARCA; DIRETORIA DE CONTABILIDADE 15.272,02 4.581,61 0,00 0,00 0,00 0,00 0,00 1.550,00 21.403,63 2.183,90 3.989,82 0,00 0,00 6.173,72 15.229,91 31/07/2020
574 349800 CROZEIR LUIZ DA SILVA OFICIAL DO MP UNAÍ - COMARCA; UNAI-PJ-SECRETARIA 8.579,10 1.715,82 0,00 0,00 0,00 0,00 0,00 3.055,62 13.350,54 1.132,44 1.598,18 0,00 0,00 2.730,62 10.619,92 31/07/2020
575 490500 CYNTHIA CRISTINA DE SOUZA OLIVEIRA VALENTE ANALISTA DO MP BELO HORIZONTE - COMARCA; BH-09PJ AUDITORIA MILITAR-SECRETARIA 10.069,62 1.006,96 0,00 0,00 0,00 0,00 0,00 1.550,00 12.626,58 1.218,42 1.841,63 0,00 0,00 3.060,05 9.566,53 31/07/2020
576 389800 CYNTHIA GARIGLIO DOS SANTOS OFICIAL DO MP PERDIZES - COMARCA; PERDIZES-PJ-SECRETARIA 6.323,20 1.264,64 0,00 0,00 0,00 0,00 0,00 2.319,39 9.907,23 834,66 831,35 0,00 0,00 1.666,01 8.241,22 31/07/2020
577 335101 CYNTHIA GONTIJO D ASSUNCAO ANALISTA DO MP BELO HORIZONTE - COMARCA; PROC. JUSTICA DIR. DIFUSOS E COLETIVOS-SEC 10.069,62 1.006,96 0,00 0,00 0,00 0,00 0,00 2.319,39 13.395,97 1.218,42 1.841,63 0,00 0,00 3.060,05 10.335,92 31/07/2020
578 154000 CYNTHIA LOPES DOS SANTOS LAGES ASSESSOR BELO HORIZONTE - COMARCA; PROCURADOR-GERAL DE JUSTICA- GABINETE 0,00 9.404,62 13.435,16 64,30 0,00 2.640,96 0,00 1.550,00 27.095,04 2.512,38 5.411,58 0,00 0,00 7.923,96 19.171,08 31/07/2020
579 269700 CYNTIA ROCHA CAVALCANTI OFICIAL DO MP UBERLÂNDIA - COMARCA; UBERLANDIA-PJ-06PJ 12.204,02 3.661,21 0,00 0,00 0,00 0,00 0,00 2.319,39 18.184,62 1.745,18 3.013,65 0,00 0,00 4.758,83 13.425,79 31/07/2020
580 278000 DAIRTON LOPES MARTINS FILHO COORDENADOR/ANALISTA BELO HORIZONTE - COMARCA; DIRETORIA DE SISTEMAS DE INFORMACAO 0,00 4.030,55 13.435,16 0,00 0,00 0,00 0,00 1.550,00 19.015,71 1.439,96 3.537,72 0,00 0,00 4.977,68 14.038,03 31/07/2020
581 392700 DALIANA CHAVES IBRAIM MARINHO OFICIAL DO MP ITAÚNA - COMARCA; ITAUNA-PJ-04PJ 6.961,05 1.392,21 0,00 0,00 0,00 0,00 0,00 1.550,00 9.903,26 918,86 1.175,10 0,00 0,00 2.093,96 7.809,30 31/07/2020
582 558101 DALLEY TASSIA SILVA ANALISTA DO MP MORADA NOVA DE MINAS - COMARCA; MORADA NOVA DE MINAS-PJ-UNPJ 8.170,49 817,05 0,00 0,00 0,00 0,00 0,00 3.088,78 12.076,32 988,63 1.226,07 0,00 0,00 2.214,70 9.861,62 31/07/2020
583 476700 DALTON DAUD ANALISTA DO MP ARAGUARI - COMARCA; ARAGUARI-PJ-05PJ 10.069,62 1.006,96 0,00 0,00 0,00 0,00 0,00 1.550,00 12.626,58 1.218,42 1.737,36 0,00 0,00 2.955,78 9.670,80 31/07/2020
584 426900 DANIEL ALVES DA SILVA OFICIAL DO MP BELO HORIZONTE - COMARCA; DIVISAO TRANSPORTES 6.123,79 1.224,76 0,00 0,00 0,00 0,00 0,00 1.550,00 8.898,55 808,34 824,92 0,00 0,00 1.633,26 7.265,29 31/07/2020
585 122000 DANIEL ANTONIO VIEIRA OFICIAL DO MP ENTRE-RIOS DE MINAS - COMARCA; ENTRE RIOS DE MINAS-PJ-SECRETARIA 10.069,62 8.055,69 0,00 0,00 0,00 0,00 0,00 1.550,00 19.675,31 1.993,78 3.358,26 0,00 0,00 5.352,04 14.323,27 31/07/2020
586 411000 DANIEL FERREIRA DA SILVA ANALISTA DO MP GOVERNADOR VALADARES - COMARCA; GOVERNADOR VALADARES-PJ-15PJ 12.204,02 3.661,21 0,00 0,00 5.288,41 0,00 523,55 8.030,87 29.708,06 1.745,18 4.311,55 0,00 0,00 6.056,73 23.651,33 31/07/2020
587 309000 DANIEL GOMES DOS SANTOS ANALISTA DO MP POÇOS DE CALDAS - COMARCA; POCOS DE CALDAS-PJ-03PJ 15.499,20 4.649,76 0,00 0,00 0,00 0,00 0,00 1.550,00 21.698,96 2.216,39 4.062,10 0,00 0,00 6.278,49 15.420,47 31/07/2020
588 554500 DANIEL GOMES PEREIRA OFICIAL DO MP NANUQUE - COMARCA; NANUQUE-PJ-02PJ 5.387,19 538,72 0,00 0,00 0,00 0,00 0,00 1.550,00 7.475,91 651,85 581,01 0,00 0,00 1.232,86 6.243,05 31/07/2020
589 453000 DANIEL GONCALVES PEREIRA ANALISTA DO MP UNAÍ - COMARCA; UNAI-PJ-02PJ 10.069,62 2.013,92 0,00 0,00 0,00 0,00 0,00 2.703,54 14.787,08 1.329,19 2.088,09 0,00 0,00 3.417,28 11.369,80 31/07/2020
590 495500 DANIEL GUIMARAES CABRAL OFICIAL DO MP BELO HORIZONTE - COMARCA; BH-17PJ PATRIMONIO PUBLICO-SECRETARIA 6.123,79 612,38 0,00 0,00 0,00 0,00 0,00 1.550,00 8.286,17 740,98 779,32 0,00 0,00 1.520,30 6.765,87 31/07/2020
591 442900 DANIEL GUIMARAES GONCALVES ANALISTA DO MP UBERLÂNDIA - COMARCA; UBERLANDIA-PJ-03PJ 12.204,02 2.440,80 0,00 0,00 0,00 0,00 0,00 1.550,00 16.194,82 1.610,93 2.714,96 0,00 0,00 4.325,89 11.868,93 31/07/2020
592 655900 DANIEL LUIZ DA SILVA ASSESSOR BELO HORIZONTE - COMARCA; DIV FISCAL ADM CONT TERCEIRIZACAO 0,00 0,00 3.076,28 0,00 0,00 0,00 0,00 1.550,00 4.626,28 476,70 200,14 0,00 0,00 676,84 3.949,44 31/07/2020
593 464600 DANIEL PIACENTINI STIVANIN ANALISTA DO MP ANDRADAS - COMARCA; ANDRADAS-PJ-02PJ 10.069,62 1.006,96 0,00 0,00 0,00 0,00 0,00 1.550,00 12.626,58 1.218,42 1.841,63 0,00 0,00 3.060,05 9.566,53 31/07/2020
594 417000 DANIEL QUEIROZ FERREIRA ANALISTA DO MP SÃO SEBASTIÃO DO PARAÍSO - COMARCA; SAO SEBASTIAO DO PARAISO-PJ-05PJ 12.204,02 2.440,80 0,00 0,00 0,00 0,00 0,00 1.550,00 16.194,82 1.610,93 2.714,96 0,00 0,00 4.325,89 11.868,93 31/07/2020
595 396700 DANIEL SILVA CARNEVALLI DIRETOR/ANALISTA BELO HORIZONTE - COMARCA; SUPERINTENDENCIA DE TECNOLOGIA DA INFORMACAO 0,00 3.482,78 17.413,92 0,00 0,00 0,00 0,00 2.319,39 23.216,09 1.717,52 4.404,91 0,00 0,00 6.122,43 17.093,66 31/07/2020
596 489300 DANIEL TABOZA ROCHA ANALISTA DO MP IPATINGA - COMARCA; IPATINGA-PJ-08PJ 10.069,62 1.006,96 0,00 0,00 0,00 0,00 0,00 2.319,39 13.395,97 1.218,42 1.841,63 0,00 0,00 3.060,05 10.335,92 31/07/2020
597 414100 DANIEL TARDELI VALADAO ANALISTA DO MP TRÊS CORACOES - COMARCA; TRES CORACOES-PJ-02PJ 12.204,02 2.440,80 0,00 0,00 0,00 0,00 0,00 3.088,78 17.733,60 1.610,93 2.506,41 0,00 0,00 4.117,34 13.616,26 31/07/2020
598 446601 DANIEL VIEIRA BUENO ANALISTA DO MP SÃO DOMINGOS DO PRATA - COMARCA; SAO DOMINGOS DO PRATA-PJ-UNPJ 8.170,49 490,23 0,00 0,00 0,00 0,00 0,00 2.319,39 10.980,11 952,68 1.198,21 0,00 0,00 2.150,89 8.829,22 31/07/2020
599 253200 DANIELA BATISTA LIMA BARBOSA ASSESSOR BELO HORIZONTE - COMARCA; CENTRAL DE APOIO TECN-SETOR DE MEIO AMBIENTE 0,00 1.540,90 5.136,32 0,00 0,00 0,00 0,00 1.550,00 8.227,22 713,09 1.073,27 0,00 0,00 1.786,36 6.440,86 31/07/2020
600 505800 DANIELA BORGES DE MATTOS RESENDE ANALISTA DO MP JUIZ DE FORA - COMARCA; JUIZ DE FORA-PJ-20PJ 10.069,62 1.006,96 0,00 0,00 0,00 0,00 0,00 2.319,39 13.395,97 1.218,42 1.841,63 0,00 0,00 3.060,05 10.335,92 31/07/2020
601 478000 DANIELA CARVALHO SOARES ANALISTA DO MP SÃO JOÃO DEL REI - COMARCA; SAO JOAO DEL REI-PJ-01PJ 10.069,62 1.006,96 0,00 0,00 0,00 0,00 0,00 1.550,00 12.626,58 1.218,42 1.841,63 0,00 0,00 3.060,05 9.566,53 31/07/2020
602 275900 DANIELA CHAGAS SODRE ANALISTA DO MP BELO HORIZONTE - COMARCA; CENTRAL DE APOIO TECNICO-SETOR CONTABIL 16.750,82 5.025,25 0,00 0,00 0,00 0,00 0,00 1.550,00 23.326,07 2.395,37 4.408,20 0,00 0,00 6.803,57 16.522,50 31/07/2020
603 234301 DANIELA CRUZ SOARES ANALISTA DO MP BELO HORIZONTE - COMARCA; LABORATORIO TECNOLOGIA INTELIGENCIA 17.413,92 5.224,18 0,00 0,00 0,00 0,00 0,00 1.550,00 24.188,10 2.490,19 4.671,32 0,00 0,00 7.161,51 17.026,59 31/07/2020
604 638000 DANIELA DE ALMEIDA BATISTA ANALISTA DO MP ANDRELÂNDIA - COMARCA; ANDRELANDIA-PJ-UNPJ 7.421,79 742,18 0,00 0,00 0,00 0,00 0,00 2.319,39 10.483,36 671,12 1.191,17 0,00 0,00 1.862,29 8.621,07 31/07/2020
605 301000 DANIELA DE ALMEIDA E OLIVEIRA ANALISTA DO MP BELO HORIZONTE - COMARCA; DIRETORIA DE SISTEMAS DE INFORMACAO 16.750,82 5.025,25 0,00 0,00 0,00 0,00 0,00 1.550,00 23.326,07 2.395,37 4.460,33 0,00 0,00 6.855,70 16.470,37 31/07/2020
606 296000 DANIELA DE AZEVEDO SILVA ANALISTA DO MP BRASÓPOLIS - COMARCA; BRASOPOLIS-PJ-UNPJ 16.112,82 4.833,85 0,00 0,00 0,00 0,00 0,00 1.550,00 22.496,67 2.304,13 4.257,34 0,00 0,00 6.561,47 15.935,20 31/07/2020
607 453500 DANIELA DE CASTRO SOUSA BARBOSA ANALISTA DO MP BELO HORIZONTE - COMARCA; BH-08PJ JUIZADO ESPECIAL-SECRETARIA 10.069,62 2.013,92 0,00 0,00 0,00 0,00 0,00 1.550,00 13.633,54 1.329,19 2.088,09 0,00 0,00 3.417,28 10.216,26 31/07/2020
608 506000 DANIELA DE OLIVEIRA CAVALIERI ANALISTA DO MP BELO HORIZONTE - COMARCA; BH-14PJ DEFESA CONSUMIDOR-GAB 005PJ 9.444,70 944,47 0,00 0,00 0,00 0,00 0,00 1.550,00 11.939,17 1.142,81 1.673,39 0,00 0,00 2.816,20 9.122,97 31/07/2020
609 546200 DANIELA DE VILHENA LEMES GONCALVES OFICIAL DO MP TRÊS CORACOES - COMARCA; TRES CORACOES-PJ-05PJ 5.217,34 521,73 0,00 0,00 0,00 0,00 0,00 1.550,00 7.289,07 631,30 431,00 0,00 0,00 1.062,30 6.226,77 31/07/2020
610 356400 DANIELA LEAL FERRAZ ANALISTA DO MP MONTES CLAROS - COMARCA; COORD REG PJ DEF EDUC DIR CRIANCA ADOL NORTE 14.324,23 2.864,85 0,00 0,00 0,00 0,00 0,00 1.550,00 18.739,08 1.890,80 3.337,67 0,00 0,00 5.228,47 13.510,61 31/07/2020
611 501000 DANIELA LOURENCO SANTOS DA SILVA GUIMARAES ANALISTA DO MP BELO HORIZONTE - COMARCA; BH-12PJ JUIZO CRIMINAL-GAB 095PJ 10.069,62 1.006,96 0,00 0,00 0,00 0,00 0,00 2.319,39 13.395,97 1.218,42 1.789,50 0,00 0,00 3.007,92 10.388,05 31/07/2020
612 195801 DANIELA MARIA DE OLIVEIRA QUEIROZ ANALISTA DO MP ARAGUARI - COMARCA; ARAGUARI-PJ-06PJ 12.601,30 5.040,52 0,00 0,00 0,00 0,00 0,00 1.550,00 19.191,82 1.940,60 3.448,48 0,00 0,00 5.389,08 13.802,74 31/07/2020
613 511400 DANIELA MARIA LARA DE OLIVEIRA ANALISTA DO MP BOA ESPERANÇA - COMARCA; BOA ESPERANCA-PJ-02PJ 10.069,62 1.006,96 0,00 0,00 0,00 0,00 0,00 2.319,39 13.395,97 1.218,42 1.789,50 0,00 0,00 3.007,92 10.388,05 31/07/2020
614 252101 DANIELA PAULA ALVES PENA ANALISTA DO MP CONTAGEM - COMARCA; CONTAGEM-PJ-APO TECNICO 13.011,52 5.204,61 0,00 0,00 0,00 0,00 0,00 1.550,00 19.766,13 2.003,77 3.589,04 0,00 0,00 5.592,81 14.173,32 31/07/2020
615 604700 DANIELA PEIXOTO NOGUEIRA COORDENADOR/OFICIAL BELO HORIZONTE - COMARCA; DIRET DE FORMACAO, APERFEIC. E POS-GRADUACAO 0,00 1.181,92 11.819,15 0,00 0,00 0,00 0,00 2.319,39 15.320,46 672,40 2.520,00 0,00 0,00 3.192,40 12.128,06 31/07/2020
616 429600 DANIELA PIMENTA NUNES MACHADO ANALISTA DO MP BELO HORIZONTE - COMARCA; BH-05PJ-JUÍZO SUCESSÕES-SEC 12.601,30 2.520,26 0,00 0,00 0,00 0,00 0,00 2.319,39 17.440,95 1.663,37 2.779,51 0,00 0,00 4.442,88 12.998,07 31/07/2020
617 662000 DANIELA RIBAS DE AVILA ASSESSOR I BELO HORIZONTE - COMARCA; DIRETORIA DE SEGURANCA 0,00 0,00 8.170,49 0,00 0,00 0,00 0,00 1.550,00 9.720,49 713,09 1.483,92 0,00 0,00 2.197,01 7.523,48 31/07/2020
618 462000 DANIELA SOUSA GOMES DO AMARAL ANALISTA DO MP BETIM - COMARCA; BETIM-PJ-04PJ 10.069,62 1.006,96 0,00 0,00 0,00 0,00 0,00 1.550,00 12.626,58 1.218,42 1.841,63 0,00 0,00 3.060,05 9.566,53 31/07/2020
619 427000 DANIELA TEIXEIRA DINIZ ANDRADE ANALISTA DO MP BELO HORIZONTE - COMARCA; DIRETORIA DE PROJETOS DE EDIFICACOES 10.069,62 2.013,92 0,00 0,00 0,00 0,00 0,00 1.550,00 13.633,54 1.329,19 2.035,95 0,00 0,00 3.365,14 10.268,40 31/07/2020
620 337200 DANIELA TOLEDO SENIUK ANALISTA DO MP BELO HORIZONTE - COMARCA; GABINETE DE PROCURADOR DE JUSTIÇA - SALA 412 13.011,52 3.903,46 0,00 0,00 0,00 0,00 0,00 1.550,00 18.464,98 1.860,65 3.270,58 0,00 0,00 5.131,23 13.333,75 31/07/2020
621 605600 DANIELE ALZIRA SILVA CABRAL MOREIRA OFICIAL DO MP BELO HORIZONTE - COMARCA; BH-10PJ EXECUÇÃO PENAL-SECRETARIA 5.387,19 538,72 0,00 0,00 0,00 0,00 0,00 2.319,39 8.245,30 651,85 581,01 0,00 0,00 1.232,86 7.012,44 31/07/2020
622 195500 DANIELE CHAVES FONSECA OFICIAL DO MP BELO HORIZONTE - COMARCA; ASSESSORIA ESPECIAL DO PGJ 14.324,23 5.729,69 0,00 0,00 0,00 0,00 0,00 1.550,00 21.603,92 2.205,93 4.038,84 0,00 0,00 6.244,77 15.359,15 31/07/2020
623 323400 DANIELE MEGALE SANTINI OFICIAL DO MP BELO HORIZONTE - COMARCA; ASSESS TECNICO-JUR JUNTO AS PROC. DE JUST 9.752,14 2.925,64 0,00 0,00 0,00 0,00 0,00 1.550,00 14.227,78 1.394,56 2.181,39 0,00 0,00 3.575,95 10.651,83 31/07/2020
624 357900 DANIELE REJANE PINTO VERSIEUX OFICIAL DO MP PEDRO LEOPOLDO - COMARCA; PEDRO LEOPOLDO-PJ-03PJ 8.858,43 1.771,69 0,00 0,00 0,00 0,00 0,00 1.550,00 12.180,12 1.169,31 1.732,36 0,00 0,00 2.901,67 9.278,45 31/07/2020
625 389500 DANIELE VASCONCELOS AMORIM PRADO OFICIAL DO MP SÃO SEBASTIÃO DO PARAÍSO - COMARCA; SAO SEBASTIAO DO PARAISO-PJ-04PJ 8.579,10 1.715,82 0,00 0,00 0,00 0,00 0,00 1.550,00 11.844,92 1.132,44 1.650,32 0,00 0,00 2.782,76 9.062,16 31/07/2020
626 629700 DANIELLA BASTOS MARTINS BICALHO OFICIAL DO MP GOVERNADOR VALADARES - COMARCA; GOVERNADOR VALADARES-PJ-16PJ 5.217,34 521,73 0,00 0,00 0,00 0,00 0,00 1.550,00 7.289,07 631,30 535,28 0,00 0,00 1.166,58 6.122,49 31/07/2020
627 265000 DANIELLE CASTANHEIRA SCALABRINI OFICIAL DO MP BELO HORIZONTE - COMARCA; JUNTA RECURSAL DO PROCON ESTADUAL 10.069,62 3.020,89 0,00 0,00 0,00 0,00 0,00 1.550,00 14.640,51 1.439,96 2.230,27 0,00 0,00 3.670,23 10.970,28 31/07/2020
628 490100 DANIELLE DE AVILA SILVA LOPES ANALISTA DO MP BELO HORIZONTE - COMARCA; PROC. JUSTICA DIR. DIFUSOS E COLETIVOS-SEC 10.069,62 3.020,89 0,00 0,00 0,00 0,00 0,00 3.088,78 16.179,29 1.439,96 2.334,54 0,00 0,00 3.774,50 12.404,79 31/07/2020
629 549600 DANIELLE GOMES LOPES RODRIGUES OFICIAL DO MP VESPASIANO - COMARCA; VESPASIANO-PJ-02PJ 5.387,19 538,72 0,00 0,00 0,00 0,00 0,00 1.550,00 7.475,91 651,85 581,01 0,00 0,00 1.232,86 6.243,05 31/07/2020
630 613000 DANIELLE SILVA OLIVEIRA FRANKLIN ASSESSOR/OFICIAL BELO HORIZONTE - COMARCA; DIRETORIA DE ORCAMENTO-DIOR/SPC 0,00 1.039,75 10.397,52 0,00 0,00 0,00 0,00 3.088,78 14.526,05 679,68 2.088,98 0,00 0,00 2.768,66 11.757,39 31/07/2020
631 380800 DANILLO RIBEIRO ANTUNES ANALISTA DO MP MONTES CLAROS - COMARCA; MONTES CLAROS-PJ-SECRETARIA 13.011,52 2.602,30 0,00 0,00 0,00 0,00 0,00 1.550,00 17.163,82 1.717,52 2.899,99 0,00 0,00 4.617,51 12.546,31 31/07/2020
632 453700 DANILO BOTELHO DE CARVALHO ASSESSOR/ANALISTA BELO HORIZONTE - COMARCA; SUPERINTENDENCIA DE FINANCAS 0,00 4.939,57 24.697,83 0,00 0,00 0,00 0,00 2.319,39 31.956,79 1.746,26 6.800,03 0,00 0,00 8.546,29 23.410,50 31/07/2020
633 391200 DANILO D'AVILA MENDES ANALISTA DO MP SÃO ROMÃO - COMARCA; SAO ROMAO-PJ-UNPJ 13.011,52 2.602,30 0,00 0,00 0,00 0,00 0,00 2.319,39 17.933,21 1.717,52 2.952,12 0,00 0,00 4.669,64 13.263,57 31/07/2020
634 494900 DANILO GAVIAO AVELINO DE MELLO ANALISTA DO MP POUSO ALEGRE - COMARCA; GAECO REGIONAL DE POUSO ALEGRE 10.069,62 1.006,96 0,00 0,00 0,00 0,00 0,00 2.319,39 13.395,97 1.218,42 1.841,63 0,00 0,00 3.060,05 10.335,92 31/07/2020
635 604300 DANILO NASCIMENTO SALGADO ANALISTA DO MP JANAÚBA - COMARCA; JANAUBA-PJ-01PJ 8.436,53 843,65 0,00 0,00 0,00 0,00 0,00 1.550,00 10.830,18 1.020,82 1.401,96 0,00 0,00 2.422,78 8.407,40 31/07/2020
636 298300 DANUZA MONICA DE SOUZA DINIZ ANALISTA DO MP BELO HORIZONTE - COMARCA; ASSESSORIA ESPECIAL DO PGJ 12.601,30 3.780,39 0,00 0,00 0,00 0,00 0,00 1.550,00 17.931,69 1.801,99 3.087,92 0,00 0,00 4.889,91 13.041,78 31/07/2020
637 398700 DARCY LUIZ MILEO GREGATTI OFICIAL DO MP LAMBARI - COMARCA; LAMBARI-PJ-SECRETARIA 8.436,53 1.687,31 0,00 0,00 0,00 0,00 0,00 1.550,00 11.673,84 1.113,62 1.608,45 0,00 0,00 2.722,07 8.951,77 31/07/2020
638 406200 DARIANA AUGUSTA DE TOLEDO PATROCINIO RUIZ COORDENADOR/OFICIAL BELO HORIZONTE - COMARCA; DIRETORIA GESTAO COMPRAS LICITACOES 0,00 2.687,03 13.435,16 0,00 0,00 0,00 0,00 1.550,00 17.672,19 1.220,38 3.227,94 0,00 0,00 4.448,32 13.223,87 31/07/2020
639 586901 DARIO VITORINO DE CARVALHO SILVA ASSESSOR BELO HORIZONTE - COMARCA; DIRETORIA DE SEGURANCA 0,00 0,00 17.413,92 0,00 0,00 0,00 0,00 1.550,00 18.963,92 713,09 3.973,73 0,00 0,00 4.686,82 14.277,10 31/07/2020
640 305000 DARLI LEITE DE OLIVEIRA OFICIAL DO MP ARAÇUAÍ - COMARCA; ARACUAI-PJ-01PJ 6.123,79 1.837,14 0,00 0,00 0,00 0,00 0,00 1.550,00 9.510,93 875,70 922,67 0,00 0,00 1.798,37 7.712,56 31/07/2020
641 122200 DAVID RIBEIRO DOS SANTOS ANALISTA DO MP BORDA DA MATA - COMARCA; BORDA DA MATA-PJ-UNPJ 18.820,14 15.056,11 0,00 0,00 0,00 3.726,39 124,21 2.905,05 40.631,90 3.726,39 8.446,61 0,00 0,00 12.173,00 28.458,90 31/07/2020
642 389400 DAWSON CANEDO MARQUES OFICIAL DO MP TRÊS CORACOES - COMARCA; TRES CORACOES-PJ-02PJ 8.579,10 1.715,82 0,00 0,00 0,00 0,00 0,00 1.550,00 11.844,92 1.132,44 960,62 0,00 0,00 2.093,06 9.751,86 31/07/2020
643 537200 DAYANE TEIXEIRA DE OLIVEIRA CASELLI ANALISTA DO MP BELO HORIZONTE - COMARCA; ASSESS TECNICO-JUR JUNTO AS PROC. DE JUST 7.421,79 445,31 0,00 0,00 0,00 0,00 0,00 1.550,00 9.417,10 865,38 1.056,11 0,00 0,00 1.921,49 7.495,61 31/07/2020
644 256100 DAYSE ROSALY PEREIRA BATISTA OFICIAL DO MP BELO HORIZONTE - COMARCA; BH-08PJ JUIZADO ESPECIAL-SECRETARIA 10.069,62 3.020,89 0,00 0,00 0,00 0,00 0,00 1.550,00 14.640,51 1.439,96 2.334,54 0,00 0,00 3.774,50 10.866,01 31/07/2020
645 311901 DEBORA APARECIDA DA SILVA ASSESSOR BELO HORIZONTE - COMARCA; BH-23PJ CIVEL-SETOR ATEND PUB 0,00 0,00 3.076,28 0,00 0,00 0,00 0,00 1.550,00 4.626,28 476,70 200,14 0,00 0,00 676,84 3.949,44 31/07/2020
646 194301 DEBORA APARECIDA DOS SANTOS ANALISTA DO MP UBERLÂNDIA - COMARCA; UBERLANDIA-PJ-SEC FAMILIA 16.750,82 6.700,33 0,00 0,00 0,00 0,00 0,00 1.550,00 25.001,15 2.579,63 4.818,17 0,00 0,00 7.397,80 17.603,35 31/07/2020
647 518800 DEBORA CARVALHO FIORATTO COORDENADOR/OFICIAL BELO HORIZONTE - COMARCA; DIRETORIA MATERIAIS E SERVICOS 0,00 1.343,52 13.435,16 0,00 0,00 0,00 0,00 2.319,39 17.098,07 841,46 2.963,20 0,00 0,00 3.804,66 13.293,41 31/07/2020
648 444900 DEBORA CLAUDIA PEREIRA ALVES ANALISTA DO MP BELO HORIZONTE - COMARCA; BH-08PJ JUIZADO ESPECIAL-SECRETARIA 10.069,62 2.013,92 0,00 0,00 0,00 0,00 0,00 1.550,00 13.633,54 1.329,19 2.088,09 0,00 0,00 3.417,28 10.216,26 31/07/2020
649 617700 DEBORA COMANDUCI SCHREIDER ANALISTA DO MP BICAS - COMARCA; BICAS-PJ-UNPJ 8.170,49 817,05 0,00 0,00 0,00 0,00 0,00 1.550,00 10.537,54 988,63 1.278,20 0,00 0,00 2.266,83 8.270,71 31/07/2020
650 555700 DEBORA CRISTINA BUITRAGO PEREIRA ANALISTA DO MP BELO HORIZONTE - COMARCA; DIRETORIA GESTAO CONTRATOS CONVENIOS 8.436,53 843,65 0,00 0,00 0,00 0,00 0,00 3.088,78 12.368,96 1.020,82 1.401,96 0,00 0,00 2.422,78 9.946,18 31/07/2020
651 513100 DEBORA CRISTINA PEREIRA DE OLIVEIRA ANALISTA DO MP BELO HORIZONTE - COMARCA; BH-23PJ CIVEL-SETOR JURIDICO 10.069,62 1.006,96 0,00 0,00 0,00 0,00 0,00 2.319,39 13.395,97 1.218,42 1.841,63 0,00 0,00 3.060,05 10.335,92 31/07/2020
652 612100 DEBORA DUARTE SILVA DE SOUZA OFICIAL DO MP RIBEIRÃO DAS NEVES - COMARCA; RIBEIRAO DAS NEVES-PJ-06PJ 5.217,34 1.565,20 0,00 0,00 0,00 0,00 0,00 1.550,00 8.332,54 746,08 686,39 0,00 0,00 1.432,47 6.900,07 31/07/2020
653 539700 DEBORA SALES CARVALHO ANALISTA DO MP PATOS DE MINAS - COMARCA; COORD REG PJ DEF EDU DIR CRI ADO AL PAR NOROE 8.436,53 843,65 0,00 0,00 0,00 0,00 0,00 1.550,00 10.830,18 1.020,82 1.401,96 0,00 0,00 2.422,78 8.407,40 31/07/2020
654 424100 DEBORA SANTOS E ALVES ANALISTA DO MP JANUÁRIA - COMARCA; JANUARIA-PJ-01PJ 12.601,30 2.520,26 0,00 0,00 0,00 0,00 0,00 3.088,78 18.210,34 1.663,37 2.831,64 0,00 0,00 4.495,01 13.715,33 31/07/2020
655 426301 DEBORA SCUCATO MACHADO SOARES OFICIAL DO MP ITABIRITO - COMARCA; ITABIRITO-PJ-01PJ 5.387,19 1.077,44 0,00 0,00 0,00 0,00 0,00 2.319,39 8.784,02 711,11 712,86 0,00 0,00 1.423,97 7.360,05 31/07/2020
656 550200 DEBORA TRINDADE LEITE ANALISTA DO MP MANHUAÇU - COMARCA; MANHUACU-PJ-05PJ 8.436,53 843,65 0,00 0,00 0,00 0,00 0,00 1.550,00 10.830,18 1.020,82 1.297,69 0,00 0,00 2.318,51 8.511,67 31/07/2020
657 438000 DEBORAH COSTA LAGE ANALISTA DO MP BELO HORIZONTE - COMARCA; ASSESS TECNICO-JUR JUNTO AS PROC. DE JUST 12.601,30 2.520,26 0,00 0,00 0,00 0,00 0,00 1.550,00 16.671,56 1.663,37 2.831,64 0,00 0,00 4.495,01 12.176,55 31/07/2020
658 475700 DEBORAH LOBAO LACERDA ASSESSOR/OFICIAL BELO HORIZONTE - COMARCA; BH-17PJ PATRIMONIO PUBLICO-SECRETARIA 0,00 817,05 8.170,49 0,00 0,00 0,00 0,00 1.550,00 10.537,54 740,98 1.398,09 0,00 0,00 2.139,07 8.398,47 31/07/2020
659 613700 DEISER MARIA FERREIRA ROSCOE OFICIAL DO MP BELO HORIZONTE - COMARCA; DIVISAO FROTA 5.217,34 521,73 0,00 0,00 0,00 0,00 0,00 1.550,00 7.289,07 631,30 535,28 0,00 0,00 1.166,58 6.122,49 31/07/2020
660 551900 DEISY ROCHA DA SILVA ANALISTA DO MP JOÃO PINHEIRO - COMARCA; JOAO PINHEIRO-PJ-01PJ 8.436,53 843,65 0,00 0,00 0,00 0,00 0,00 1.550,00 10.830,18 1.020,82 1.401,96 0,00 0,00 2.422,78 8.407,40 31/07/2020
661 501900 DELI RAQUEL RODRIGUES ANALISTA DO MP ITUIUTABA - COMARCA; ITUIUTABA-PJ-04PJ 10.069,62 1.006,96 0,00 0,00 0,00 0,00 0,00 1.550,00 12.626,58 1.218,42 1.841,63 0,00 0,00 3.060,05 9.566,53 31/07/2020
662 378600 DELIANE LOPES VIEIRA BREIJAO ANALISTA DO MP JUIZ DE FORA - COMARCA; JUIZ DE FORA-PJ-12PJ 13.011,52 2.602,30 0,00 0,00 0,00 0,00 286,25 4.672,76 20.572,83 1.717,52 2.899,99 0,00 0,00 4.617,51 15.955,32 31/07/2020
663 487700 DENIA FERREIRA MAIA SILVA OFICIAL DO MP TRÊS CORACOES - COMARCA; TRES CORACOES-PJ-01PJ 6.123,79 612,38 0,00 0,00 0,00 0,00 0,00 2.319,39 9.055,56 740,98 675,04 0,00 0,00 1.416,02 7.639,54 31/07/2020
664 424800 DENIS APARECIDO CAMPOS DELFINO ANALISTA DO MP LUZ - COMARCA; LUZ-PJ-UNPJ 12.204,02 2.440,80 0,00 0,00 0,00 0,00 0,00 2.319,39 16.964,21 1.610,93 2.506,41 0,00 0,00 4.117,34 12.846,87 31/07/2020
665 381400 DENISE ANGELICA MELLO DE PAULA OFICIAL DO MP BELO HORIZONTE - COMARCA; BH-18PJ DIREITOS HUMANOS-SECRETARIA 8.579,10 1.715,82 0,00 0,00 0,00 0,00 0,00 2.319,39 12.614,31 1.132,44 1.650,32 0,00 0,00 2.782,76 9.831,55 31/07/2020
666 196300 DENISE DE ALMEIDA VILELA FURTADO OFICIAL DO MP BELO HORIZONTE - COMARCA; CENTRAL DE APOIO TECNICO-SECRETARIA 11.819,15 4.727,66 0,00 0,00 5.515,60 0,00 0,00 2.703,54 24.765,95 1.820,15 4.697,26 0,00 0,00 6.517,41 18.248,54 31/07/2020
667 336900 DENISE DE SOUSA MORAES SILVA OFICIAL DO MP MATEUS LEME - COMARCA; MATEUS LEME-PJ-02PJ 6.123,79 1.224,76 0,00 0,00 0,00 0,00 0,00 1.550,00 8.898,55 808,34 929,20 0,00 0,00 1.737,54 7.161,01 31/07/2020
668 271100 DENISE ELOY PEIXOTO OFICIAL DO MP BELO HORIZONTE - COMARCA; DIRETORIA DE INTELIGENCIA 12.204,02 3.661,21 0,00 0,00 0,00 0,00 0,00 1.550,00 17.415,23 1.745,18 3.013,65 0,00 0,00 4.758,83 12.656,40 31/07/2020
669 385400 DENISE FREITAS DE ASSIS OFICIAL DO MP CARATINGA - COMARCA; CARATINGA-PJ-SECRETARIA 7.912,85 1.582,57 0,00 0,00 0,00 0,00 0,00 1.550,00 11.045,42 1.044,50 1.454,64 0,00 0,00 2.499,14 8.546,28 31/07/2020
670 437100 DENISE NOGUEIRA MAGRI MENDES ANALISTA DO MP BELO HORIZONTE - COMARCA; LAB TECNOLOGIA CONTRA LAVAGEM DINHEIRO 12.601,30 3.780,39 0,00 0,00 0,00 0,00 0,00 1.550,00 17.931,69 1.801,99 2.983,65 0,00 0,00 4.785,64 13.146,05 31/07/2020
671 524700 DENISE RAMOS GUIMARAES OFICIAL DO MP BELO HORIZONTE - COMARCA; BH-07PJ 01 TRIBUNAL JURI-SECRETARIA 5.930,75 593,08 0,00 0,00 0,00 0,00 0,00 1.550,00 8.073,83 717,62 727,35 0,00 0,00 1.444,97 6.628,86 31/07/2020
672 239100 DENISE RIBEIRO DOS SANTOS CAETANO OFICIAL DO MP ITANHANDU - COMARCA; ITANHANDU-PJ-SECRETARIA 12.204,02 3.661,21 0,00 0,00 0,00 0,00 0,00 1.550,00 17.415,23 1.745,18 2.961,52 0,00 0,00 4.706,70 12.708,53 31/07/2020
673 325500 DENISE ROSA TORRES OFICIAL DO MP BELO HORIZONTE - COMARCA; DIRETORIA DE PESSOAL ADMINISTRATIVO - DPAD 10.069,62 3.020,89 0,00 0,00 0,00 0,00 0,00 1.550,00 14.640,51 1.561,75 2.300,52 0,00 0,00 3.862,27 10.778,24 31/07/2020
674 437200 DENISE VIVIANE DOS SANTOS ANALISTA DO MP BELO HORIZONTE - COMARCA; ASSESS TECNICA DA CORREGEDORIA-GERAL DO MP 10.736,08 2.147,22 0,00 0,00 4.294,43 0,00 0,00 2.703,54 19.881,27 1.417,16 3.360,52 0,00 0,00 4.777,68 15.103,59 31/07/2020
675 267900 DENISIA DE ALMEIDA SALES OFICIAL DO MP BELO HORIZONTE - COMARCA; BH-18PJ DIREITOS HUMANOS-SECRETARIA 9.146,93 2.744,08 0,00 0,00 0,00 0,00 0,00 1.550,00 13.441,01 1.308,01 1.988,83 0,00 0,00 3.296,84 10.144,17 31/07/2020
676 480300 DESIREE ARANTES FERREIRA GOUVEA OFICIAL DO MP PRATÁPOLIS - COMARCA; PRATAPOLIS-PJ-UNPJ 6.123,79 612,38 0,00 0,00 0,00 0,00 0,00 1.550,00 8.286,17 740,98 779,32 0,00 0,00 1.520,30 6.765,87 31/07/2020
677 355300 DEYSE CRISTINA MORAIS OFICIAL DO MP PASSOS - COMARCA; PASSOS-PJ-02PJ 8.579,10 1.715,82 0,00 0,00 0,00 0,00 0,00 1.550,00 11.844,92 1.132,44 1.650,32 0,00 0,00 2.782,76 9.062,16 31/07/2020
678 523700 DIANA CAMPOS RESENDE OFICIAL DO MP SÃO JOÃO DEL REI - COMARCA; SAO JOAO DEL REI-PJ-04PJ 6.741,63 3.370,82 0,00 0,00 0,00 0,00 0,00 1.550,00 11.662,45 1.112,37 1.553,52 0,00 0,00 2.665,89 8.996,56 31/07/2020
679 241900 DIANA CARDOSO MARTINS OFICIAL DO MP BELO HORIZONTE - COMARCA; CAO-CRIMINAL 8.858,43 2.657,53 0,00 0,00 0,00 0,00 0,00 1.550,00 13.065,96 1.266,76 1.949,17 0,00 0,00 3.215,93 9.850,03 31/07/2020
680 410100 DIANA GORDILHO SILVEIRA SENA ANALISTA DO MP BELO HORIZONTE - COMARCA; ASSESS TECNICO-JUR JUNTO AS PROC. DE JUST 12.601,30 2.520,26 0,00 0,00 0,00 0,00 0,00 1.550,00 16.671,56 1.663,37 2.831,64 0,00 0,00 4.495,01 12.176,55 31/07/2020
681 553000 DIANA MARIA MARQUES ANALISTA DO MP BETIM - COMARCA; BETIM-PJ-13PJ 8.436,53 843,65 0,00 0,00 0,00 0,00 0,00 1.550,00 10.830,18 1.020,82 1.349,83 0,00 0,00 2.370,65 8.459,53 31/07/2020
682 520000 DIARLE TOSTE DOS SANTOS ANALISTA DO MP RIO POMBA - COMARCA; RIO POMBA-PJ-UNPJ 10.069,62 1.006,96 0,00 0,00 0,00 0,00 0,00 1.550,00 12.626,58 1.218,42 1.214,75 0,00 0,00 2.433,17 10.193,41 31/07/2020
683 539800 DIEGO CAMARGOS RODRIGUES OFICIAL DO MP CONTAGEM - COMARCA; CONTAGEM-PJ-19PJ 5.387,19 538,72 0,00 0,00 0,00 0,00 0,00 1.550,00 7.475,91 651,85 581,01 0,00 0,00 1.232,86 6.243,05 31/07/2020
684 607300 DIEGO CERVEIRA DE SOUZA ANALISTA DO MP PATOS DE MINAS - COMARCA; COORD REG BACIAS PARACATU,URUCUIA E ABAETE 8.436,53 843,65 0,00 0,00 0,00 0,00 0,00 1.550,00 10.830,18 1.020,82 1.401,96 0,00 0,00 2.422,78 8.407,40 31/07/2020
685 669300 DIEGO DA CUNHA SOARES ASSESSOR ADMINISTRATIVO I BELO HORIZONTE - COMARCA; DIRET DE INFORMACAO E EXPEDICAO DE PROCESSOS 0,00 0,00 3.076,28 0,00 1.025,43 0,00 0,00 1.550,00 5.651,71 443,62 439,11 0,00 0,00 882,73 4.768,98 31/07/2020
686 446900 DIEGO DE FREITAS OFICIAL DO MP UBERABA - COMARCA; UBERABA-PJ-06PJ 7.421,79 1.484,36 0,00 0,00 0,00 0,00 0,00 1.550,00 10.456,15 979,68 1.310,42 0,00 0,00 2.290,10 8.166,05 31/07/2020
687 288800 DILENE NEPOMUCENO ALVES OFICIAL DO MP BELO HORIZONTE - COMARCA; DIRETORIA DE PESSOAL ADMINISTRATIVO - DPAD 10.069,62 3.020,89 0,00 0,00 0,00 0,00 0,00 1.550,00 14.640,51 1.439,96 2.334,54 0,00 0,00 3.774,50 10.866,01 31/07/2020
688 270101 DILSON DO AMARAL ANALISTA DO MP RIO CASCA - COMARCA; RIO CASCA-PJ-UNPJ 8.436,53 843,65 0,00 0,00 0,00 0,00 0,00 1.550,00 10.830,18 1.020,82 1.401,96 0,00 0,00 2.422,78 8.407,40 31/07/2020
689 466000 DIMITRI GUDE MARCIAL ANALISTA DO MP NANUQUE - COMARCA; NANUQUE-PJ-02PJ 10.069,62 1.006,96 0,00 0,00 0,00 0,00 0,00 2.319,39 13.395,97 1.218,42 1.737,36 0,00 0,00 2.955,78 10.440,19 31/07/2020
690 516300 DINORA APARECIDA MACEDO BRANDAO ANALISTA DO MP BELO HORIZONTE - COMARCA; SUPERINTENDENCIA DE RECURSOS HUMANOS 8.579,10 857,91 0,00 0,00 0,00 0,00 0,00 1.550,00 10.987,01 1.038,07 1.440,35 0,00 0,00 2.478,42 8.508,59 31/07/2020
691 511700 DIOGENES HENRIQUES PEREIRA LOURENCO ANALISTA DO MP CONTAGEM - COMARCA; CONTAGEM-PJ-13PJ 10.069,62 1.006,96 0,00 0,00 0,00 0,00 0,00 1.550,00 12.626,58 1.218,42 1.841,63 0,00 0,00 3.060,05 9.566,53 31/07/2020
692 604100 DIOGO CESAR DE OLIVEIRA HONORIO ASSESSOR PIUMHI - COMARCA; PIUMHI-PJ-02PJ 0,00 0,00 5.136,32 0,00 0,00 0,00 0,00 1.550,00 6.686,32 713,09 649,53 0,00 0,00 1.362,62 5.323,70 31/07/2020
693 387800 DIOGO FELIX DA SILVA OFICIAL DO MP CONSELHEIRO PENA - COMARCA; CONSELHEIRO PENA-PJ-01PJ 7.421,79 1.484,36 0,00 0,00 0,00 0,00 0,00 1.550,00 10.456,15 979,68 1.310,42 0,00 0,00 2.290,10 8.166,05 31/07/2020
694 259600 DIOGO MESQUITA MAIA ANALISTA DO MP BELO HORIZONTE - COMARCA; DIRET DE APOIO AS PROCURADORIAS DE JUSTICA 15.272,02 12.217,62 0,00 74,96 0,00 3.271,43 0,00 1.550,00 32.386,03 3.023,86 6.638,15 0,00 0,00 9.662,01 22.724,02 31/07/2020
695 386700 DIRCIMAR FERNANDES CARNEIRO OFICIAL DO MP VISCONDE DO RIO BRANCO - COMARCA; VISCONDE DO RIO BRANCO-PJ-03PJ 8.579,10 6.005,37 0,00 0,00 0,00 0,00 0,00 1.583,20 16.167,67 1.604,29 2.700,19 0,00 0,00 4.304,48 11.863,19 31/07/2020
696 113800 DIRSON APARECIDO GUIMARAES ASSESSOR BELO HORIZONTE - COMARCA; DIVISAO DE MANUTENCAO PREDIAL 0,00 4.622,69 5.136,32 0,00 0,00 0,00 0,00 1.550,00 11.309,01 713,09 1.920,77 0,00 0,00 2.633,86 8.675,15 31/07/2020
697 216700 DOMICIO VALDETE PEREIRA OFICIAL DO MP TEÓFILO OTONI - COMARCA; COORD REG PJ DEF EDU DIR CRIAN ADOL JEQUI MUC 14.324,23 5.729,69 0,00 0,00 0,00 0,00 0,00 1.550,00 21.603,92 2.205,93 3.934,56 0,00 0,00 6.140,49 15.463,43 31/07/2020
698 192701 DONIZETTI APARECIDO AMORIM ANALISTA DO MP PRATÁPOLIS - COMARCA; PRATAPOLIS-PJ-UNPJ 9.444,70 3.777,88 0,00 0,00 0,00 0,00 0,00 1.550,00 14.772,58 1.454,48 2.314,73 0,00 0,00 3.769,21 11.003,37 31/07/2020
699 558700 DORCILIA FATIMA DE OLIVEIRA OFICIAL DO MP DIVINÓPOLIS - COMARCA; DIVINOPOLIS-PJ-02PJ 5.387,19 538,72 0,00 0,00 0,00 0,00 0,00 1.550,00 7.475,91 651,85 528,87 0,00 0,00 1.180,72 6.295,19 31/07/2020
700 555300 DOUGLAS CUNHA DE SOUZA ANALISTA DO MP VARZEA DA PALMA - COMARCA; VARZEA DA PALMA-PJ-01PJ 8.436,53 843,65 0,00 0,00 0,00 0,00 0,00 1.550,00 10.830,18 1.020,82 1.401,96 0,00 0,00 2.422,78 8.407,40 31/07/2020
701 265900 DOUGLAS GOMES MOREIRA ANALISTA DO MP BELO HORIZONTE - COMARCA; CENTRAL DE APOIO TECNICO-SETOR DE ENGENHARIA 16.750,82 5.025,25 0,00 0,00 7.258,69 0,00 0,00 1.550,00 30.584,76 2.395,37 6.456,47 0,00 0,00 8.851,84 21.732,92 31/07/2020
702 241000 DOUGLAS MEIRELLES DE CASTRO OFICIAL DO MP CONCEIÇÃO DO RIO VERDE - COMARCA; CONCEICAO DO RIO VERDE-PJ-UNPJ 12.204,02 4.881,61 0,00 0,00 0,00 0,00 0,00 1.550,00 18.635,63 1.879,42 3.208,07 0,00 0,00 5.087,49 13.548,14 31/07/2020
703 534900 DOUGLAS SILVA E SOUZA ANALISTA DO MP CAMPOS GERAIS - COMARCA; CAMPOS GERAIS-PJ-UNPJ 8.436,53 843,65 0,00 0,00 0,00 0,00 0,00 1.550,00 10.830,18 1.020,82 1.349,83 0,00 0,00 2.370,65 8.459,53 31/07/2020
704 638900 DOUGLAS WALLAS CONCEICAO NEVES OFICIAL DO MP RIBEIRÃO DAS NEVES - COMARCA; RIBEIRAO DAS NEVES-PJ-SEC CIVEL 4.376,03 437,60 0,00 0,00 0,00 0,00 0,00 1.550,00 6.363,63 529,50 327,80 0,00 0,00 857,30 5.506,33 31/07/2020
705 146800 DUCINALVA AMARAL LOPES REIS OFICIAL DO MP PARAISÓPOLIS - COMARCA; PARAISOPOLIS-PJ-UNPJ 16.750,82 11.725,57 0,00 77,00 0,00 3.408,53 0,00 1.550,00 33.511,92 3.132,40 6.857,37 0,00 0,00 9.989,77 23.522,15 31/07/2020
706 122500 DUILIO CARLOS FERREIRA UTSCH OFICIAL DO MP CONCEIÇÃO DO MATO DENTRO - COMARCA; CONCEICAO DO MATO DENTRO-PJ-UNPJ 14.324,23 11.459,38 0,00 65,86 0,00 3.229,82 0,00 1.550,00 30.629,29 2.836,20 6.221,13 0,00 0,00 9.057,33 21.571,96 31/07/2020
707 201800 DULCINEIA ANDRE DE SOUZA OFICIAL DO MP JEQUITINHONHA - COMARCA; JEQUITINHONHA-PJ-SECRETARIA 14.324,23 5.729,69 0,00 0,00 0,00 0,00 0,00 1.550,00 21.603,92 2.205,93 3.830,29 0,00 0,00 6.036,22 15.567,70 31/07/2020
708 395800 DUVIDIER MEDIRCIO JUNIOR ANALISTA DO MP BELO HORIZONTE - COMARCA; CENTRAL DE APOIO TECNICO-SETOR DE ENGENHARIA 13.872,60 2.774,52 0,00 0,00 0,00 0,00 0,00 1.550,00 18.197,12 1.831,18 3.205,02 0,00 0,00 5.036,20 13.160,92 31/07/2020
709 604800 ECIA RAMILIS ISSA DE ABREU ANALISTA DO MP MANGA - COMARCA; MANGA-PJ-02PJ 8.436,53 843,65 0,00 0,00 0,00 0,00 0,00 1.550,00 10.830,18 1.020,82 1.401,96 0,00 0,00 2.422,78 8.407,40 31/07/2020
710 273000 EDELFINA APARECIDA GUIMARAES OFICIAL DO MP CACHOEIRA DE MINAS - COMARCA; CACHOEIRA DE MINAS-PJ-UNPJ 10.069,62 7.048,73 0,00 0,00 0,00 0,00 0,00 1.550,00 18.668,35 1.883,02 3.268,22 0,00 0,00 5.151,24 13.517,11 31/07/2020
711 523300 EDER DOS SANTOS PATRICIO ANALISTA DO MP NOVA SERRANA - COMARCA; NOVA SERRANA-PJ-03PJ 10.069,62 1.006,96 0,00 0,00 0,00 0,00 0,00 1.550,00 12.626,58 1.218,42 1.841,63 0,00 0,00 3.060,05 9.566,53 31/07/2020
712 356700 EDER JOSE PACHECO OFICIAL DO MP CAMPO BELO - COMARCA; CAMPO BELO-PJ-SECRETARIA 8.858,43 1.771,69 0,00 0,00 0,00 0,00 0,00 2.319,39 12.949,51 1.169,31 1.628,09 0,00 0,00 2.797,40 10.152,11 31/07/2020
713 507900 EDERSON SILVA LOPES OFICIAL DO MP BELO HORIZONTE - COMARCA; LABORATORIO TECNOLOGIA INTELIGENCIA 6.123,79 612,38 0,00 0,00 0,00 0,00 0,00 1.550,00 8.286,17 740,98 675,04 0,00 0,00 1.416,02 6.870,15 31/07/2020
714 296200 EDGARD GOULART MATOSINHO DE LAET JR ANALISTA DO MP GOVERNADOR VALADARES - COMARCA; GAECO REGIONAL DE GOVERNADOR VALADARES 15.272,02 4.581,61 0,00 0,00 0,00 0,00 0,00 1.550,00 21.403,63 2.183,90 3.885,54 0,00 0,00 6.069,44 15.334,19 31/07/2020
715 295000 EDILA MARIA DA SILVEIRA OFICIAL DO MP FORMIGA - COMARCA; FORMIGA-PJ-01PJ 8.579,10 2.573,73 0,00 0,00 0,00 0,00 0,00 1.550,00 12.702,83 1.226,81 1.860,30 0,00 0,00 3.087,11 9.615,72 31/07/2020
716 332300 EDILA MARILAC MIRANDA PRADO OFICIAL DO MP DIAMANTINA - COMARCA; COORD REG BACIAS RIOS JEQUITINHONHA E MUCURI 9.752,14 4.876,07 0,00 0,00 0,00 0,00 0,00 3.088,78 17.716,99 1.609,10 2.606,62 0,00 0,00 4.215,72 13.501,27 31/07/2020
717 376600 EDILANE CONSOLACAO ROSA NAZARETH ANALISTA DO MP BETIM - COMARCA; BETIM-PJ-10PJ 13.011,52 2.602,30 0,00 0,00 0,00 0,00 0,00 1.550,00 17.163,82 1.717,52 2.952,12 0,00 0,00 4.669,64 12.494,18 31/07/2020
718 301500 EDILENE APARECIDA DE CARVALHO ANALISTA DO MP BELO HORIZONTE - COMARCA; BH-02PJ FAMILIA-SECRETARIA 15.272,02 4.581,61 0,00 0,00 0,00 0,00 0,00 1.550,00 21.403,63 2.183,90 3.937,68 0,00 0,00 6.121,58 15.282,05 31/07/2020
719 309800 EDILZA DOS REIS OFICIAL DO MP UBERLÂNDIA - COMARCA; UBERLANDIA-PJ-03PJ 10.069,62 3.020,89 0,00 0,00 0,00 0,00 0,00 1.550,00 14.640,51 1.439,96 2.334,54 0,00 0,00 3.774,50 10.866,01 31/07/2020
720 200500 EDINEIA MARIA DE OLIVEIRA ANTUNES OFICIAL DO MP MONTES CLAROS - COMARCA; MONTES CLAROS-PJ-10PJ 14.324,23 5.729,69 0,00 0,00 0,00 0,00 0,00 1.550,00 21.603,92 2.205,93 4.038,84 0,00 0,00 6.244,77 15.359,15 31/07/2020
721 427700 EDISANGELA SOARES LOPES OFICIAL DO MP PIRAPORA - COMARCA; PIRAPORA-PJ-02PJ 6.123,79 1.224,76 0,00 0,00 0,00 0,00 0,00 1.550,00 8.898,55 808,34 929,20 0,00 0,00 1.737,54 7.161,01 31/07/2020
722 555400 EDISON MONTEIRO SAMPAIO NETO ANALISTA DO MP BELO HORIZONTE - COMARCA; BH-12PJ JUIZO CRIMINAL-GAB 094PJ 8.436,53 843,65 0,00 0,00 0,00 0,00 0,00 1.550,00 10.830,18 1.020,82 1.401,96 0,00 0,00 2.422,78 8.407,40 31/07/2020
723 517700 EDMILSON TADEU FERNANDES OFICIAL DO MP POUSO ALEGRE - COMARCA; GAECO REGIONAL DE POUSO ALEGRE 6.529,10 652,91 0,00 0,00 0,00 0,00 0,00 1.550,00 8.732,01 790,02 888,44 0,00 0,00 1.678,46 7.053,55 31/07/2020
724 358400 EDNA APARECIDA SILVA FERREIRA OFICIAL DO MP CORONEL FABRICIANO - COMARCA; CORONEL FABRICIANO-PJ-02PJ 8.858,43 1.771,69 0,00 0,00 0,00 0,00 0,00 1.550,00 12.180,12 1.169,31 1.628,09 0,00 0,00 2.797,40 9.382,72 31/07/2020
725 331800 EDNA MARCIA CAMILO DA SILVA OFICIAL DO MP SETE LAGOAS - COMARCA; SETE LAGOAS-PJ-SEC CRIMINAIS 10.069,62 3.020,89 0,00 0,00 0,00 0,00 0,00 1.550,00 14.640,51 1.439,96 2.282,40 0,00 0,00 3.722,36 10.918,15 31/07/2020
726 327900 EDRIEL SANTANA PEREIRA OFICIAL DO MP TUPACIGUARA - COMARCA; TUPACIGUARA-PJ-UNPJ 10.069,62 3.020,89 0,00 0,00 0,00 0,00 0,00 3.037,49 16.128,00 1.439,96 2.334,54 0,00 0,00 3.774,50 12.353,50 31/07/2020
727 482400 EDSON GARCIA OFICIAL DO MP MACHADO - COMARCA; MACHADO-PJ-02PJ 5.562,64 556,26 0,00 0,00 0,00 0,00 0,00 2.319,39 8.438,29 673,08 523,97 0,00 0,00 1.197,05 7.241,24 31/07/2020
728 225601 EDSON LABRE FILHO ANALISTA DO MP VARGINHA - COMARCA; VARGINHA-PJ-01PJ 15.272,02 4.581,61 0,00 0,00 0,00 0,00 0,00 1.550,00 21.403,63 2.183,90 3.937,68 0,00 0,00 6.121,58 15.282,05 31/07/2020
729 602700 EDSON NOGUEIRA BUENO OFICIAL DO MP PITANGUI - COMARCA; PITANGUI-PJ-02PJ 4.974,42 497,44 0,00 0,00 0,00 0,00 0,00 1.550,00 7.021,86 601,90 469,88 0,00 0,00 1.071,78 5.950,08 31/07/2020
730 414400 EDUARDO ABRANTES CAMPOS ANALISTA DO MP SÃO JOÃO DEL REI - COMARCA; SAO JOAO DEL REI-PJ-02PJ 12.601,30 2.520,26 0,00 0,00 5.040,52 0,00 0,00 1.550,00 21.712,08 1.663,37 4.217,79 0,00 0,00 5.881,16 15.830,92 31/07/2020
731 476800 EDUARDO ALVES DE MOURA ANALISTA DO MP UBERLÂNDIA - COMARCA; UBERLANDIA-PJ-02PJ 10.069,62 1.006,96 0,00 0,00 0,00 0,00 0,00 2.319,39 13.395,97 1.218,42 1.685,22 0,00 0,00 2.903,64 10.492,33 31/07/2020
732 390800 EDUARDO AMORIM PETTERSEN OFICIAL DO MP CARANGOLA - COMARCA; CARANGOLA-PJ-03PJ 7.912,85 1.582,57 0,00 0,00 0,00 0,00 0,00 2.319,39 11.814,81 1.044,50 1.454,64 0,00 0,00 2.499,14 9.315,67 31/07/2020
733 461600 EDUARDO ANTONIO DE ASSIS FARIA ASSESSOR BELO HORIZONTE - COMARCA; ASSESS EXECUTIVA DO CONSELHO SUPERIOR DO MP 0,00 0,00 8.170,49 0,00 0,00 0,00 0,00 2.319,39 10.489,88 713,09 1.379,65 0,00 0,00 2.092,74 8.397,14 31/07/2020
734 248800 EDUARDO DE CASTRO AMORIM ANALISTA DO MP BELO HORIZONTE - COMARCA; SUPERINTENDENCIA DE RECURSOS HUMANOS 18.103,37 5.431,01 0,00 0,00 0,00 0,00 0,00 1.550,00 25.084,38 2.588,78 4.890,68 0,00 0,00 7.479,46 17.604,92 31/07/2020
735 209100 EDUARDO DE SOUZA MAIA ANALISTA DO MP BELO HORIZONTE - COMARCA; ASSESS TECNICO-JUR JUNTO AS PROC. DE JUST 18.820,14 7.528,06 0,00 0,00 0,00 0,00 0,00 1.550,00 27.898,20 2.898,30 5.422,95 0,00 0,00 8.321,25 19.576,95 31/07/2020
736 633900 EDUARDO GONCALVES PIRES OFICIAL DO MP BELO HORIZONTE - COMARCA; BH-19PJ SAUDE-SECRETARIA 150PJ 5.217,34 1.565,20 0,00 0,00 0,00 0,00 0,00 1.550,00 8.332,54 746,08 790,67 0,00 0,00 1.536,75 6.795,79 31/07/2020
737 350500 EDUARDO GONCALVES RIBEIRO OFICIAL DO MP VESPASIANO - COMARCA; VESPASIANO-PJ-04PJ 8.170,49 1.634,10 0,00 0,00 0,00 0,00 0,00 1.550,00 11.354,59 1.078,50 1.530,31 0,00 0,00 2.608,81 8.745,78 31/07/2020
738 115800 EDUARDO HENRIQUE DE CAMPOS MAIA OFICIAL DO MP BELO HORIZONTE - COMARCA; DIV FISCAL ADM CONT TERCEIRIZACAO 15.272,02 7.636,01 0,00 0,00 0,00 0,00 0,00 1.550,00 24.458,03 2.519,88 4.580,97 0,00 0,00 7.100,85 17.357,18 31/07/2020
739 392600 EDUARDO HENRIQUE DOS SANTOS COSTA ELIAZAR OFICIAL DO MP MATOZINHOS - COMARCA; MATOZINHOS-PJ-01PJ 7.663,37 1.532,67 0,00 0,00 0,00 0,00 0,00 2.319,39 11.515,43 1.011,56 1.224,96 0,00 0,00 2.236,52 9.278,91 31/07/2020
740 407500 EDUARDO MASCARENHAS CURI AZEVEDO COORDENADOR/ANALISTA BELO HORIZONTE - COMARCA; CENTRO JORNALISMO 0,00 2.687,03 13.435,16 0,00 0,00 0,00 0,00 2.319,39 18.441,58 1.329,19 3.198,72 0,00 0,00 4.527,91 13.913,67 31/07/2020
741 601300 EDUARDO TRAD VIEIRA OFICIAL DO MP IBIRITÉ - COMARCA; IBIRITE-PJ-03PJ 4.974,42 497,44 0,00 0,00 0,00 0,00 0,00 1.550,00 7.021,86 601,90 469,88 0,00 0,00 1.071,78 5.950,08 31/07/2020
742 257600 EDUARDO VALADARES CABRAL ANALISTA DO MP BELO HORIZONTE - COMARCA; COORD DE INCLUSAO E MOBILIZACAO SOCIAIS 14.324,23 4.297,27 0,00 0,00 0,00 0,00 0,00 1.550,00 20.171,50 2.048,37 3.688,25 0,00 0,00 5.736,62 14.434,88 31/07/2020
743 545700 EDVAIR FERREIRA DE CARVALHO OFICIAL DO MP ARAGUARI - COMARCA; ARAGUARI-PJ-06PJ 4.974,42 497,44 0,00 0,00 0,00 0,00 0,00 1.550,00 7.021,86 601,90 374,30 0,00 0,00 976,20 6.045,66 31/07/2020
744 401700 EDWANIA AMORIM DO CARMO OFICIAL DO MP RIBEIRÃO DAS NEVES - COMARCA; RIBEIRAO DAS NEVES-PJ-03PJ 8.579,10 1.715,82 0,00 0,00 0,00 0,00 0,00 1.550,00 11.844,92 1.132,44 1.650,32 0,00 0,00 2.782,76 9.062,16 31/07/2020
745 303600 EFIGENIO SARAIVA LOPES ANALISTA DO MP BELO HORIZONTE - COMARCA; DIRETORIA DE PAGAMENTO DE PESSOAL-DPAG 16.750,82 5.025,25 0,00 0,00 0,00 0,00 0,00 1.550,00 23.326,07 2.395,37 4.356,06 0,00 0,00 6.751,43 16.574,64 31/07/2020
746 286000 ELAINE APARECIDA SILVA BERZOINI OFICIAL DO MP JUIZ DE FORA - COMARCA; JUIZ DE FORA-PJ-14PJ 10.069,62 3.020,89 0,00 0,00 0,00 0,00 0,00 1.550,00 14.640,51 1.439,96 2.334,54 0,00 0,00 3.774,50 10.866,01 31/07/2020
747 509000 ELAINE CANDIDA PONTES OFICIAL DO MP BELO HORIZONTE - COMARCA; BH-02PJ FAMILIA-SECRETARIA 7.187,72 718,77 0,00 0,00 0,00 0,00 0,00 1.550,00 9.456,49 869,71 1.065,75 0,00 0,00 1.935,46 7.521,03 31/07/2020
748 283601 ELAINE CRISTINA MEQUELINO DUARTE ANALISTA DO MP ALFENAS - COMARCA; ALFENAS-PJ-02PJ 13.011,52 2.602,30 0,00 0,00 0,00 0,00 0,00 1.550,00 17.163,82 1.717,52 2.847,85 0,00 0,00 4.565,37 12.598,45 31/07/2020
749 535500 ELAINE DE OLIVEIRA CAMPOS REIS OFICIAL DO MP RIBEIRÃO DAS NEVES - COMARCA; SEC PJ EXECUCAO PENAL RIBEIRAO NEVES 5.387,19 538,72 0,00 0,00 0,00 0,00 0,00 1.550,00 7.475,91 651,85 581,01 0,00 0,00 1.232,86 6.243,05 31/07/2020
750 455700 ELAINE DE OLIVEIRA CASTRO ANALISTA DO MP POMPÉU - COMARCA; POMPEU-PJ-UNPJ 10.069,62 1.006,96 0,00 0,00 0,00 0,00 0,00 2.319,39 13.395,97 1.218,42 1.789,50 0,00 0,00 3.007,92 10.388,05 31/07/2020
751 367200 ELAINE MUNIZ BARBOSA ANALISTA DO MP BELO HORIZONTE - COMARCA; DIRETORIA DE SISTEMAS DE INFORMACAO 14.324,23 2.864,85 0,00 0,00 0,00 0,00 0,00 2.319,39 19.508,47 1.890,80 3.285,53 0,00 0,00 5.176,33 14.332,14 31/07/2020
752 176900 ELAINE RIBEIRO TAVEIRA OFICIAL DO MP BELO HORIZONTE - COMARCA; DIRETORIA DE PESSOAL ADMINISTRATIVO - DPAD 11.819,15 4.727,66 0,00 0,00 0,00 0,00 0,00 1.550,00 18.096,81 1.820,15 3.180,47 0,00 0,00 5.000,62 13.096,19 31/07/2020
753 496200 ELAINE SABRINA MOREIRA SCHUWARTEN ANALISTA DO MP CORONEL FABRICIANO - COMARCA; CORONEL FABRICIANO-PJ-03PJ 10.069,62 1.006,96 0,00 0,00 0,00 0,00 0,00 1.550,00 12.626,58 1.218,42 1.841,63 0,00 0,00 3.060,05 9.566,53 31/07/2020
754 489200 ELAINE VICENTINO GARCIA ANALISTA DO MP BELO HORIZONTE - COMARCA; CENTRAL DE APOIO TECNICO-SETOR CONTABIL 10.069,62 3.020,89 0,00 0,00 0,00 0,00 0,00 1.550,00 14.640,51 1.439,96 2.230,27 0,00 0,00 3.670,23 10.970,28 31/07/2020
755 244500 ELCI ALVES DE SOUZA ASSESSOR BELO HORIZONTE - COMARCA; CAO-CONFLITOS AGRARIOS-SECRETARIA 0,00 1.540,90 5.136,32 0,00 0,00 0,00 0,00 1.550,00 8.227,22 713,09 1.021,14 0,00 0,00 1.734,23 6.492,99 31/07/2020
756 472500 ELCI VAZ DE OLIVEIRA FILHO ANALISTA DO MP PIUMHI - COMARCA; PIUMHI-PJ-02PJ 10.069,62 5.034,81 0,00 0,00 0,00 0,00 0,00 1.550,00 16.654,43 1.661,49 2.827,45 0,00 0,00 4.488,94 12.165,49 31/07/2020
757 385200 ELCI VIANA REIS OFICIAL DO MP RIO PARDO DE MINAS - COMARCA; RIO PARDO DE MINAS-PJ-SECRETARIA 8.579,10 3.431,64 0,00 0,00 0,00 0,00 0,00 1.550,00 13.560,74 1.321,18 2.070,27 0,00 0,00 3.391,45 10.169,29 31/07/2020
758 289801 ELCIO JOSE DOS SANTOS ASSESSOR/ANALISTA BELO HORIZONTE - COMARCA; DIVISAO DE SERVICOS 0,00 2.520,26 12.601,30 0,00 0,00 0,00 0,00 1.550,00 16.671,56 1.329,19 2.923,54 0,00 0,00 4.252,73 12.418,83 31/07/2020
759 319600 ELEN TULER DE ALBERGARIA ANALISTA DO MP BELO HORIZONTE - COMARCA; BH-19PJ SAUDE-SECRETARIA 130PJ 13.435,16 5.374,06 0,00 0,00 0,00 0,00 0,00 1.550,00 20.359,22 2.069,01 3.734,20 0,00 0,00 5.803,21 14.556,01 31/07/2020
760 151000 ELI LOURENCO RIBEIRO AGENTE DO MP BELO HORIZONTE - COMARCA; BH-19PJ SAUDE-SECRETARIA 130PJ 5.368,04 5.368,04 0,00 0,00 0,00 0,00 0,00 1.550,00 12.286,08 1.771,45 892,12 0,00 0,00 2.663,57 9.622,51 31/07/2020
761 205500 ELIANA ALVES DE SOUSA OFICIAL DO MP GOVERNADOR VALADARES - COMARCA; GOVERNADOR VALADARES-PJ-07PJ 9.146,93 3.658,77 0,00 0,00 4.268,57 0,00 0,00 1.550,00 18.624,27 1.408,63 3.438,69 0,00 0,00 4.847,32 13.776,95 31/07/2020
762 628800 ELIANA APARECIDA PEREIRA ANALISTA DO MP CAMBUÍ - COMARCA; CAMBUI-PJ-02PJ 7.421,79 742,18 0,00 0,00 0,00 0,00 0,00 1.550,00 9.713,97 898,04 1.076,63 0,00 0,00 1.974,67 7.739,30 31/07/2020
763 301700 ELIANA DA SILVEIRA ANALISTA DO MP BELO HORIZONTE - COMARCA; ASSESS TECNICO-JUR JUNTO AS PROC. DE JUST 14.790,66 4.437,20 0,00 0,00 0,00 0,00 0,00 1.550,00 20.777,86 2.115,06 3.836,66 0,00 0,00 5.951,72 14.826,14 31/07/2020
764 251500 ELIANA DE LIMA MILAGRES FONSECA ANALISTA DO MP CONTAGEM - COMARCA; CONTAGEM-PJ-21PJ 14.790,66 4.437,20 0,00 0,00 0,00 0,00 0,00 1.550,00 20.777,86 2.115,06 3.732,39 0,00 0,00 5.847,45 14.930,41 31/07/2020
765 503900 ELIANA DIAS DUTRA FERREIRA OFICIAL DO MP GOVERNADOR VALADARES - COMARCA; GOVERNADOR VALADARES-PJ-10PJ 7.421,79 742,18 0,00 0,00 0,00 0,00 0,00 0,00 8.163,97 898,04 1.024,50 0,00 0,00 1.922,54 6.241,43 31/07/2020
766 413900 ELIANA PINTO DE OLIVEIRA NEVES ANALISTA DO MP CAMPO BELO - COMARCA; CAMPO BELO-PJ-04PJ 12.204,02 2.440,80 0,00 0,00 0,00 0,00 0,00 2.319,39 16.964,21 1.610,93 2.714,96 0,00 0,00 4.325,89 12.638,32 31/07/2020
767 228200 ELIANA RODRIGUES DA CUNHA PINHEIRO OFICIAL DO MP BELO HORIZONTE - COMARCA; DIRETORIA DE PROJETOS DE EDIFICACOES 12.204,02 3.661,21 0,00 40,52 0,00 1.987,41 0,00 1.550,00 19.443,16 1.745,18 3.493,58 0,00 0,00 5.238,76 14.204,40 31/07/2020
768 386600 ELIANA SABINO CHAVES PESSOA ANALISTA DO MP CARATINGA - COMARCA; CARATINGA-PJ-06PJ 12.601,30 8.820,91 0,00 0,00 0,00 0,00 0,00 1.550,00 22.972,21 2.356,44 4.321,59 0,00 0,00 6.678,03 16.294,18 31/07/2020
769 297400 ELIANE AUGUSTA RIBEIRO COSTA ANALISTA DO MP CONSELHEIRO LAFAIETE - COMARCA; CONSELHEIRO LAFAIETE-PJ-05PJ 16.750,82 5.025,25 0,00 0,00 0,00 0,00 0,00 1.550,00 23.326,07 2.395,37 4.356,06 0,00 0,00 6.751,43 16.574,64 31/07/2020
770 510600 ELIANE CAROLINA MAIA ANALISTA DO MP IGARAPÉ - COMARCA; IGARAPE-PJ-03PJ 10.069,62 1.006,96 0,00 0,00 0,00 0,00 0,00 1.550,00 12.626,58 1.218,42 1.685,22 0,00 0,00 2.903,64 9.722,94 31/07/2020
771 269300 ELIANE EDLAMAR ROCHA OFICIAL DO MP PEDRO LEOPOLDO - COMARCA; PEDRO LEOPOLDO-PJ-02PJ 9.444,70 2.833,41 0,00 0,00 0,00 0,00 0,00 1.550,00 13.828,11 1.350,59 2.083,57 0,00 0,00 3.434,16 10.393,95 31/07/2020
772 262600 ELIANE FERREIRA SOARES ASSESSOR BELO HORIZONTE - COMARCA; BH-18PJ DIREITOS HUMANOS-SECRETARIA 0,00 2.054,53 5.136,32 0,00 0,00 0,00 0,00 1.550,00 8.740,85 713,09 1.162,39 0,00 0,00 1.875,48 6.865,37 31/07/2020
773 204400 ELIANE GLAUCE DE QUEIROS MAIA OFICIAL DO MP GUANHÃES - COMARCA; GUANHAES-PJ-02PJ 14.324,23 5.729,69 0,00 0,00 0,00 0,00 0,00 2.319,39 22.373,31 2.205,93 4.038,84 0,00 0,00 6.244,77 16.128,54 31/07/2020
774 91800 ELIANE KAPLER ALVES OFICIAL DO MP BELO HORIZONTE - COMARCA; DIVISAO DE CONTROLE IMOBILIARIO 18.820,14 9.410,07 0,00 0,00 0,00 0,00 0,00 1.550,00 29.780,21 3.105,32 5.935,71 0,00 0,00 9.041,03 20.739,18 31/07/2020
775 334200 ELIANE MARCIA DE OLIVEIRA BRITO OFICIAL DO MP BELO HORIZONTE - COMARCA; BH-08PJ JUIZADO ESPECIAL-SECRETARIA 6.123,79 1.837,14 0,00 0,00 0,00 0,00 0,00 1.550,00 9.510,93 875,70 1.079,08 0,00 0,00 1.954,78 7.556,15 31/07/2020
776 365900 ELIANE MARIA DE OLIVEIRA FERREIRA OFICIAL DO MP SETE LAGOAS - COMARCA; SETE LAGOAS-PJ-SEC CRIMINAIS 9.146,93 4.573,47 0,00 0,00 0,00 0,00 0,00 1.550,00 15.270,40 1.509,24 2.488,71 0,00 0,00 3.997,95 11.272,45 31/07/2020
777 320600 ELIANE STADLER DE SOUZA OFICIAL DO MP FRANCISCO SÁ - COMARCA; FRANCISCO SA-PJ-SECRETARIA 8.858,43 1.771,69 0,00 0,00 3.543,37 0,00 0,00 1.550,00 15.723,49 1.169,31 2.654,65 0,00 0,00 3.823,96 11.899,53 31/07/2020
778 448900 ELIAS PEREIRA OTONI ASSESSOR BELO HORIZONTE - COMARCA; BH-18PJ DIREITOS HUMANOS-SECRETARIA 0,00 0,00 5.136,32 0,00 0,00 0,00 0,00 1.550,00 6.686,32 713,09 545,25 0,00 0,00 1.258,34 5.427,98 31/07/2020
779 495400 ELICA SOUZA GASPARONI MATTOS OFICIAL DO MP UBÁ - COMARCA; UBA-PJ-06PJ 7.421,79 742,18 0,00 0,00 0,00 0,00 0,00 1.550,00 9.713,97 898,04 1.128,77 0,00 0,00 2.026,81 7.687,16 31/07/2020
780 86600 ELIENE FERREIRA DA SILVA OFICIAL DO MP BELO HORIZONTE - COMARCA; BH-22PJ PES COM DEF E IDOSOS-SECRETARIA 21.145,12 14.801,58 0,00 0,00 0,00 0,00 520,11 7.223,95 43.690,76 3.900,84 7.653,61 484,48 0,00 12.038,93 31.651,83 31/07/2020
781 183800 ELIENE MARIA CUNHA OFICIAL DO MP BELO HORIZONTE - COMARCA; DIRETORIA DE PESSOAL ADMINISTRATIVO - DPAD 14.790,66 5.916,26 0,00 0,00 0,00 0,00 0,00 1.550,00 22.256,92 2.277,76 4.146,52 0,00 0,00 6.424,28 15.832,64 31/07/2020
782 172300 ELINA APARECIDA SILVA ASSESSOR BELO HORIZONTE - COMARCA; BH-19PJ SAUDE-SECRETARIA 130PJ 0,00 1.230,51 3.076,28 0,00 0,00 0,00 0,00 1.550,00 5.856,79 662,56 346,01 0,00 0,00 1.008,57 4.848,22 31/07/2020
783 492501 ELINE CAMPOS DA FONSECA CUNHA ANALISTA DO MP PONTE NOVA - COMARCA; PONTE NOVA-PJ-02PJ 8.858,43 885,84 0,00 0,00 0,00 0,00 0,00 1.550,00 11.294,27 1.071,87 1.515,55 0,00 0,00 2.587,42 8.706,85 31/07/2020
784 618900 ELISA MOURA VIEIRA MARCATTI OFICIAL DO MP BELO HORIZONTE - COMARCA; BH-23PJ CIVEL-SEC EXP CIVEIS 5.217,34 521,73 0,00 0,00 0,00 0,00 0,00 2.319,39 8.058,46 631,30 535,28 0,00 0,00 1.166,58 6.891,88 31/07/2020
785 256500 ELISABETE NOGUEIRA ANALISTA DO MP RIBEIRÃO DAS NEVES - COMARCA; SEC PJ EXECUCAO PENAL RIBEIRAO NEVES 14.324,23 7.162,12 0,00 0,00 7.162,12 0,00 0,00 1.550,00 30.198,47 2.363,50 6.202,60 0,00 0,00 8.566,10 21.632,37 31/07/2020
786 355000 ELISANGELA DARLANTONI RIBEIRO OFICIAL DO MP ARAXÁ - COMARCA; ARAXA-PJ-05PJ 8.436,53 1.687,31 0,00 0,00 0,00 0,00 0,00 1.550,00 11.673,84 1.113,62 1.556,31 0,00 0,00 2.669,93 9.003,91 31/07/2020
787 604400 ELISANGELA DEMASI FERREIRA MOREIRA ANALISTA DO MP POÇOS DE CALDAS - COMARCA; POCOS DE CALDAS-PJ-06PJ 8.436,53 843,65 0,00 0,00 0,00 0,00 0,00 1.550,00 10.830,18 1.020,82 1.401,96 0,00 0,00 2.422,78 8.407,40 31/07/2020
788 323800 ELISANGELA GONCALVES DE JESUS OFICIAL DO MP BELO HORIZONTE - COMARCA; BH-09PJ AUDITORIA MILITAR-SECRETARIA 9.146,93 2.744,08 0,00 0,00 0,00 0,00 0,00 1.909,05 13.800,06 1.308,01 1.988,83 0,00 0,00 3.296,84 10.503,22 31/07/2020
789 507400 ELISANGELA MIGUEL DA ROCHA SILVA ASSESSOR BELO HORIZONTE - COMARCA; CGMP-DIVIS DE APOIO FISC ORIENTACAO FUNCIONAL 0,00 0,00 3.076,28 0,00 0,00 0,00 0,00 2.319,39 5.395,67 476,70 171,70 0,00 0,00 648,40 4.747,27 31/07/2020
790 261400 ELISANGELA REZENDE MENDES OFICIAL DO MP POUSO ALEGRE - COMARCA; POUSO ALEGRE-PJ-05PJ 9.752,14 2.925,64 0,00 0,00 0,00 0,00 0,00 1.550,00 14.227,78 1.394,56 2.233,53 0,00 0,00 3.628,09 10.599,69 31/07/2020
791 534100 ELISANGELA ROSINE SILVA OFICIAL DO MP UBERABA - COMARCA; UBERABA-PJ-06PJ 4.974,42 497,44 0,00 0,00 0,00 0,00 0,00 1.550,00 7.021,86 601,90 469,88 0,00 0,00 1.071,78 5.950,08 31/07/2020
792 634300 ELIUDE GRACA DAMASIO ROSARIO FRANCELINO OFICIAL DO MP BELO HORIZONTE - COMARCA; BH-18PJ VIOLENCIA DOMESTICA-SECRETARIA 4.376,03 437,60 0,00 0,00 0,00 0,00 0,00 2.319,39 7.133,02 529,50 327,80 0,00 0,00 857,30 6.275,72 31/07/2020
793 461700 ELIZABETH ALEIXO DA PAZ ANALISTA DO MP JUIZ DE FORA - COMARCA; JUIZ DE FORA-PJ-19PJ 10.069,62 1.006,96 0,00 0,00 0,00 0,00 0,00 1.550,00 12.626,58 1.218,42 1.841,63 0,00 0,00 3.060,05 9.566,53 31/07/2020
794 227300 ELIZABETH COIMBRA FELIX ASSESSOR/OFICIAL BELO HORIZONTE - COMARCA; DIRETORIA DE PAGAMENTO DE PESSOAL-DPAG 12.601,30 5.040,52 2.520,26 0,00 0,00 0,00 0,00 1.550,00 21.712,08 1.940,60 4.037,27 0,00 0,00 5.977,87 15.734,21 31/07/2020
795 354800 ELIZABETH DOS REIS OFICIAL DO MP BELO HORIZONTE - COMARCA; DIVISAO DE MATERIAIS 9.146,93 1.829,39 0,00 0,00 0,00 0,00 0,00 1.550,00 12.526,32 1.207,40 1.764,96 0,00 0,00 2.972,36 9.553,96 31/07/2020
796 612000 ELIZABETH MARIA DE QUEIROZ TANIGUCHI OFICIAL DO MP BELO HORIZONTE - COMARCA; SUPERINTENDENCIA DE RECURSOS HUMANOS 4.817,57 481,76 0,00 0,00 0,00 0,00 0,00 1.550,00 6.849,33 582,93 427,65 0,00 0,00 1.010,58 5.838,75 31/07/2020
797 452800 ELIZANGELA MARIA DAVI OFICIAL DO MP ARCOS - COMARCA; ARCOS-PJ-01PJ 6.123,79 1.224,76 0,00 0,00 0,00 0,00 0,00 1.550,00 8.898,55 808,34 877,06 0,00 0,00 1.685,40 7.213,15 31/07/2020
798 496300 ELIZANGELA MARQUES PINTO COELHO OFICIAL DO MP BELO HORIZONTE - COMARCA; DIRETORIA DE PESSOAL ADMINISTRATIVO - DPAD 7.421,79 742,18 0,00 0,00 0,00 0,00 0,00 1.550,00 9.713,97 898,04 1.128,77 0,00 0,00 2.026,81 7.687,16 31/07/2020
799 422500 ELIZETE FORTES DA CUNHA ANALISTA DO MP RIBEIRÃO DAS NEVES - COMARCA; RIBEIRAO DAS NEVES-PJ-07PJ 12.601,30 2.520,26 0,00 0,00 0,00 0,00 0,00 1.550,00 16.671,56 1.663,37 2.779,51 0,00 0,00 4.442,88 12.228,68 31/07/2020
800 506100 ELLEM CRISTINA ROCHA FONSECA BOWEN ANALISTA DO MP GOVERNADOR VALADARES - COMARCA; COORD REG PJ DEF EDU DIR CRIANCA ADOL RIODOCE 10.069,62 1.006,96 0,00 0,00 0,00 0,00 0,00 1.703,88 12.780,46 1.218,42 1.841,63 0,00 0,00 3.060,05 9.720,41 31/07/2020
801 468200 ELLEN CRISTINA BERNARDES DARE ANALISTA DO MP TRÊS PONTAS - COMARCA; TRES PONTAS-PJ-02PJ 10.069,62 1.006,96 0,00 0,00 0,00 0,00 0,00 2.319,39 13.395,97 1.218,42 1.789,50 0,00 0,00 3.007,92 10.388,05 31/07/2020
802 418800 ELLEN CRISTINA DE QUEIROZ FERREIRA ANALISTA DO MP BELO HORIZONTE - COMARCA; CENTRAL DE APOIO TECNICO-SETOR CONTABIL 12.204,02 2.440,80 0,00 0,00 0,00 0,00 0,00 2.319,39 16.964,21 1.610,93 2.714,96 0,00 0,00 4.325,89 12.638,32 31/07/2020
803 328401 ELLEN CRISTINA FERREIRA MORAIS MONTEIRO ANALISTA DO MP CAMANDUCAIA - COMARCA; CAMANDUCAIA-PJ-UNPJ 12.204,02 2.440,80 0,00 0,00 0,00 0,00 0,00 1.550,00 16.194,82 1.610,93 2.610,69 0,00 0,00 4.221,62 11.973,20 31/07/2020
804 556100 ELLEN CRISTINE BIANCHIN DA SILVA OFICIAL DO MP SÃO GONÇALO DO SAPUCAÍ - COMARCA; SAO GONCALO DO SAPUCAI-PJ-02PJ 4.974,42 497,44 0,00 0,00 0,00 0,00 0,00 1.550,00 7.021,86 601,90 417,74 0,00 0,00 1.019,64 6.002,22 31/07/2020
805 447100 ELLEN ROSANA DE MACEDO BORGES OFICIAL DO MP UBERLÂNDIA - COMARCA; UBERLANDIA-PJ-17PJ 7.663,37 1.532,67 0,00 0,00 0,00 0,00 0,00 1.550,00 10.746,04 1.011,56 1.381,37 0,00 0,00 2.392,93 8.353,11 31/07/2020
806 477700 ELMA JACOB OFICIAL DO MP BELO HORIZONTE - COMARCA; COORD DE GABINETE DO PGJ 7.421,79 5.195,26 0,00 32,27 0,00 1.580,63 0,00 1.550,00 15.779,95 1.387,88 2.600,33 0,00 0,00 3.988,21 11.791,74 31/07/2020
807 123300 ELMA PAULA DOS SANTOS COELHO OFICIAL DO MP BELO HORIZONTE - COMARCA; BH-19PJ SAUDE-SECRETARIA 130PJ 16.750,82 15.075,74 0,00 86,19 0,00 3.809,94 0,00 1.550,00 37.272,69 3.500,92 7.882,94 0,00 0,00 11.383,86 25.888,83 31/07/2020
808 356500 ELOISA CARDOSO SILVA FRANCA OFICIAL DO MP PEÇANHA - COMARCA; PECANHA-PJ-SECRETARIA 6.123,79 1.224,76 0,00 0,00 0,00 0,00 0,00 1.550,00 8.898,55 808,34 772,79 0,00 0,00 1.581,13 7.317,42 31/07/2020
809 251901 ELOISA COSTA E SILVA ANALISTA DO MP SANTOS DUMONT - COMARCA; SANTOS DUMONT-PJ-02PJ 10.069,62 3.020,89 0,00 0,00 4.363,50 0,00 0,00 2.319,39 19.773,40 1.439,96 3.482,37 0,00 0,00 4.922,33 14.851,07 31/07/2020
810 400400 ELOIZA MARIA FERRI PIRES DA SILVA OFICIAL DO MP BELO HORIZONTE - COMARCA; ASSESSORIA TECNICA DO PROCON-MG 7.663,37 1.532,67 0,00 0,00 0,00 0,00 0,00 1.550,00 10.746,04 1.011,56 1.329,23 0,00 0,00 2.340,79 8.405,25 31/07/2020
811 258000 ELSO CECIANO PALMEIRA COORDENADOR/OFICIAL BELO HORIZONTE - COMARCA; DIRET DE PESSOAL DO MINISTERIO PUBLICO - DPMP 11.085,56 7.759,89 2.836,60 0,00 0,00 0,00 0,00 1.550,00 23.232,05 2.073,00 4.523,13 0,00 0,00 6.596,13 16.635,92 31/07/2020
812 206900 ELVIRA RITA DOS SANTOS ANALISTA DO MP BELO HORIZONTE - COMARCA; CENTRAL DE APOIO TECNICO-SETOR CONTABIL 18.820,14 7.528,06 0,00 68,88 0,00 3.036,08 0,00 1.550,00 31.003,16 2.898,30 6.376,40 0,00 0,00 9.274,70 21.728,46 31/07/2020
813 506800 ELVIS FERREIRA DA SILVA ANALISTA DO MP BELO HORIZONTE - COMARCA; DIRETORIA DE SISTEMAS DE INFORMACAO 10.069,62 1.006,96 0,00 0,00 0,00 0,00 0,00 2.319,39 13.395,97 1.218,42 1.685,22 0,00 0,00 2.903,64 10.492,33 31/07/2020
814 602400 ELZA MARIA MOREIRA MUNIZ ANALISTA DO MP CARMO DO PARANAÍBA - COMARCA; CARMO DO PARANAIBA-PJ-02PJ 8.436,53 843,65 0,00 0,00 0,00 0,00 0,00 1.550,00 10.830,18 1.020,82 1.297,69 0,00 0,00 2.318,51 8.511,67 31/07/2020
815 368401 ELZIRA SIMOES DOS SANTOS ASSESSOR BELO HORIZONTE - COMARCA; ASSESSORIA DE COMUNICACAO INTEGRADA 0,00 3.433,94 11.446,46 0,00 0,00 0,00 0,00 1.550,00 16.430,40 713,09 3.329,15 0,00 0,00 4.042,24 12.388,16 31/07/2020
816 437400 EMANOELLE DA SILVA RODRIGUES OFICIAL DO MP UNAÍ - COMARCA; UNAI-PJ-03PJ 6.961,05 696,11 0,00 0,00 0,00 0,00 0,00 3.088,78 10.745,94 842,29 952,59 0,00 0,00 1.794,88 8.951,06 31/07/2020
817 458900 EMANUELLE CONRAD SILVA FREDERICO NAVES ANALISTA DO MP ALFENAS - COMARCA; ALFENAS-PJ-05PJ 12.204,02 1.220,40 0,00 0,00 0,00 0,00 0,00 2.319,39 15.743,81 1.476,69 2.364,13 0,00 0,00 3.840,82 11.902,99 31/07/2020
818 284100 EMERSON MAGNO ALMEIDA PEDROSA DA FONSECA ANALISTA DO MP BELO HORIZONTE - COMARCA; CENTRAL DE APOIO TECNICO-SETOR CONTABIL 16.750,82 5.025,25 0,00 0,00 0,00 0,00 0,00 1.550,00 23.326,07 2.395,37 2.972,79 0,00 0,00 5.368,16 17.957,91 31/07/2020
819 179900 EMERSON MORAIS DIAS OFICIAL DO MP BELO HORIZONTE - COMARCA; SUPERINTENDÊNCIA DE ENGENHARIA E ARQUITETURA 14.790,66 5.916,26 0,00 0,00 0,00 0,00 0,00 1.550,00 22.256,92 2.277,76 4.198,66 0,00 0,00 6.476,42 15.780,50 31/07/2020
820 488700 EMERSON SIQUEIRA DE SOUSA TEIXEIRA ANALISTA DO MP TARUMIRIM - COMARCA; TARUMIRIM-PJ-UNPJ 10.069,62 1.006,96 0,00 0,00 0,00 0,00 0,00 1.550,00 12.626,58 1.218,42 1.685,22 0,00 0,00 2.903,64 9.722,94 31/07/2020
821 194200 EMILIA ALVES FERREIRA RAMOS OFICIAL DO MP UBERLÂNDIA - COMARCA; UBERLANDIA-PJ-SEC FAMILIA 9.146,93 3.658,77 0,00 0,00 0,00 0,00 0,00 1.550,00 14.355,70 1.408,63 2.264,83 0,00 0,00 3.673,46 10.682,24 31/07/2020
822 123400 EMILIO CARLOS MARTINS OFICIAL DO MP AREADO - COMARCA; AREADO-PJ-UNPJ 17.413,92 13.931,14 0,00 92,09 0,00 3.763,73 0,00 1.550,00 36.750,88 3.447,96 7.698,39 0,00 0,00 11.146,35 25.604,53 31/07/2020
823 620700 EMILY FONTANA DE SIQUEIRA ANALISTA DO MP BELO HORIZONTE - COMARCA; BH-18PJ VIOLENCIA DOMESTICA-SECRETARIA 8.170,49 817,05 0,00 0,00 0,00 0,00 0,00 2.319,39 11.306,93 988,63 1.278,20 0,00 0,00 2.266,83 9.040,10 31/07/2020
824 297000 ENEIDA SOARES COSTA MELO ANALISTA DO MP PIUMHI - COMARCA; PIUMHI-PJ-01PJ 16.750,82 5.025,25 0,00 0,00 0,00 0,00 0,00 1.550,00 23.326,07 2.395,37 4.460,33 0,00 0,00 6.855,70 16.470,37 31/07/2020
825 276000 ENEZIO RODRIGUES DE SOUZA FILHO OFICIAL DO MP UBERLÂNDIA - COMARCA; UBERLANDIA-PJ-10PJ 10.069,62 3.020,89 0,00 0,00 0,00 0,00 0,00 1.550,00 14.640,51 1.439,96 2.334,54 0,00 0,00 3.774,50 10.866,01 31/07/2020
826 387700 ENI MARIA DOS REIS OFICIAL DO MP POUSO ALEGRE - COMARCA; POUSO ALEGRE-PJ-07PJ 8.579,10 1.715,82 0,00 0,00 0,00 0,00 0,00 1.550,00 11.844,92 1.132,44 1.650,32 0,00 0,00 2.782,76 9.062,16 31/07/2020
827 605100 ENIA MAIA ASSESSOR/OFICIAL BELO HORIZONTE - COMARCA; DIRETORIA DE ORCAMENTO-DIOR/SPC 0,00 1.039,75 10.397,52 0,00 0,00 0,00 0,00 1.550,00 12.987,27 670,93 2.090,70 0,00 0,00 2.761,63 10.225,64 31/07/2020
828 612200 ENILDO GOMES MEIRA FILHO ANALISTA DO MP BUENÓPOLIS - COMARCA; BUENOPOLIS-PJ-UNPJ 8.170,49 817,05 0,00 0,00 0,00 0,00 0,00 2.319,39 11.306,93 988,63 1.173,93 0,00 0,00 2.162,56 9.144,37 31/07/2020
829 553700 ENIVALDO NOVATO PUBLIO ANALISTA DO MP DIVINÓPOLIS - COMARCA; DIVINOPOLIS-PJ-09PJ 8.436,53 843,65 0,00 0,00 0,00 0,00 0,00 1.550,00 10.830,18 1.020,82 1.349,83 0,00 0,00 2.370,65 8.459,53 31/07/2020
830 417300 ERIC BARATTI DA SILVA ANALISTA DO MP PRATA - COMARCA; PRATA-PJ-UNPJ 10.069,62 2.013,92 0,00 0,00 0,00 0,00 0,00 1.550,00 13.633,54 1.329,19 2.088,09 0,00 0,00 3.417,28 10.216,26 31/07/2020
831 637600 ERIC DA ROCHA CHEHUEN ANALISTA DO MP LIMA DUARTE - COMARCA; LIMA DUARTE-PJ-UNPJ 7.421,79 742,18 0,00 0,00 0,00 0,00 0,00 1.550,00 9.713,97 671,12 1.191,17 0,00 0,00 1.862,29 7.851,68 31/07/2020
832 398900 ERIC TEIXEIRA SILVA OFICIAL DO MP UBERLÂNDIA - COMARCA; UBERLANDIA-PJ-SEC CIVEIS CRIMINAIS 8.436,53 1.687,31 0,00 0,00 0,00 0,00 0,00 1.550,00 11.673,84 1.113,62 1.608,45 0,00 0,00 2.722,07 8.951,77 31/07/2020
833 274200 ERICA DE SOUZA ANDRADE OFICIAL DO MP CURVELO - COMARCA; CURVELO-PJ-03PJ 10.069,62 3.020,89 0,00 0,00 0,00 0,00 0,00 1.550,00 14.640,51 1.439,96 2.282,40 0,00 0,00 3.722,36 10.918,15 31/07/2020
834 225700 ERICA GOMES DO COUTO OFICIAL DO MP BELO HORIZONTE - COMARCA; BH-21PJ TUTELA FUNDACOES-SECRETARIA 13.011,52 3.903,46 0,00 0,00 0,00 0,00 0,00 2.319,39 19.234,37 1.860,65 3.270,58 0,00 0,00 5.131,23 14.103,14 31/07/2020
835 632600 ERICA LEONOR MARTINS OFICIAL DO MP RESENDE COSTA - COMARCA; RESENDE COSTA-PJ-UNPJ 4.817,57 481,76 0,00 0,00 0,00 0,00 0,00 1.550,00 6.849,33 582,93 427,65 0,00 0,00 1.010,58 5.838,75 31/07/2020
836 524800 ERICA MACHADO DA COSTA E SOUZA ANALISTA DO MP BELO HORIZONTE - COMARCA; PROC JUST RECURSOS ESP E EXTRAORD CRIMINAIS 10.069,62 1.006,96 0,00 0,00 0,00 0,00 0,00 1.550,00 12.626,58 1.218,42 1.841,63 0,00 0,00 3.060,05 9.566,53 31/07/2020
837 249500 ERICA RODRIGUES ANDRADE OFICIAL DO MP SÃO FRANCISCO - COMARCA; SAO FRANCISCO-PJ-02PJ 8.858,43 2.657,53 0,00 0,00 0,00 0,00 0,00 1.550,00 13.065,96 1.266,76 1.897,03 0,00 0,00 3.163,79 9.902,17 31/07/2020
838 260800 ERICA VIANA GIARDINI DE OLIVEIRA OFICIAL DO MP BELO HORIZONTE - COMARCA; DIRETORIA GESTAO COMPRAS LICITACOES 10.069,62 3.020,89 0,00 0,00 0,00 0,00 0,00 1.550,00 14.640,51 1.439,96 2.334,54 0,00 0,00 3.774,50 10.866,01 31/07/2020
839 299800 ERICH DOUGLAS RIBEIRO GARCIA ANALISTA DO MP BELO HORIZONTE - COMARCA; CENTRAL DE APOIO TECNICO-SETOR CONTABIL 15.272,02 4.581,61 0,00 0,00 0,00 0,00 0,00 1.550,00 21.403,63 2.183,90 3.989,82 0,00 0,00 6.173,72 15.229,91 31/07/2020
840 365000 ERICK EDUARDO JOSE DA SILVA OFICIAL DO MP SANTOS DUMONT - COMARCA; SANTOS DUMONT-PJ-02PJ 6.123,79 1.224,76 0,00 0,00 0,00 0,00 0,00 1.550,00 8.898,55 808,34 929,20 0,00 0,00 1.737,54 7.161,01 31/07/2020
841 227400 ERIKA DE LAET GOULART BOECHAT ASSESSOR/OFICIAL BELO HORIZONTE - COMARCA; ASSESSORIA ESPECIAL DO PGJ 13.011,52 3.903,46 2.520,26 0,00 0,00 0,00 0,00 1.550,00 20.985,24 1.860,65 3.911,52 0,00 0,00 5.772,17 15.213,07 31/07/2020
842 285100 ERIKA FERREIRA DA SILVA OFICIAL DO MP JUIZ DE FORA - COMARCA; JUIZ DE FORA-PJ-11PJ 10.069,62 3.020,89 0,00 0,00 0,00 0,00 0,00 1.550,00 14.640,51 1.439,96 2.334,54 0,00 0,00 3.774,50 10.866,01 31/07/2020
843 420100 ERIKA JEANINE VERSIANI DE CASTRO ANALISTA DO MP BELO HORIZONTE - COMARCA; COORD ESTADUAL DE DEFESA DA EDUCACAO 12.601,30 2.520,26 0,00 0,00 0,00 0,00 0,00 1.550,00 16.671,56 1.663,37 2.831,64 0,00 0,00 4.495,01 12.176,55 31/07/2020
844 606900 ERIKA MARIA BARBOSA ANALISTA DO MP BELO HORIZONTE - COMARCA; CAO-SAUDE 7.663,37 766,34 0,00 0,00 0,00 0,00 0,00 1.550,00 9.979,71 927,27 1.141,67 0,00 0,00 2.068,94 7.910,77 31/07/2020
845 491000 ERIKA ROCHA PEREIRA E SILVA COORDENADOR/ANALISTA BELO HORIZONTE - COMARCA; DIR GOVERNANCA TECNOLOGIA INFORMACAO 0,00 1.343,52 13.435,16 0,00 0,00 0,00 0,00 1.550,00 16.328,68 1.218,42 2.858,17 0,00 0,00 4.076,59 12.252,09 31/07/2020
846 283201 ERIKA STEHLING COORDENADOR/ANALISTA BELO HORIZONTE - COMARCA; CENTRAL DE APOIO TECNICO-SETOR DE ENGENHARIA 10.069,62 1.006,96 2.363,83 0,00 0,00 0,00 0,00 1.550,00 14.990,41 1.218,42 2.491,69 0,00 0,00 3.710,11 11.280,30 31/07/2020
847 254000 ERLANDIA DA SILVA MENDES OFICIAL DO MP IPATINGA - COMARCA; IPATINGA-PJ-03PJ 12.204,02 4.881,61 0,00 0,00 0,00 0,00 0,00 1.550,00 18.635,63 1.879,42 3.155,94 0,00 0,00 5.035,36 13.600,27 31/07/2020
848 208600 ERNANE JOSE DA COSTA ANALISTA DO MP BELO HORIZONTE - COMARCA; CENTRAL DE APOIO TECNICO-SETOR MEDICO 18.820,14 15.056,11 0,00 0,00 0,00 0,00 0,00 1.550,00 35.426,25 3.726,39 7.421,85 0,00 0,00 11.148,24 24.278,01 31/07/2020
849 260600 ERNANI CALDEIRA DE ANDRADE ANALISTA DO MP BELO HORIZONTE - COMARCA; CENTRAL DE APOIO TECNICO-SETOR CONTABIL 18.820,14 5.646,04 0,00 0,00 0,00 0,00 0,00 1.550,00 26.016,18 2.691,28 5.118,74 0,00 0,00 7.810,02 18.206,16 31/07/2020
850 348500 ERNILANDIA DE OLIVEIRA DIAS OFICIAL DO MP MONTES CLAROS - COMARCA; MONTES CLAROS-PJ-16PJ 8.579,10 1.715,82 0,00 0,00 0,00 0,00 0,00 1.550,00 11.844,92 1.132,44 1.650,32 0,00 0,00 2.782,76 9.062,16 31/07/2020
851 199300 ERTON PORTINARI DE ANDRADE OFICIAL DO MP SETE LAGOAS - COMARCA; SETE LAGOAS-PJ-05PJ 14.324,23 5.729,69 0,00 0,00 0,00 0,00 0,00 1.550,00 21.603,92 2.205,93 3.934,56 0,00 0,00 6.140,49 15.463,43 31/07/2020
852 618800 ESLY DE CARLA AYALLA BARBOSA MENDES OFICIAL DO MP NOVA LIMA - COMARCA; NOVA LIMA-PJ-SECRETARIA 4.817,57 481,76 0,00 0,00 0,00 0,00 0,00 1.550,00 6.849,33 582,93 427,65 0,00 0,00 1.010,58 5.838,75 31/07/2020
853 537000 ESTANISLAU CORREIA ALMEIDA JUNIOR OFICIAL DO MP UBERLÂNDIA - COMARCA; UBERLANDIA-PJ-25PJ 5.387,19 538,72 0,00 0,00 0,00 0,00 0,00 1.550,00 7.475,91 651,85 581,01 0,00 0,00 1.232,86 6.243,05 31/07/2020
854 326900 ESTER ALICE PIMENTA OFICIAL DO MP BELO HORIZONTE - COMARCA; COORD DE INCLUSAO E MOBILIZACAO SOCIAIS 9.444,70 2.833,41 0,00 0,00 0,00 0,00 0,00 1.550,00 13.828,11 1.350,59 2.083,57 0,00 0,00 3.434,16 10.393,95 31/07/2020
855 503700 ESTHER GONCALVES FONSECA ANALISTA DO MP BELO HORIZONTE - COMARCA; CENTRO PUBLICIDADE E DESIGN GRAFICO 8.579,10 857,91 0,00 0,00 0,00 0,00 0,00 1.550,00 10.987,01 1.038,07 1.440,35 0,00 0,00 2.478,42 8.508,59 31/07/2020
856 475600 ETIENE DE FATIMA OLIVEIRA PEREIRA ANALISTA DO MP PATROCÍNIO - COMARCA; PATROCINIO-PJ-04PJ 10.069,62 1.006,96 0,00 0,00 0,00 0,00 0,00 1.550,00 12.626,58 1.218,42 1.737,36 0,00 0,00 2.955,78 9.670,80 31/07/2020
857 428800 EUGENIA RODRIGUES TRAJANO BORGES ANALISTA DO MP UBERABA - COMARCA; UBERABA-PJ-08PJ 12.204,02 2.440,80 0,00 0,00 0,00 0,00 0,00 1.550,00 16.194,82 1.610,93 2.714,96 0,00 0,00 4.325,89 11.868,93 31/07/2020
858 272700 EUGENIO DE BARCELOS FILHO OFICIAL DO MP FRUTAL - COMARCA; FRUTAL-PJ-03PJ 8.579,10 2.573,73 0,00 0,00 0,00 0,00 0,00 1.550,00 12.702,83 1.226,81 1.808,16 0,00 0,00 3.034,97 9.667,86 31/07/2020
859 254100 EULALIA ALVES MIRANDA LUCAS OFICIAL DO MP ALMENARA - COMARCA; ALMENARA-PJ-02PJ 11.085,56 3.325,67 0,00 0,00 0,00 0,00 0,00 1.550,00 15.961,23 1.585,24 2.553,51 0,00 0,00 4.138,75 11.822,48 31/07/2020
860 615500 EUNICE BARBOSA PINTO OFICIAL DO MP OURO PRETO - COMARCA; OURO PRETO-PJ-04PJ 5.217,34 1.043,47 0,00 0,00 0,00 0,00 0,00 1.550,00 7.810,81 688,69 662,97 0,00 0,00 1.351,66 6.459,15 31/07/2020
861 641200 EUNICE ELVIRA DA SILVA MATOS OFICIAL DO MP BELO HORIZONTE - COMARCA; BH-14PJ DEFESA CONSUMIDOR-SECRETARIA 4.376,03 262,56 0,00 0,00 0,00 0,00 0,00 1.550,00 6.188,59 510,24 292,75 0,00 0,00 802,99 5.385,60 31/07/2020
862 557900 EURIPEDES JOSUE PERES OFICIAL DO MP IBIÁ - COMARCA; IBIA-PJ-UNPJ 4.974,42 497,44 0,00 0,00 0,00 0,00 0,00 1.550,00 7.021,86 601,90 469,88 0,00 0,00 1.071,78 5.950,08 31/07/2020
863 225800 EURO CESAR VIEIRA BARBOSA ANALISTA DO MP BELO HORIZONTE - COMARCA; BH-17PJ PATRIMONIO PUBLICO-SECRETARIA 18.820,14 7.528,06 0,00 0,00 0,00 0,00 0,00 1.550,00 27.898,20 2.898,30 5.475,09 0,00 0,00 8.373,39 19.524,81 31/07/2020
864 199400 EUSTAQUIO ADAILTON LIMA E SILVA OFICIAL DO MP MANGA - COMARCA; MANGA-PJ-01PJ 14.324,23 10.026,96 0,00 0,00 0,00 0,00 0,00 1.550,00 25.901,19 2.678,63 4.882,05 0,00 0,00 7.560,68 18.340,51 31/07/2020
865 548000 EVA VILMA LEAO REIS JULIO OFICIAL DO MP BELO HORIZONTE - COMARCA; BH-07PJ 01 TRIBUNAL JURI-SECRETARIA 5.387,19 1.616,16 0,00 0,00 0,00 0,00 0,00 1.550,00 8.553,35 770,37 844,71 0,00 0,00 1.615,08 6.938,27 31/07/2020
866 517000 EVALDO SENA COSTA FILHO ANALISTA DO MP CONTAGEM - COMARCA; CONTAGEM-PJ-15PJ 10.069,62 3.020,89 0,00 0,00 0,00 0,00 0,00 1.550,00 14.640,51 1.439,96 2.178,13 0,00 0,00 3.618,09 11.022,42 31/07/2020
867 217500 EVELANGE LEAO RABELO ASSESSOR BELO HORIZONTE - COMARCA; COORD EST DEF DIR FAM PESSOAS DEFICI IDOSOS 0,00 1.230,51 3.076,28 0,00 0,00 0,00 0,00 1.550,00 5.856,79 658,89 436,31 0,00 0,00 1.095,20 4.761,59 31/07/2020
868 540400 EVIE SARAMELLA DE RESENDE OFICIAL DO MP BARBACENA - COMARCA; BARBACENA-PJ-05PJ 5.387,19 538,72 0,00 0,00 0,00 0,00 0,00 1.550,00 7.475,91 651,85 581,01 0,00 0,00 1.232,86 6.243,05 31/07/2020
869 469000 EWERTON CARDOSO DE SA RODRIGUES ANALISTA DO MP CAMPO BELO - COMARCA; CAMPO BELO-PJ-01PJ 10.069,62 1.006,96 0,00 0,00 0,00 0,00 0,00 2.319,39 13.395,97 1.218,42 1.737,36 0,00 0,00 2.955,78 10.440,19 31/07/2020
870 368900 FABIANA BARBOSA SIQUEIRA OFICIAL DO MP BELO HORIZONTE - COMARCA; CAO-ORDEM ECONOMICA E TRIBUTARIA-SECRETARIA 8.858,43 1.771,69 0,00 0,00 0,00 0,00 0,00 1.550,00 12.180,12 1.169,31 1.680,23 0,00 0,00 2.849,54 9.330,58 31/07/2020
871 273800 FABIANA CARNEIRO AMORIM COORDENADOR/OFICIAL BELO HORIZONTE - COMARCA; BH-23PJ CIVEL-COORD ADM CIVEL 10.736,08 3.220,82 2.363,83 0,00 0,00 0,00 0,00 1.550,00 17.870,73 1.535,26 3.090,67 0,00 0,00 4.625,93 13.244,80 31/07/2020
872 519300 FABIANA DE OLIVEIRA LOUREIRO ANALISTA DO MP BELO HORIZONTE - COMARCA; BH-09PJ AUDITORIA MILITAR-SECRETARIA 10.069,62 1.006,96 0,00 0,00 0,00 0,00 0,00 1.550,00 12.626,58 1.218,42 1.841,63 0,00 0,00 3.060,05 9.566,53 31/07/2020
873 363400 FABIANA DOURADO DUPIN VIEGAS ANALISTA DO MP BELO HORIZONTE - COMARCA; GABINETE DE PROCURADOR DE JUSTIÇA - SALA 705 14.790,66 2.958,13 0,00 0,00 0,00 0,00 0,00 1.550,00 19.298,79 1.952,37 3.422,52 0,00 0,00 5.374,89 13.923,90 31/07/2020
874 410800 FABIANA DUARTE QUITITE ANALISTA DO MP BELO HORIZONTE - COMARCA; BH-15PJ M AMB 16PJ HAB URB-SECRETARIA 12.601,30 2.520,26 0,00 0,00 0,00 0,00 0,00 1.550,00 16.671,56 1.663,37 2.831,64 0,00 0,00 4.495,01 12.176,55 31/07/2020
875 419500 FABIANA EULALIA DOS SANTOS ANALISTA DO MP SÃO JOÃO DEL REI - COMARCA; SAO JOAO DEL REI-PJ-01PJ 12.601,30 2.520,26 0,00 0,00 0,00 0,00 0,00 1.550,00 16.671,56 1.663,37 2.831,64 0,00 0,00 4.495,01 12.176,55 31/07/2020
876 376300 FABIANA MATTOSO LEMOS ANALISTA DO MP BELO HORIZONTE - COMARCA; BH-21PJ TUTELA FUNDACOES-SECRETARIA 13.011,52 2.602,30 0,00 0,00 0,00 0,00 0,00 1.550,00 17.163,82 1.717,52 2.952,12 0,00 0,00 4.669,64 12.494,18 31/07/2020
877 331500 FABIANA PACHECO OFICIAL DO MP GUAXUPÉ - COMARCA; GUAXUPE-PJ-01PJ 9.146,93 2.744,08 0,00 0,00 0,00 0,00 0,00 2.319,39 14.210,40 1.308,01 1.936,69 0,00 0,00 3.244,70 10.965,70 31/07/2020
878 510700 FABIANA PEREIRA SANTOS BORGES ANALISTA DO MP BELO HORIZONTE - COMARCA; DIRETORIA DE SISTEMAS DE INFORMACAO 10.069,62 1.006,96 0,00 0,00 0,00 0,00 0,00 2.319,39 13.395,97 1.218,42 1.789,50 0,00 0,00 3.007,92 10.388,05 31/07/2020
879 181700 FABIANA SOUZA FERREIRA OFICIAL DO MP BELO HORIZONTE - COMARCA; BH-19PJ SAUDE-SECRETARIA 150PJ 6.123,79 2.449,52 0,00 0,00 0,00 0,00 0,00 1.550,00 10.123,31 943,06 1.124,68 0,00 0,00 2.067,74 8.055,57 31/07/2020
880 272900 FABIANA STOCKLER LEITE OFICIAL DO MP LAJINHA - COMARCA; LAJINHA-PJ-SECRETARIA 10.069,62 5.034,81 0,00 0,00 0,00 0,00 0,00 2.319,39 17.423,82 1.661,49 2.723,17 0,00 0,00 4.384,66 13.039,16 31/07/2020
881 225500 FABIANE DE FATIMA PORTELLA ANALISTA DO MP BELO HORIZONTE - COMARCA; BH-18PJ DIREITOS HUMANOS-SECRETARIA 18.820,14 5.646,04 0,00 0,00 0,00 0,00 0,00 1.550,00 26.016,18 2.691,28 5.118,74 0,00 0,00 7.810,02 18.206,16 31/07/2020
882 433800 FABIANE DINIZ MATTOS ANALISTA DO MP BELO HORIZONTE - COMARCA; BH-23PJ INFRACIONAL-ASS JURIDICA 12.601,30 2.520,26 0,00 0,00 0,00 0,00 1.555,44 3.088,78 19.765,78 1.834,47 3.212,34 0,00 0,00 5.046,81 14.718,97 31/07/2020
883 455000 FABIANO CARVALHO DA SILVA ANALISTA DO MP LAVRAS - COMARCA; COORD REG DO MA DA BACIA DO RIO GRANDE 10.069,62 1.006,96 0,00 0,00 0,00 0,00 0,00 1.550,00 12.626,58 1.218,42 1.841,63 0,00 0,00 3.060,05 9.566,53 31/07/2020
884 498800 FABIANO FURTADO PESSOA COELHO ANALISTA DO MP BELO HORIZONTE - COMARCA; DIRETORIA DE REDES E BANCOS DE DADOS 10.069,62 1.006,96 0,00 0,00 0,00 0,00 0,00 1.550,00 12.626,58 1.218,42 1.789,50 0,00 0,00 3.007,92 9.618,66 31/07/2020
885 663000 FABIANO MARQUES CORREA ASSESSOR BELO HORIZONTE - COMARCA; DIRETORIA DE SUPORTE E MANUTENCAO 0,00 0,00 5.136,32 0,00 0,00 0,00 0,00 1.550,00 6.686,32 713,09 649,53 0,00 0,00 1.362,62 5.323,70 31/07/2020
886 394600 FABIANO PALHARES SILVA ANALISTA DO MP BELO HORIZONTE - COMARCA; CENTRAL DE APOIO TECN-SETOR DE MEIO AMBIENTE 13.011,52 2.602,30 0,00 0,00 0,00 0,00 0,00 1.550,00 17.163,82 1.717,52 2.899,99 0,00 0,00 4.617,51 12.546,31 31/07/2020
887 444400 FABIANO SARAIVA MEDEIROS ANALISTA DO MP BETIM - COMARCA; BETIM-PJ-11PJ 12.204,02 2.440,80 0,00 0,00 0,00 0,00 0,00 2.319,39 16.964,21 1.610,93 2.610,69 0,00 0,00 4.221,62 12.742,59 31/07/2020
888 408700 FABIANO SOARES PORTILHO ANALISTA DO MP VIÇOSA - COMARCA; VICOSA-PJ-02PJ 12.601,30 2.520,26 0,00 0,00 0,00 0,00 0,00 1.550,00 16.671,56 1.663,37 2.831,64 0,00 0,00 4.495,01 12.176,55 31/07/2020
889 442600 FABIO CARVALHO VIEIRA ANALISTA DO MP MONTES CLAROS - COMARCA; MONTES CLAROS-PJ-06PJ 9.444,70 1.888,94 0,00 0,00 0,00 0,00 0,00 1.550,00 12.883,64 1.246,70 1.904,55 0,00 0,00 3.151,25 9.732,39 31/07/2020
890 240101 FABIO JUNQUEIRA DE ASSIS FONSECA OFICIAL DO MP BELO HORIZONTE - COMARCA; BH-17PJ PATRIMONIO PUBLICO-SECRETARIA 7.912,85 1.582,57 0,00 0,00 0,00 0,00 0,00 1.550,00 11.045,42 1.044,50 1.454,64 0,00 0,00 2.499,14 8.546,28 31/07/2020
891 271500 FABIO LUIZ VIEIRA OFICIAL DO MP SANTA VITÓRIA - COMARCA; SANTA VITORIA-PJ-UNPJ 10.069,62 3.020,89 0,00 0,00 0,00 0,00 0,00 1.645,88 14.736,39 1.439,96 2.230,27 0,00 0,00 3.670,23 11.066,16 31/07/2020
892 213100 FABIO PRATES GONCALVES ASSESSOR BELO HORIZONTE - COMARCA; CENTRO CERIMONIAL 0,00 4.159,01 10.397,52 0,00 0,00 0,00 0,00 2.319,39 16.875,92 713,09 3.083,67 0,00 0,00 3.796,76 13.079,16 31/07/2020
893 436700 FABIO SANTIAGO DE CARVALHO OFICIAL DO MP POÇO FUNDO - COMARCA; POCO FUNDO-PJ-UNPJ 7.912,85 1.582,57 0,00 0,00 0,00 0,00 0,00 1.550,00 11.045,42 1.044,50 1.454,64 0,00 0,00 2.499,14 8.546,28 31/07/2020
894 208400 FABIOLA DE SOUSA CARDOSO ASSESSOR/ANALISTA BELO HORIZONTE - COMARCA; ASSESS TECNICA DA CORREGEDORIA-GERAL DO MP 18.820,14 7.528,06 2.520,26 0,00 0,00 0,00 0,00 1.550,00 30.418,46 2.898,30 6.272,43 0,00 0,00 9.170,73 21.247,73 31/07/2020
895 392200 FABIOLA LEROY COSTA ANALISTA DO MP ESMERALDAS - COMARCA; ESMERALDAS-PJ-01PJ 10.069,62 2.013,92 0,00 0,00 4.027,85 0,00 0,00 2.319,39 18.430,78 1.329,19 3.195,75 0,00 0,00 4.524,94 13.905,84 31/07/2020
896 409000 FABIOLA MONTEIRO DE CARVALHO CASTRO ANALISTA DO MP BOM SUCESSO - COMARCA; BOM SUCESSO-PJ-UNPJ 10.736,08 2.147,22 0,00 0,00 0,00 0,00 0,00 1.550,00 14.433,30 1.417,16 2.283,83 0,00 0,00 3.700,99 10.732,31 31/07/2020
897 227900 FABIOLA PIMENTA DE CARVALHO OFICIAL DO MP MONTES CLAROS - COMARCA; COORD REG BACIA RIOS VERDE GRANDE E PARDO 10.069,62 3.020,89 0,00 0,00 0,00 0,00 0,00 1.550,00 14.640,51 1.439,96 2.334,54 0,00 0,00 3.774,50 10.866,01 31/07/2020
898 525800 FABRICIA ALVES DANTAS OFICIAL DO MP MONTES CLAROS - COMARCA; MONTES CLAROS-PJ-01PJ 6.741,63 674,16 0,00 0,00 0,00 0,00 0,00 1.550,00 8.965,79 815,74 841,38 0,00 0,00 1.657,12 7.308,67 31/07/2020
899 263400 FABRICIA PINTO TEIXEIRA SANTIAGO OFICIAL DO MP BELO HORIZONTE - COMARCA; CAO-FUNDACOES-SECRETARIA 12.204,02 3.661,21 0,00 0,00 0,00 0,00 0,00 1.550,00 17.415,23 1.745,18 2.909,38 0,00 0,00 4.654,56 12.760,67 31/07/2020
900 420800 FABRICIO BERNARDES DE OLIVEIRA OFICIAL DO MP ITURAMA - COMARCA; ITURAMA-PJ-02PJ 7.912,85 1.582,57 0,00 0,00 0,00 0,00 0,00 1.550,00 11.045,42 1.044,50 1.402,51 0,00 0,00 2.447,01 8.598,41 31/07/2020
901 474000 FABRICIO DE FREITAS SALES ANALISTA DO MP MONTES CLAROS - COMARCA; COORD REG PATRI PUB ORD TRIB-NORTE MINAS 10.069,62 1.006,96 0,00 0,00 0,00 0,00 0,00 1.550,00 12.626,58 1.218,42 1.841,63 0,00 0,00 3.060,05 9.566,53 31/07/2020
902 510100 FABRICIO FURTADO ASSIS DO CARMO ANALISTA DO MP BELO HORIZONTE - COMARCA; SERVICO MEDICO-DEPTO PERIC MEDICA SAUDE OCUP 10.069,62 1.006,96 0,00 0,00 0,00 0,00 963,51 2.319,39 14.359,48 1.218,42 2.106,60 0,00 0,00 3.325,02 11.034,46 31/07/2020
903 519600 FABRICIO GONTIJO SALVATI ANALISTA DO MP JUIZ DE FORA - COMARCA; JUIZ DE FORA-CAO ESPECIALIZADO-SECRETARIA 10.069,62 1.006,96 0,00 0,00 0,00 0,00 0,00 1.550,00 12.626,58 1.218,42 1.841,63 0,00 0,00 3.060,05 9.566,53 31/07/2020
904 637400 FABRICIO HENRIQUE DA SILVA PASSOS ASSESSOR/ANALISTA BELO HORIZONTE - COMARCA; CENTRO PUBLICIDADE E DESIGN GRAFICO 0,00 1.039,75 10.397,52 0,00 0,00 0,00 0,00 1.550,00 12.987,27 1.018,67 1.995,76 0,00 0,00 3.014,43 9.972,84 31/07/2020
905 428200 FABRICIO ORZIL VIANA ANALISTA DO MP SANTA LUZIA - COMARCA; SANTA LUZIA-PJ-04PJ 10.069,62 2.013,92 0,00 0,00 0,00 0,00 0,00 1.550,00 13.633,54 1.329,19 2.088,09 0,00 0,00 3.417,28 10.216,26 31/07/2020
906 455600 FABRICIO PAIVA DA ROCHA ANALISTA DO MP SÃO JOÃO DEL REI - COMARCA; SAO JOAO DEL REI-PJ-06PJ 10.069,62 1.006,96 0,00 0,00 3.692,19 0,00 0,00 2.319,39 17.088,16 1.218,42 2.804,85 0,00 0,00 4.023,27 13.064,89 31/07/2020
907 511500 FABRICIO RENE CARDOSO DE PADUA ANALISTA DO MP SÃO SEBASTIÃO DO PARAÍSO - COMARCA; SAO SEBASTIAO DO PARAISO-PJ-03PJ 10.069,62 1.006,96 0,00 0,00 0,00 0,00 3.678,36 1.550,00 16.304,94 1.218,42 2.853,18 0,00 0,00 4.071,60 12.233,34 31/07/2020
908 496100 FABRICIO RESENDE GONCALVES OFICIAL DO MP ENTRE-RIOS DE MINAS - COMARCA; ENTRE RIOS DE MINAS-PJ-UNPJ 6.741,63 674,16 0,00 0,00 2.471,93 0,00 0,00 2.319,39 12.207,11 815,74 1.625,43 0,00 0,00 2.441,17 9.765,94 31/07/2020
909 650300 FABRICIO ROBERTO AZEVEDO OFICIAL DO MP NOVA SERRANA - COMARCA; NOVA SERRANA-PJ-04PJ 4.238,09 254,29 0,00 0,00 0,00 0,00 0,00 1.550,00 6.042,38 494,16 263,47 0,00 0,00 757,63 5.284,75 31/07/2020
910 514900 FADUA MARIA DRUMOND CHEQUER ANALISTA DO MP CONTAGEM - COMARCA; CONTAGEM-PJ-06PJ 10.069,62 1.006,96 0,00 0,00 0,00 0,00 0,00 3.088,78 14.165,36 1.218,42 1.737,36 0,00 0,00 2.955,78 11.209,58 31/07/2020
911 282500 FANNY FERREIRA MELO OFICIAL DO MP ARAXÁ - COMARCA; ARAXA-PJ-03PJ 8.436,53 2.530,96 0,00 0,00 0,00 0,00 0,00 1.550,00 12.517,49 1.206,42 1.814,93 0,00 0,00 3.021,35 9.496,14 31/07/2020
912 540100 FATIMA CRISTINA POVOA DA COSTA ASSESSOR/OFICIAL BELO HORIZONTE - COMARCA; BH-18PJ VIOLENCIA DOMESTICA-SECRETARIA 0,00 3.119,26 10.397,52 19,84 0,00 833,63 0,00 1.550,00 15.920,25 794,65 2.847,75 0,00 0,00 3.642,40 12.277,85 31/07/2020
913 382800 FATIMA DE OLIVEIRA COELHO E SILVA OFICIAL DO MP BELO HORIZONTE - COMARCA; DIRETORIA DE ADMINISTRACAO FINANCEIRA 6.529,10 1.958,73 0,00 0,00 0,00 0,00 0,00 1.550,00 10.037,83 933,66 1.155,90 0,00 0,00 2.089,56 7.948,27 31/07/2020
914 398601 FELIPE ANTONIO HORTA DE PAULA ANALISTA DO MP BELO HORIZONTE - COMARCA; PROC. JUSTICA DIR. DIFUSOS E COLETIVOS-SEC 8.436,53 843,65 0,00 0,00 0,00 0,00 0,00 1.550,00 10.830,18 1.020,82 1.401,96 0,00 0,00 2.422,78 8.407,40 31/07/2020
915 430900 FELIPE BOY VIEIRA ANALISTA DO MP BELO HORIZONTE - COMARCA; DIRETORIA DE SEGURANCA 11.085,56 2.217,11 0,00 0,00 0,00 0,00 0,00 1.550,00 14.852,67 1.463,29 2.386,47 0,00 0,00 3.849,76 11.002,91 31/07/2020
916 631700 FELIPE DE MORAIS SIMOES COELHO ANALISTA DO MP BELO HORIZONTE - COMARCA; BH-18PJ VIOLENCIA DOMESTICA-SECRETARIA 7.421,79 742,18 0,00 0,00 0,00 0,00 0,00 1.550,00 9.713,97 898,04 1.128,77 0,00 0,00 2.026,81 7.687,16 31/07/2020
917 549100 FELIPE FERNANDES ALVIM ANALISTA DO MP LAJINHA - COMARCA; LAJINHA-PJ-UNPJ 8.436,53 843,65 0,00 0,00 0,00 0,00 0,00 1.550,00 10.830,18 1.020,82 1.401,96 0,00 0,00 2.422,78 8.407,40 31/07/2020
918 487300 FELIPE FERNANDES SILVEIRA ASSESSOR BELO HORIZONTE - COMARCA; DIVISAO DE MANUTENCAO PREDIAL 0,00 0,00 3.076,28 0,00 0,00 0,00 0,00 1.550,00 4.626,28 713,09 164,68 0,00 0,00 877,77 3.748,51 31/07/2020
919 620100 FELIPE GOMES DE AZEVEDO ASSESSOR/OFICIAL BELO HORIZONTE - COMARCA; DIVISAO DE SERVICOS 0,00 817,05 8.170,49 0,00 0,00 0,00 0,00 1.550,00 10.537,54 582,93 1.441,91 0,00 0,00 2.024,84 8.512,70 31/07/2020
920 601600 FELIPE RODRIGUES DE SIQUEIRA ANALISTA DO MP BELO HORIZONTE - COMARCA; BH-02PJ FAMILIA-SECRETARIA 8.436,53 843,65 0,00 0,00 0,00 0,00 0,00 1.550,00 10.830,18 1.020,82 1.057,11 0,00 0,00 2.077,93 8.752,25 31/07/2020
921 628900 FELIX FERNANDO JUNIO VIEIRA ANALISTA DO MP CAETÉ - COMARCA; CAETE-PJ-02PJ 8.170,49 817,05 0,00 0,00 0,00 0,00 0,00 1.550,00 10.537,54 988,63 1.278,20 0,00 0,00 2.266,83 8.270,71 31/07/2020
922 544500 FELLIPE LEMOS MARCONDES BUENO ANALISTA DO MP SÃO SEBASTIÃO DO PARAÍSO - COMARCA; SAO SEBASTIAO DO PARAISO-PJ-04PJ 8.436,53 843,65 0,00 0,00 0,00 0,00 0,00 1.550,00 10.830,18 1.020,82 1.401,96 0,00 0,00 2.422,78 8.407,40 31/07/2020
923 612600 FERNANDA ADRIANA DE PAULA GUIDO ANALISTA DO MP PARACATU - COMARCA; PARACATU-PJ-02PJ 8.170,49 817,05 0,00 0,00 0,00 0,00 0,00 2.319,39 11.306,93 988,63 1.330,34 0,00 0,00 2.318,97 8.987,96 31/07/2020
924 508400 FERNANDA AGANETTI MATTOS DE OLIVEIRA ANALISTA DO MP BELO HORIZONTE - COMARCA; BH-07PJ 02 TRIBUNAL DO JURI-GAB 061PJ 10.069,62 1.006,96 0,00 0,00 0,00 0,00 0,00 3.627,35 14.703,93 1.218,42 1.841,63 0,00 0,00 3.060,05 11.643,88 31/07/2020
925 453600 FERNANDA ALBERNAZ RABELO ANALISTA DO MP BELO HORIZONTE - COMARCA; GABINETE DE PROCURADOR DE JUSTIÇA - SALA 616 10.069,62 1.006,96 0,00 0,00 0,00 0,00 0,00 1.550,00 12.626,58 1.218,42 1.841,63 0,00 0,00 3.060,05 9.566,53 31/07/2020
926 255600 FERNANDA ALINA DE ALMEIDA ANDRADE OFICIAL DO MP BELO HORIZONTE - COMARCA; LABORATORIO TECNOLOGIA INTELIGENCIA 9.146,93 2.744,08 0,00 0,00 0,00 0,00 0,00 1.550,00 13.441,01 1.308,01 2.040,97 0,00 0,00 3.348,98 10.092,03 31/07/2020
927 443200 FERNANDA ALMEIDA LOPES ANALISTA DO MP CONTAGEM - COMARCA; CONTAGEM-PJ-23PJ 12.204,02 2.440,80 0,00 0,00 0,00 0,00 0,00 3.088,78 17.733,60 1.610,93 2.610,69 0,00 0,00 4.221,62 13.511,98 31/07/2020
928 281100 FERNANDA ANANIAS MEIRA ANALISTA DO MP BELO HORIZONTE - COMARCA; BH-23PJ INFRACIONAL-ASS JURIDICA 15.272,02 4.581,61 0,00 0,00 0,00 0,00 2.042,16 1.550,00 23.445,79 2.408,54 4.489,63 0,00 0,00 6.898,17 16.547,62 31/07/2020
929 539000 FERNANDA BARBOSA ALVES ANALISTA DO MP UBERABA - COMARCA; UBERABA-PJ-04PJ 8.436,53 843,65 0,00 0,00 0,00 0,00 0,00 2.319,39 11.599,57 1.020,82 1.401,96 0,00 0,00 2.422,78 9.176,79 31/07/2020
930 451200 FERNANDA BLOISE PRADO OFICIAL DO MP BELO HORIZONTE - COMARCA; DIVISAO DE MATERIAIS 7.421,79 1.484,36 0,00 0,00 0,00 0,00 0,00 1.550,00 10.456,15 979,68 1.310,42 0,00 0,00 2.290,10 8.166,05 31/07/2020
931 427900 FERNANDA BRAGA CARNEIRO BICALHO ANALISTA DO MP PEÇANHA - COMARCA; PECANHA-PJ-SECRETARIA 10.069,62 2.013,92 0,00 0,00 0,00 0,00 0,00 2.319,39 14.402,93 1.329,19 2.035,95 0,00 0,00 3.365,14 11.037,79 31/07/2020
932 507100 FERNANDA CABRINI VAZ MOTA ANALISTA DO MP BELO HORIZONTE - COMARCA; BH-14PJ DEFESA CONSUMIDOR-GAB 005PJ 10.069,62 1.006,96 0,00 0,00 0,00 0,00 0,00 2.319,39 13.395,97 1.218,42 1.841,63 0,00 0,00 3.060,05 10.335,92 31/07/2020
933 259800 FERNANDA CALZAVARA DE SOUSA COORDENADOR/OFICIAL BELO HORIZONTE - COMARCA; DIRET DE FORMACAO, APERFEIC. E POS-GRADUACAO 12.204,02 3.661,21 2.687,03 0,00 362,18 0,00 2.173,10 2.319,39 23.406,93 1.905,12 3.655,48 0,00 0,00 5.560,60 17.846,33 31/07/2020
934 494400 FERNANDA CAMPOS BARATA OFICIAL DO MP JUIZ DE FORA - COMARCA; JUIZ DE FORA-PJ-08PJ 5.562,64 556,26 0,00 0,00 0,00 0,00 0,00 1.550,00 7.668,90 673,08 628,24 0,00 0,00 1.301,32 6.367,58 31/07/2020
935 555600 FERNANDA CAROLINE RIBEIRO ASSESSOR/ANALISTA BELO HORIZONTE - COMARCA; DIRETORIA GESTAO CONTRATOS CONVENIOS 0,00 1.039,75 10.397,52 0,00 0,00 0,00 0,00 1.550,00 12.987,27 1.053,01 1.986,31 0,00 0,00 3.039,32 9.947,95 31/07/2020
936 294500 FERNANDA COSTA FLORES OFICIAL DO MP PARÁ DE MINAS - COMARCA; PARA DE MINAS-PJ-04PJ 10.069,62 3.020,89 0,00 0,00 0,00 0,00 0,00 1.550,00 14.640,51 1.439,96 2.334,54 0,00 0,00 3.774,50 10.866,01 31/07/2020
937 344500 FERNANDA CRISTINA DE SOUZA PAZ ASSESSOR BELO HORIZONTE - COMARCA; CENTRAL DE APOIO TECN-SETOR DE MEIO AMBIENTE 0,00 0,00 5.136,32 0,00 0,00 0,00 0,00 1.550,00 6.686,32 713,09 545,25 0,00 0,00 1.258,34 5.427,98 31/07/2020
938 538100 FERNANDA CRISTINA DOS SANTOS ROSA OFICIAL DO MP RIBEIRÃO DAS NEVES - COMARCA; RIBEIRAO DAS NEVES-PJ-09PJ 5.387,19 1.616,16 0,00 0,00 0,00 0,00 0,00 1.550,00 8.553,35 770,37 844,71 0,00 0,00 1.615,08 6.938,27 31/07/2020
939 337800 FERNANDA CRISTINA ROLAND CLIMACO MENDES COORDENADOR/OFICIAL BELO HORIZONTE - COMARCA; DIRETORIA DE PAGAMENTO DE PESSOAL-DPAG 0,00 4.030,55 13.435,16 0,00 0,00 0,00 0,00 1.550,00 19.015,71 1.579,95 3.496,91 0,00 0,00 5.076,86 13.938,85 31/07/2020
940 545400 FERNANDA CUNHA GUIMARAES ANALISTA DO MP BELO HORIZONTE - COMARCA; COORD EST DEF DIR FAM PESSOAS DEFICI IDOSOS 8.436,53 843,65 0,00 0,00 0,00 0,00 0,00 1.550,00 10.830,18 1.020,82 1.401,96 0,00 0,00 2.422,78 8.407,40 31/07/2020
941 429801 FERNANDA CUNHA PINHEIRO DA SILVA ANALISTA DO MP BELO HORIZONTE - COMARCA; ASSESSORIA DE COMUNICACAO INTEGRADA 10.069,62 1.006,96 0,00 0,00 3.692,19 0,00 0,00 1.550,00 16.318,77 1.218,42 2.804,85 0,00 0,00 4.023,27 12.295,50 31/07/2020
942 408000 FERNANDA DAS NEVES RAMOS ANALISTA DO MP BELO HORIZONTE - COMARCA; CENTRAL DE APOIO TECNICO-SETOR CONTABIL 12.601,30 2.520,26 0,00 0,00 0,00 0,00 0,00 2.319,39 17.440,95 1.663,37 2.831,64 0,00 0,00 4.495,01 12.945,94 31/07/2020
943 496000 FERNANDA DE ALMEIDA VIANA ANALISTA DO MP BELO HORIZONTE - COMARCA; PROC JUST RECURSOS ESP E EXTRAORD CRIMINAIS 10.069,62 1.006,96 0,00 0,00 0,00 0,00 0,00 2.319,39 13.395,97 1.218,42 1.787,95 0,00 0,00 3.006,37 10.389,60 31/07/2020
944 266700 FERNANDA DE CASTRO LUCAS COORDENADOR/OFICIAL BELO HORIZONTE - COMARCA; DIRET DE DESENV DE RECURSOS HUMANOS-DDRH 12.204,02 3.661,21 2.687,03 0,00 0,00 0,00 0,00 2.319,39 20.871,65 1.905,12 3.656,47 0,00 0,00 5.561,59 15.310,06 31/07/2020
945 433200 FERNANDA DE FIGUEIREDO NORTE ANALISTA DO MP BELO HORIZONTE - COMARCA; ASSESS JUR DO CONS SUPERIOR DO MINISTERIO PUB 12.601,30 2.520,26 0,00 0,00 0,00 0,00 0,00 2.319,39 17.440,95 1.663,37 2.727,37 0,00 0,00 4.390,74 13.050,21 31/07/2020
946 419200 FERNANDA DE MIRANDA MARTINS SIMOES ANALISTA DO MP UBERLÂNDIA - COMARCA; UBERLANDIA-PJ-11PJ 12.601,30 2.520,26 0,00 0,00 0,00 0,00 0,00 2.319,39 17.440,95 1.663,37 2.831,64 0,00 0,00 4.495,01 12.945,94 31/07/2020
947 441400 FERNANDA DE MORAIS PINTO ANALISTA DO MP BELO HORIZONTE - COMARCA; PROC. JUSTICA DIR. DIFUSOS E COLETIVOS-SEC 12.204,02 2.440,80 0,00 0,00 0,00 0,00 0,00 1.550,00 16.194,82 1.610,93 2.714,96 0,00 0,00 4.325,89 11.868,93 31/07/2020
948 432200 FERNANDA DE MOURA GUIMARAES ANALISTA DO MP BELO HORIZONTE - COMARCA; ASSESS TECNICO-JUR JUNTO AS PROC. DE JUST 12.204,02 2.440,80 0,00 0,00 0,00 0,00 0,00 2.319,39 16.964,21 1.610,93 2.714,96 0,00 0,00 4.325,89 12.638,32 31/07/2020
949 461800 FERNANDA DE OLIVEIRA SANTOS ANALISTA DO MP JUIZ DE FORA - COMARCA; JUIZ DE FORA-PJ-21PJ 10.069,62 1.006,96 0,00 0,00 0,00 0,00 0,00 2.319,39 13.395,97 1.218,42 1.841,63 0,00 0,00 3.060,05 10.335,92 31/07/2020
950 432500 FERNANDA DE PAULA PINTO ANALISTA DO MP BELO HORIZONTE - COMARCA; PROC JUST RECURSOS ESP E EXTRAORD CRIMINAIS 12.204,02 2.440,80 0,00 0,00 0,00 0,00 0,00 1.550,00 16.194,82 1.610,93 2.714,96 0,00 0,00 4.325,89 11.868,93 31/07/2020
951 431600 FERNANDA DIAS BARBOSA PEREIRA ANALISTA DO MP OURO BRANCO - COMARCA; OURO BRANCO-PJ-UNPJ 12.204,02 2.440,80 0,00 0,00 0,00 0,00 0,00 2.319,39 16.964,21 1.610,93 2.610,69 0,00 0,00 4.221,62 12.742,59 31/07/2020
952 162200 FERNANDA FERNANDES MONTEIRO ASSESSOR BELO HORIZONTE - COMARCA; BH-12PJ JUIZO CRIMINAL-SECRETARIA 0,00 2.054,53 5.136,32 0,00 0,00 0,00 0,00 1.550,00 8.740,85 713,09 1.162,39 0,00 0,00 1.875,48 6.865,37 31/07/2020
953 512800 FERNANDA FERREIRA BARBOSA MOREIRA ANALISTA DO MP IPATINGA - COMARCA; IPATINGA-PJ-01PJ 10.069,62 1.006,96 0,00 0,00 0,00 0,00 0,00 2.319,39 13.395,97 1.218,42 1.841,63 0,00 0,00 3.060,05 10.335,92 31/07/2020
954 329200 FERNANDA GABRIEL GUZELLA OFICIAL DO MP BELO HORIZONTE - COMARCA; DIRET DE PLANOS PROJETOS E PROGRAMAS INST 9.444,70 2.833,41 0,00 0,00 0,00 0,00 0,00 1.550,00 13.828,11 1.350,59 2.135,71 0,00 0,00 3.486,30 10.341,81 31/07/2020
955 324200 FERNANDA GEORGIA NEVES ZAHAN OFICIAL DO MP IPANEMA - COMARCA; IPANEMA-PJ-SECRETARIA 8.436,53 5.905,57 0,00 0,00 0,00 0,00 0,00 1.550,00 15.892,10 1.577,63 2.640,87 0,00 0,00 4.218,50 11.673,60 31/07/2020
956 548200 FERNANDA GONCALVES DE CARVALHO ZUZA OFICIAL DO MP TUPACIGUARA - COMARCA; TUPACIGUARA-PJ-UNPJ 4.974,42 497,44 0,00 0,00 0,00 0,00 0,00 1.550,00 7.021,86 601,90 469,88 0,00 0,00 1.071,78 5.950,08 31/07/2020
957 355400 FERNANDA HELENA BASQUES OFICIAL DO MP SABARÁ - COMARCA; SABARA-PJ-01PJ 8.858,43 1.771,69 0,00 0,00 0,00 0,00 0,00 1.550,00 12.180,12 1.169,31 1.732,36 0,00 0,00 2.901,67 9.278,45 31/07/2020
958 454800 FERNANDA IATAROLA BARBOSA DIAS ANALISTA DO MP BARBACENA - COMARCA; BARBACENA-PJ-05PJ 10.397,52 1.039,75 0,00 0,00 0,00 0,00 0,00 1.550,00 12.987,27 1.258,10 1.877,77 0,00 0,00 3.135,87 9.851,40 31/07/2020
959 515500 FERNANDA LILIANE MARUGEIRO ANALISTA DO MP BELO HORIZONTE - COMARCA; BH-18PJ VIOLENCIA DOMESTICA-SECRETARIA 10.069,62 1.006,96 0,00 0,00 0,00 0,00 0,00 2.319,39 13.395,97 1.218,42 1.789,50 0,00 0,00 3.007,92 10.388,05 31/07/2020
960 392900 FERNANDA MAGALHAES SILVA ANALISTA DO MP BELO HORIZONTE - COMARCA; CENTRO JORNALISMO 13.011,52 2.602,30 0,00 0,00 0,00 0,00 0,00 1.550,00 17.163,82 1.717,52 2.952,12 0,00 0,00 4.669,64 12.494,18 31/07/2020
961 409200 FERNANDA MAIA SANTIAGO CARDOSO ANALISTA DO MP PIRAPORA - COMARCA; PIRAPORA-PJ-02PJ 10.069,62 2.013,92 0,00 0,00 0,00 0,00 0,00 3.088,78 15.172,32 1.329,19 2.088,09 0,00 0,00 3.417,28 11.755,04 31/07/2020
962 556500 FERNANDA OTERO COSTA ANALISTA DO MP BELO HORIZONTE - COMARCA; ASSESS TECNICO-JUR JUNTO AS PROC. DE JUST 9.146,93 914,69 0,00 0,00 0,00 0,00 0,00 1.550,00 11.611,62 1.106,78 1.593,22 0,00 0,00 2.700,00 8.911,62 31/07/2020
963 615300 FERNANDA PATRICIA RIBEIRO MOTA OFICIAL DO MP UBERABA - COMARCA; UBERABA-PJ-05PJ 4.817,57 481,76 0,00 0,00 0,00 0,00 0,00 1.550,00 6.849,33 582,93 427,65 0,00 0,00 1.010,58 5.838,75 31/07/2020
964 619800 FERNANDA PINTO PEREIRA ANALISTA DO MP UBERLÂNDIA - COMARCA; UBERLANDIA-PJ-20PJ 8.170,49 817,05 0,00 0,00 0,00 0,00 0,00 2.319,39 11.306,93 988,63 1.278,20 0,00 0,00 2.266,83 9.040,10 31/07/2020
965 412900 FERNANDA PORTELA ROSA ANALISTA DO MP BELO HORIZONTE - COMARCA; BH-08PJ JUIZADO ESPECIAL-SECRETARIA 12.601,30 2.520,26 0,00 0,00 0,00 0,00 0,00 2.319,39 17.440,95 1.663,37 2.831,64 0,00 0,00 4.495,01 12.945,94 31/07/2020
966 274301 FERNANDA QUEIROZ PARREIRA ANALISTA DO MP PATOS DE MINAS - COMARCA; COORD REG PJ DEF EDU DIR CRI ADO AL PAR NOROE 10.069,62 1.006,96 0,00 0,00 0,00 0,00 0,00 1.550,00 12.626,58 1.218,42 1.841,63 0,00 0,00 3.060,05 9.566,53 31/07/2020
967 467900 FERNANDA QUEIROZ SIMOES GANNAM ANALISTA DO MP SÃO LOURENÇO - COMARCA; SAO LOURENCO-PJ-02PJ 10.069,62 1.006,96 0,00 0,00 0,00 0,00 0,00 2.319,39 13.395,97 1.218,42 1.789,50 0,00 0,00 3.007,92 10.388,05 31/07/2020
968 255500 FERNANDA SIMOES LOPES MENDES ANALISTA DO MP BELO HORIZONTE - COMARCA; BH-17PJ PATRIMONIO PUBLICO-SECRETARIA 17.413,92 5.224,18 0,00 0,00 0,00 0,00 0,00 1.550,00 24.188,10 2.490,19 4.567,04 0,00 0,00 7.057,23 17.130,87 31/07/2020
969 481700 FERNANDA VIANA FROES DA SILVA OFICIAL DO MP GOVERNADOR VALADARES - COMARCA; GOVERNADOR VALADARES-PJ-09PJ 7.421,79 742,18 0,00 0,00 0,00 0,00 0,00 1.550,00 9.713,97 898,04 1.128,77 0,00 0,00 2.026,81 7.687,16 31/07/2020
970 123900 FERNANDO ANTONIO FARIA DE ABREU DIRETOR/ANALISTA BELO HORIZONTE - COMARCA; SUPERINTENDÊNCIA DE ENGENHARIA E ARQUITETURA 26.471,31 23.824,17 4.875,89 0,00 0,00 3.900,84 130,02 2.968,48 62.170,71 3.900,84 8.882,75 19.709,15 0,00 32.492,74 29.677,97 31/07/2020
971 416900 FERNANDO APARECIDO DA SILVA ANALISTA DO MP BOM DESPACHO - COMARCA; BOM DESPACHO-PJ-02PJ 12.204,02 8.542,81 0,00 0,00 0,00 0,00 0,00 1.550,00 22.296,83 2.282,15 4.104,15 0,00 0,00 6.386,30 15.910,53 31/07/2020
972 380500 FERNANDO BONES COSTA OFICIAL DO MP BELO HORIZONTE - COMARCA; DIVISAO DE MATERIAIS 6.123,79 1.224,76 0,00 0,00 0,00 0,00 0,00 1.550,00 8.898,55 808,34 929,20 0,00 0,00 1.737,54 7.161,01 31/07/2020
973 500100 FERNANDO CEZAR PINTO OFICIAL DO MP SANTA LUZIA - COMARCA; SANTA LUZIA-PJ-04PJ 7.421,79 742,18 0,00 0,00 0,00 0,00 0,00 1.550,00 9.713,97 898,04 1.076,11 0,00 0,00 1.974,15 7.739,82 31/07/2020
974 346100 FERNANDO EUSTAQUIO CAMPOS UTSCH MOREIRA ANALISTA DO MP BELO HORIZONTE - COMARCA; DIRETORIA DE SISTEMAS DE INFORMACAO 14.790,66 2.958,13 0,00 0,00 0,00 0,00 0,00 1.550,00 19.298,79 1.952,37 3.370,38 0,00 0,00 5.322,75 13.976,04 31/07/2020
975 103500 FERNANDO LUIZ DA SILVA JUNIOR OFICIAL DO MP BELO HORIZONTE - COMARCA; DIVISAO DE ATENDIMENTO E CONSULTA JURIDICA 18.820,14 9.410,07 0,00 0,00 0,00 0,00 517,55 7.196,04 35.943,80 3.105,32 6.039,98 0,00 0,00 9.145,30 26.798,50 31/07/2020
976 287300 FERNANDO MARCIO ALVES MARTINS OFICIAL DO MP LEOPOLDINA - COMARCA; LEOPOLDINA-PJ-01PJ 7.912,85 2.373,86 0,00 0,00 0,00 0,00 0,00 1.550,00 11.836,71 1.131,54 1.491,90 0,00 0,00 2.623,44 9.213,27 31/07/2020
977 262200 FERNANDO MARCIO RESENDE PEREIRA OFICIAL DO MP BELO HORIZONTE - COMARCA; DIR ESTRUTURA E PROCESSOS ORGANIZACIONAIS 10.069,62 3.020,89 0,00 34,57 0,00 1.599,47 0,00 1.550,00 16.274,55 1.439,96 2.730,53 0,00 0,00 4.170,49 12.104,06 31/07/2020
978 472900 FERNANDO RODRIGUES DE FREITAS ANALISTA DO MP BELO HORIZONTE - COMARCA; BH-15PJ M AMB PAT HIST CULT-ASS TECNICA 10.069,62 1.006,96 0,00 0,00 0,00 0,00 0,00 1.550,00 12.626,58 1.218,42 1.841,63 0,00 0,00 3.060,05 9.566,53 31/07/2020
979 421400 FERNANDO TEODORO MACIEL ANALISTA DO MP SANTA VITÓRIA - COMARCA; SANTA VITORIA-PJ-UNPJ 10.736,08 2.147,22 0,00 0,00 0,00 0,00 0,00 2.319,39 15.202,69 1.417,16 2.179,55 0,00 0,00 3.596,71 11.605,98 31/07/2020
980 446300 FERNANDO VITOR DE OLIVEIRA ANALISTA DO MP MONTES CLAROS - COMARCA; COORD REG BACIA RIOS VERDE GRANDE E PARDO 12.204,02 2.440,80 0,00 0,00 0,00 0,00 53,70 2.135,79 16.834,31 1.610,93 2.714,96 0,00 0,00 4.325,89 12.508,42 31/07/2020
981 639300 FILIPE ALMEIDA RODRIGUES ANALISTA DO MP TIMÓTEO - COMARCA; TIMOTEO-PJ-04PJ 7.421,79 742,18 0,00 0,00 0,00 0,00 0,00 1.550,00 9.713,97 898,04 1.128,77 0,00 0,00 2.026,81 7.687,16 31/07/2020
982 398400 FLAVIA ALVARES GUIMARAES COORDENADOR/OFICIAL BELO HORIZONTE - COMARCA; CGMP-DIVIS DE APOIO FISC ORIENTACAO FUNCIONAL 0,00 2.363,83 11.819,15 0,00 0,00 0,00 0,00 1.550,00 15.732,98 1.148,74 2.661,79 0,00 0,00 3.810,53 11.922,45 31/07/2020
983 398200 FLAVIA ALVES DE ASSUNCAO RODRIGUES ANALISTA DO MP DIVINÓPOLIS - COMARCA; COORD REG DO MA DA BACIA DO ALTO SAO FRANC 12.204,02 2.440,80 0,00 0,00 4.881,61 0,00 0,00 2.319,39 21.845,82 1.610,93 4.005,27 0,00 0,00 5.616,20 16.229,62 31/07/2020
984 318500 FLAVIA BEATRIZ NUNES CRUZ VIEIRA ANALISTA DO MP BARBACENA - COMARCA; BARBACENA-PJ-SECRETARIA 15.272,02 4.581,61 0,00 0,00 0,00 0,00 0,00 1.755,17 21.608,80 2.183,90 3.885,54 0,00 0,00 6.069,44 15.539,36 31/07/2020
985 496500 FLAVIA CARAM BORLIDO ANALISTA DO MP BELO HORIZONTE - COMARCA; DIRETORIA GESTAO CONTRATOS CONVENIOS 11.085,56 1.108,56 0,00 0,00 0,00 0,00 0,00 1.550,00 13.744,12 1.341,35 2.115,15 0,00 0,00 3.456,50 10.287,62 31/07/2020
986 534800 FLAVIA CONDE SOARES ANALISTA DO MP BELO HORIZONTE - COMARCA; BH-13PJ JUÍZO DE TÓXICOS-ASSESSORIA JURIDICA 8.436,53 843,65 0,00 0,00 0,00 0,00 0,00 1.550,00 10.830,18 1.020,82 1.401,96 0,00 0,00 2.422,78 8.407,40 31/07/2020
987 219500 FLAVIA CRISTINA ANCELMO OFICIAL DO MP BELO HORIZONTE - COMARCA; CAO-DH CONT EXT ATIV POLIC E AP COMUNIT 10.069,62 3.020,89 0,00 0,00 0,00 0,00 0,00 1.550,00 14.640,51 1.439,96 2.334,54 0,00 0,00 3.774,50 10.866,01 31/07/2020
988 329600 FLAVIA CRISTINA DE MATOS XAVIER ANALISTA DO MP UBERABA - COMARCA; UBERABA-PJ-15PJ 15.272,02 4.581,61 0,00 0,00 0,00 0,00 0,00 1.550,00 21.403,63 2.183,90 3.885,54 0,00 0,00 6.069,44 15.334,19 31/07/2020
989 207600 FLAVIA DE ANDRADE MANCINI ANALISTA DO MP BELO HORIZONTE - COMARCA; ASSESSORIA JURIDICO-ADMINISTRATIVA 18.820,14 7.528,06 0,00 0,00 0,00 0,00 0,00 1.550,00 27.898,20 2.898,30 5.422,95 0,00 0,00 8.321,25 19.576,95 31/07/2020
990 402801 FLAVIA MARIA DE RESENDE NASCIMENTO ANALISTA DO MP SÃO JOÃO DEL REI - COMARCA; SAO JOAO DEL REI-PJ-04PJ 10.069,62 1.006,96 0,00 0,00 3.692,19 0,00 0,00 2.319,39 17.088,16 1.218,42 2.856,99 0,00 0,00 4.075,41 13.012,75 31/07/2020
991 437500 FLAVIA MARIA TORRES MARCHETTI ANALISTA DO MP BELO HORIZONTE - COMARCA; BH-18PJ VIOLENCIA DOMESTICA-SECRETARIA 10.736,08 2.147,22 0,00 0,00 0,00 0,00 0,00 2.704,08 15.587,38 1.417,16 2.179,55 0,00 0,00 3.596,71 11.990,67 31/07/2020
992 386000 FLAVIA NEVES BRIGIDO ASSESSOR/OFICIAL BELO HORIZONTE - COMARCA; PROMOT ESTADUAL DE DEF PATRI CULT E TUR DE MG 0,00 2.079,50 10.397,52 0,00 0,00 0,00 0,00 2.319,39 14.796,41 1.148,74 2.244,28 0,00 0,00 3.393,02 11.403,39 31/07/2020
993 488600 FLAVIA PEREIRA COSTA ANALISTA DO MP BELO HORIZONTE - COMARCA; CENTRAL DE APOIO TECNICO 10.069,62 1.006,96 0,00 0,00 0,00 0,00 0,00 2.319,39 13.395,97 1.218,42 1.841,63 0,00 0,00 3.060,05 10.335,92 31/07/2020
994 365400 FLAVIA PEREIRA DA SILVA AMARAL OFICIAL DO MP BELO HORIZONTE - COMARCA; BH-15PJ M AMB PAT HIST CULT-GAB 115PJ 9.444,70 1.888,94 0,00 0,00 0,00 0,00 0,00 1.550,00 12.883,64 1.246,70 1.904,55 0,00 0,00 3.151,25 9.732,39 31/07/2020
995 515400 FLAVIA RODRIGUES DE OLIVEIRA E SILVA PAIVA ANALISTA DO MP CARATINGA - COMARCA; CARATINGA-PJ-05PJ 10.069,62 1.006,96 0,00 0,00 0,00 0,00 0,00 1.550,00 12.626,58 1.218,42 1.685,22 0,00 0,00 2.903,64 9.722,94 31/07/2020
996 621600 FLAVIA SARMENTO RODRIGUES ANALISTA DO MP BELO HORIZONTE - COMARCA; DIV FISCAL ADM CONT TERCEIRIZACAO 8.170,49 817,05 0,00 0,00 0,00 0,00 0,00 1.550,00 10.537,54 988,63 1.330,34 0,00 0,00 2.318,97 8.218,57 31/07/2020
997 535800 FLAVIA SILVA VALADAO OFICIAL DO MP TRÊS CORACOES - COMARCA; TRES CORACOES-PJ-04PJ 4.974,42 497,44 0,00 0,00 0,00 0,00 0,00 1.550,00 7.021,86 601,90 417,74 0,00 0,00 1.019,64 6.002,22 31/07/2020
998 515300 FLAVIA VIEIRA OLIVEIRA GOMES ANALISTA DO MP BELO HORIZONTE - COMARCA; ASSESS TECNICO-JUR JUNTO AS PROC. DE JUST 10.069,62 1.006,96 0,00 0,00 0,00 0,00 0,00 1.550,00 12.626,58 1.218,42 1.841,63 0,00 0,00 3.060,05 9.566,53 31/07/2020
999 377500 FLAVIANA GONCALVES DE OLIVEIRA ANALISTA DO MP IPATINGA - COMARCA; IPATINGA-PJ-02PJ 13.011,52 2.602,30 0,00 0,00 0,00 0,00 0,00 1.550,00 17.163,82 1.717,52 2.952,12 0,00 0,00 4.669,64 12.494,18 31/07/2020
1000 273100 FLAVIANE DOS SANTOS CASTRO OFICIAL DO MP CAXAMBU - COMARCA; CAXAMBU-PJ-SECRETARIA 10.069,62 3.020,89 0,00 0,00 0,00 0,00 0,00 1.550,00 14.640,51 1.439,96 2.230,27 0,00 0,00 3.670,23 10.970,28 31/07/2020
1001 310600 FLAVIANE NAVES ALCANTARA OFICIAL DO MP BELO HORIZONTE - COMARCA; COMB CRIMES PRAT POR AG POL MUN-SECRETARIA 10.736,08 3.220,82 0,00 0,00 0,00 0,00 0,00 2.319,39 16.276,29 1.535,26 2.545,08 0,00 0,00 4.080,34 12.195,95 31/07/2020
1002 378201 FLAVIANE RIBEIRO BORGES FERNANDES OFICIAL DO MP SÃO GONÇALO DO SAPUCAÍ - COMARCA; SAO GONCALO DO SAPUCAI-PJ-02PJ 5.562,64 556,26 0,00 0,00 0,00 0,00 0,00 1.550,00 7.668,90 673,08 628,24 0,00 0,00 1.301,32 6.367,58 31/07/2020
1003 455800 FLAVIO ANTONIO RIBEIRO OFICIAL DO MP BELO HORIZONTE - COMARCA; GRUPO ESP PROM JUST DEF PROB ADM PAT PUB 6.123,79 612,38 0,00 0,00 0,00 0,00 0,00 1.550,00 8.286,17 740,98 779,32 0,00 0,00 1.520,30 6.765,87 31/07/2020
1004 458200 FLAVIO AUGUSTO BRAGA SOARES ANALISTA DO MP BELO HORIZONTE - COMARCA; DIVISAO DE CONTROLE IMOBILIARIO 12.204,02 1.220,40 0,00 0,00 0,00 0,00 0,00 1.550,00 14.974,42 1.476,69 2.416,27 0,00 0,00 3.892,96 11.081,46 31/07/2020
1005 516500 FLAVIO AUGUSTO RODRIGUES CORREA ANALISTA DO MP BELO HORIZONTE - COMARCA; COORD REG BACIAS RIO VELHAS E PARAOPEBA 10.069,62 1.006,96 0,00 0,00 0,00 0,00 0,00 2.319,39 13.395,97 1.218,42 1.841,63 0,00 0,00 3.060,05 10.335,92 31/07/2020
1006 84300 FLAVIO DE FARIA BELTRAO OFICIAL DO MP BELO HORIZONTE - COMARCA; DIRETORIA DE ADMINISTRACAO FINANCEIRA 23.757,25 19.005,81 0,00 0,00 0,00 0,00 0,00 1.550,00 44.313,06 3.900,84 7.810,02 7.300,84 0,00 19.011,70 25.301,36 31/07/2020
1007 266600 FLAVIO GUIMARAES LANA ANALISTA DO MP BELO HORIZONTE - COMARCA; CENTRAL DE APOIO TECN-SETOR DE MEIO AMBIENTE 12.601,30 3.780,39 0,00 0,00 0,00 0,00 0,00 1.550,00 17.931,69 1.801,99 3.140,06 0,00 0,00 4.942,05 12.989,64 31/07/2020
1008 552600 FLAVIO HENRIQUE EVARISTO GOMES ASSESSOR/ANALISTA BELO HORIZONTE - COMARCA; DIRETORIA DE SUPORTE E MANUTENCAO 0,00 1.039,75 10.397,52 0,00 0,00 0,00 0,00 2.319,39 13.756,66 1.053,01 1.985,70 0,00 0,00 3.038,71 10.717,95 31/07/2020
1009 640000 FLAVIO HENRIQUE PEREIRA VELOSO OFICIAL DO MP BELO HORIZONTE - COMARCA; DIVISÃO DE FISCALIZAÇÃO DAS RELAÇÕES DE CONSU 4.376,03 262,56 0,00 0,00 2.027,95 0,00 1.445,27 1.550,00 9.661,81 510,24 1.221,07 0,00 0,00 1.731,31 7.930,50 31/07/2020
1010 241500 FLAVIO HENRIQUE SILVA MARTINS LAGE OFICIAL DO MP BELO HORIZONTE - COMARCA; CAO-CRIANCAS E ADOLESCENTES-SECRETARIA 10.069,62 4.027,85 0,00 0,00 0,00 0,00 0,00 1.550,00 15.647,47 1.550,72 2.581,00 0,00 0,00 4.131,72 11.515,75 31/07/2020
1011 86700 FLAVIO LUCAS TOMAZ AGENTE DO MP BELO HORIZONTE - COMARCA; DIVISÃO DE FISCALIZAÇÃO DAS RELAÇÕES DE CONSU 8.170,49 5.719,35 0,00 0,00 0,00 0,00 0,00 1.550,00 15.439,84 1.527,88 1.894,26 0,00 0,00 3.422,14 12.017,70 31/07/2020
1012 407200 FLAVIO LUCIO MONTEIRO PENA ANALISTA DO MP BELO HORIZONTE - COMARCA; CENTRO JORNALISMO 10.069,62 2.013,92 0,00 0,00 0,00 0,00 0,00 3.088,78 15.172,32 1.329,19 2.088,09 0,00 0,00 3.417,28 11.755,04 31/07/2020
1013 451700 FLAVIO MAGALHAES PEREIRA ANALISTA DO MP BELO HORIZONTE - COMARCA; BH-12PJ JUIZO CRIMINAL-GAB 098PJ 10.069,62 2.013,92 0,00 0,00 0,00 0,00 0,00 2.319,39 14.402,93 1.329,19 2.088,09 0,00 0,00 3.417,28 10.985,65 31/07/2020
1014 481500 FLAVIO NEVES GUELBER DE MACEDO OFICIAL DO MP SÃO JOÃO NEPOMUCENO - COMARCA; SAO JOAO NEPOMUCENO-PJ-02PJ 6.123,79 612,38 0,00 0,00 0,00 0,00 0,00 1.550,00 8.286,17 740,98 779,32 0,00 0,00 1.520,30 6.765,87 31/07/2020
1015 547500 FRANCELINO MOREIRA DA SILVA ANALISTA DO MP BELO HORIZONTE - COMARCA; BH-10PJ EXECUÇÃO PENAL-SECRETARIA 8.436,53 843,65 0,00 0,00 0,00 0,00 0,00 3.472,93 12.753,11 1.020,82 1.401,96 0,00 0,00 2.422,78 10.330,33 31/07/2020
1016 278100 FRANCIANE MARY DE SOUZA ANALISTA DO MP BELO HORIZONTE - COMARCA; BH-12PJ JUIZO CRIMINAL-GAB 083PJ 16.750,82 5.025,25 0,00 0,00 0,00 0,00 0,00 1.550,00 23.326,07 2.395,37 4.460,33 0,00 0,00 6.855,70 16.470,37 31/07/2020
1017 646500 FRANCIELLE CAROLINE PEREIRA DOS SANTOS ASSESSOR BELO HORIZONTE - COMARCA; CENT DE ATENDIMENTO E ORIENTACAO DE PESSOAL 0,00 0,00 4.176,28 0,00 0,00 0,00 0,00 1.219,39 5.395,67 476,70 114,82 0,00 0,00 591,52 4.804,15 31/07/2020
1018 192501 FRANCIELLE REIS DE OLIVEIRA ANALISTA DO MP PASSOS - COMARCA; PASSOS-PJ-04PJ 16.750,82 5.025,25 0,00 0,00 0,00 0,00 0,00 1.550,00 23.326,07 2.395,37 4.356,06 0,00 0,00 6.751,43 16.574,64 31/07/2020
1019 645100 FRANCIELY CRISTINA COSTA TARQUINIO ASSESSOR BELO HORIZONTE - COMARCA; CHEFIA DE GABINETE 0,00 0,00 5.136,32 0,00 0,00 0,00 0,00 1.550,00 6.686,32 713,09 649,53 0,00 0,00 1.362,62 5.323,70 31/07/2020
1020 523600 FRANCINE MOURA LIMIRIO OFICIAL DO MP UBERABA - COMARCA; UBERABA-PJ-02PJ 6.741,63 674,16 0,00 0,00 0,00 0,00 0,00 1.550,00 8.965,79 815,74 945,65 0,00 0,00 1.761,39 7.204,40 31/07/2020
1021 467200 FRANCINI RENNO ANALISTA DO MP CASSIA - COMARCA; CASSIA-PJ-01PJ 10.069,62 1.006,96 0,00 0,00 0,00 0,00 0,00 1.550,00 12.626,58 1.218,42 1.841,63 0,00 0,00 3.060,05 9.566,53 31/07/2020
1022 189300 FRANCIS BERNARDO DO NASCIMENTO OFICIAL DO MP VARGINHA - COMARCA; VARGINHA-PJ-05PJ 14.790,66 5.916,26 0,00 0,00 0,00 0,00 0,00 2.319,39 23.026,31 2.277,76 4.094,38 0,00 0,00 6.372,14 16.654,17 31/07/2020
1023 207800 FRANCISCO CAMPOS PIRES DE MORAIS ANALISTA DO MP BELO HORIZONTE - COMARCA; CENTRAL DE APOIO TECN-SETOR DE MEIO AMBIENTE 18.820,14 7.528,06 0,00 0,00 0,00 0,00 0,00 1.550,00 27.898,20 2.898,30 5.527,23 0,00 0,00 8.425,53 19.472,67 31/07/2020
1024 204600 FRANCISCO FERREIRA NOVAIS OFICIAL DO MP IPATINGA - COMARCA; IPATINGA-PJ-08PJ 12.204,02 4.881,61 0,00 0,00 0,00 0,00 0,00 1.550,00 18.635,63 1.879,42 3.208,07 0,00 0,00 5.087,49 13.548,14 31/07/2020
1025 411600 FRANCISCO PAIVA BRITO ANALISTA DO MP BELO HORIZONTE - COMARCA; BH-07PJ 01 TRIBUNAL JURI-SECRETARIA 10.069,62 2.013,92 0,00 0,00 0,00 0,00 0,00 1.550,00 13.633,54 1.329,19 2.088,09 0,00 0,00 3.417,28 10.216,26 31/07/2020
1026 515800 FRANCISCO RAFAEL DA SILVA NETO ANALISTA DO MP SACRAMENTO - COMARCA; SACRAMENTO-PJ-01PJ 8.579,10 857,91 0,00 0,00 3.145,67 0,00 0,00 1.550,00 14.132,68 1.038,07 2.201,13 0,00 0,00 3.239,20 10.893,48 31/07/2020
1027 515200 FRANCISLEI ELIAS GONCALVES OFICIAL DO MP PASSOS - COMARCA; PASSOS-PJ-07PJ 6.123,79 1.837,14 0,00 0,00 0,00 0,00 0,00 1.550,00 9.510,93 875,70 922,67 0,00 0,00 1.798,37 7.712,56 31/07/2020
1028 443600 FRANCISLEI MARTINS DE SOUSA ANALISTA DO MP TIMÓTEO - COMARCA; TIMOTEO-PJ-01PJ 10.069,62 2.013,92 0,00 0,00 0,00 0,00 0,00 3.088,78 15.172,32 1.329,19 2.088,09 0,00 0,00 3.417,28 11.755,04 31/07/2020
1029 424500 FREDERICO AUGUSTO COBRA MULLER ANALISTA DO MP POUSO ALEGRE - COMARCA; POUSO ALEGRE-PJ-06PJ 10.397,52 2.079,50 0,00 0,00 0,00 0,00 0,00 1.550,00 14.027,02 1.372,47 2.184,39 0,00 0,00 3.556,86 10.470,16 31/07/2020
1030 473100 FREDERICO AUGUSTO LIMA FELICIO ANALISTA DO MP CONCEIÇÃO DO MATO DENTRO - COMARCA; CONCEICAO DO MATO DENTRO-PJ-UNPJ 10.069,62 1.006,96 0,00 0,00 0,00 0,00 0,00 1.550,00 12.626,58 1.218,42 1.841,63 0,00 0,00 3.060,05 9.566,53 31/07/2020
1031 124200 FREDERICO DE SOUZA ROCHA OFICIAL DO MP ESPINOSA - COMARCA; ESPINOSA-PJ-SECRETARIA 16.112,82 14.501,54 0,00 78,31 0,00 3.651,42 0,00 1.550,00 35.894,09 3.367,58 7.445,31 0,00 0,00 10.812,89 25.081,20 31/07/2020
1032 177100 FREDERICO FERNANDES DE ANDRADE OFICIAL DO MP BELO HORIZONTE - COMARCA; SUPERINTENDENCIA DE TECNOLOGIA DA INFORMACAO 12.601,30 5.040,52 0,00 0,00 0,00 0,00 0,00 1.550,00 19.191,82 1.940,60 3.448,48 0,00 0,00 5.389,08 13.802,74 31/07/2020
1033 456200 FREDERICO FERNANDES PASSOS ANALISTA DO MP BELO HORIZONTE - COMARCA; DIRETORIA DE REDES E BANCOS DE DADOS 12.204,02 1.220,40 0,00 0,00 0,00 0,00 0,00 3.396,54 16.820,96 1.476,69 2.416,27 0,00 0,00 3.892,96 12.928,00 31/07/2020
1034 400900 FREDERICO LUCIANO BORGES REIS ANALISTA DO MP BELO HORIZONTE - COMARCA; DIRETORIA DE SISTEMAS DE INFORMACAO 12.601,30 2.520,26 0,00 0,00 0,00 0,00 0,00 2.319,39 17.440,95 1.663,37 2.727,37 0,00 0,00 4.390,74 13.050,21 31/07/2020
1035 466200 FREDERICO LUIS FERNANDES ANALISTA DO MP BELO HORIZONTE - COMARCA; BH-12PJ JUIZO CRIMINAL-GAB 097PJ 10.069,62 1.006,96 0,00 0,00 0,00 0,00 0,00 1.550,00 12.626,58 1.218,42 1.789,50 0,00 0,00 3.007,92 9.618,66 31/07/2020
1036 419700 FREDERICO MECKLER SANTOS ANALISTA DO MP CLÁUDIO - COMARCA; CLAUDIO-PJ-UNPJ 12.204,02 2.440,80 0,00 0,00 0,00 0,00 0,00 1.550,00 16.194,82 1.610,93 2.662,82 0,00 0,00 4.273,75 11.921,07 31/07/2020
1037 621700 GABRIEL ANDRADE SOUZA GROSSI RIBEIRO OFICIAL DO MP BETIM - COMARCA; BETIM-PJ-SECRETARIA 4.817,57 481,76 0,00 0,00 0,00 0,00 0,00 1.550,00 6.849,33 582,93 427,65 0,00 0,00 1.010,58 5.838,75 31/07/2020
1038 613600 GABRIEL BASTOS MEIRELES ANALISTA DO MP BELO HORIZONTE - COMARCA; BH-16PJ HABITACAO URBANISMO-GAB 117PJ 7.421,79 742,18 0,00 0,00 0,00 0,00 0,00 1.100,00 9.263,97 898,04 1.128,77 0,00 0,00 2.026,81 7.237,16 31/07/2020
1039 617900 GABRIELA CIRILA ROQUE ANALISTA DO MP ITABIRA - COMARCA; ITABIRA-PJ-04PJ 8.170,49 817,05 0,00 0,00 0,00 0,00 0,00 2.319,39 11.306,93 988,63 1.330,34 0,00 0,00 2.318,97 8.987,96 31/07/2020
1040 386800 GABRIELA SIMOES CHAVES ANALISTA DO MP BELO HORIZONTE - COMARCA; DIRETORIA GESTAO COMPRAS LICITACOES 13.011,52 2.602,30 0,00 0,00 0,00 0,00 0,00 3.088,78 18.702,60 1.717,52 2.952,12 0,00 0,00 4.669,64 14.032,96 31/07/2020
1041 248600 GABRIELA TERESA DIAS DE MORAIS ANALISTA DO MP BELO HORIZONTE - COMARCA; ASSESS TECNICO-JUR JUNTO AS PROC. DE JUST 18.820,14 5.646,04 0,00 0,00 0,00 0,00 0,00 1.550,00 26.016,18 2.691,28 5.118,74 0,00 0,00 7.810,02 18.206,16 31/07/2020
1042 449700 GABRIELE COSTA FERREIRA OFICIAL DO MP BELO HORIZONTE - COMARCA; DIRETORIA DE ADMINISTRACAO FINANCEIRA 6.741,63 1.348,33 0,00 0,00 0,00 0,00 0,00 1.550,00 9.639,96 889,90 1.110,66 0,00 0,00 2.000,56 7.639,40 31/07/2020
1043 357600 GABRIELLA CRUZ EMRICH OFICIAL DO MP OLIVEIRA - COMARCA; OLIVEIRA-PJ-SECRETARIA 6.123,79 1.224,76 0,00 0,00 0,00 0,00 0,00 1.550,00 8.898,55 808,34 929,20 0,00 0,00 1.737,54 7.161,01 31/07/2020
1044 470600 GABRIELLA SPIRANDELLI COIMBRA ANALISTA DO MP UBERLÂNDIA - COMARCA; UBERLANDIA-PJ-18PJ 10.069,62 1.006,96 0,00 0,00 0,00 0,00 0,00 1.550,00 12.626,58 1.218,42 1.841,63 0,00 0,00 3.060,05 9.566,53 31/07/2020
1045 86000 GASPAR GOMES DE SOUSA AGENTE DO MP BELO HORIZONTE - COMARCA; BH-15PJ M AMB PAT HIST CULT-RECEPCAO 23.757,25 21.381,54 0,00 0,00 0,00 3.900,84 520,12 7.223,96 56.783,71 3.900,84 8.882,75 9.676,57 0,00 22.460,16 34.323,55 31/07/2020
1046 183100 GECIELLE FERNANDA SILVA OFICIAL DO MP PITANGUI - COMARCA; PITANGUI-PJ-02PJ 14.790,66 5.916,26 0,00 0,00 0,00 0,00 0,00 1.550,00 22.256,92 2.277,76 4.198,66 0,00 0,00 6.476,42 15.780,50 31/07/2020
1047 387300 GEOFFREY GIULLIANO OLIVEIRA ALMEIDA ANALISTA DO MP BOCAIÚVA - COMARCA; BOCAIUVA-PJ-02PJ 10.069,62 2.013,92 0,00 0,00 0,00 0,00 0,00